<?xml version="1.0" encoding="UTF-8"?>
<gpx version="1.1" creator="https://www.youtrack.es" xsi:schemaLocation="http://www.topografix.com/GPX/1/1 http://www.topografix.com/GPX/1/1/gpx.xsd http://www.garmin.com/xmlschemas/GpxExtensions/v3 http://www.garmin.com/xmlschemas/GpxExtensionsv3.xsd http://www.garmin.com/xmlschemas/TrackPointExtension/v1 http://www.garmin.com/xmlschemas/TrackPointExtensionv1.xsd" xmlns:gpxtpx="http://www.garmin.com/xmlschemas/TrackPointExtension/v1" xmlns:gpxx="http://www.garmin.com/xmlschemas/GpxExtensions/v3" xmlns:xsi="http://www.w3.org/2001/XMLSchema-instance">
  <metadata>
    <link href="https://www.youtrack.es">
      <text>YouTrack.es</text>
    </link>
    <time>2026-05-07T18:43:39Z</time>
  </metadata>
  <trk>
    <src>https://www.youtrack.es</src>
    <link href="https://www.youtrack.es/ruta/4097-gaurkoa">
      <text>YouTrack.es</text>
    </link>
    <trkseg>
      <trkpt lat="43.2642631698" lon="-2.0186711568">
        <ele>33.30</ele>
        <time>2019-02-14T15:03:32Z</time>
      </trkpt>
      <trkpt lat="43.2642754912" lon="-2.0186152495">
        <ele>27.05</ele>
        <time>2019-02-14T15:03:49Z</time>
      </trkpt>
      <trkpt lat="43.2643422950" lon="-2.0185845718">
        <ele>23.69</ele>
        <time>2019-02-14T15:04:23Z</time>
      </trkpt>
      <trkpt lat="43.2642626669" lon="-2.0186542254">
        <ele>26.09</ele>
        <time>2019-02-14T15:04:27Z</time>
      </trkpt>
      <trkpt lat="43.2642113697" lon="-2.0186888427">
        <ele>24.65</ele>
        <time>2019-02-14T15:04:30Z</time>
      </trkpt>
      <trkpt lat="43.2646736316" lon="-2.0189233683">
        <ele>24.65</ele>
        <time>2019-02-14T15:04:41Z</time>
      </trkpt>
      <trkpt lat="43.2656494528" lon="-2.0193429664">
        <ele>25.13</ele>
        <time>2019-02-14T15:04:58Z</time>
      </trkpt>
      <trkpt lat="43.2667040639" lon="-2.0197904762">
        <ele>26.57</ele>
        <time>2019-02-14T15:05:15Z</time>
      </trkpt>
      <trkpt lat="43.2671460416" lon="-2.0199685916">
        <ele>26.57</ele>
        <time>2019-02-14T15:05:22Z</time>
      </trkpt>
      <trkpt lat="43.2672160305" lon="-2.0200907998">
        <ele>26.57</ele>
        <time>2019-02-14T15:05:25Z</time>
      </trkpt>
      <trkpt lat="43.2671997696" lon="-2.0201262552">
        <ele>26.57</ele>
        <time>2019-02-14T15:05:26Z</time>
      </trkpt>
      <trkpt lat="43.2671827544" lon="-2.0201571006">
        <ele>26.09</ele>
        <time>2019-02-14T15:05:27Z</time>
      </trkpt>
      <trkpt lat="43.2671629731" lon="-2.0201957412">
        <ele>26.09</ele>
        <time>2019-02-14T15:05:28Z</time>
      </trkpt>
      <trkpt lat="43.2671461254" lon="-2.0202451944">
        <ele>26.09</ele>
        <time>2019-02-14T15:05:29Z</time>
      </trkpt>
      <trkpt lat="43.2671318762" lon="-2.0202994253">
        <ele>26.09</ele>
        <time>2019-02-14T15:05:30Z</time>
      </trkpt>
      <trkpt lat="43.2671190519" lon="-2.0203597751">
        <ele>25.61</ele>
        <time>2019-02-14T15:05:31Z</time>
      </trkpt>
      <trkpt lat="43.2670606300" lon="-2.0206326898">
        <ele>25.13</ele>
        <time>2019-02-14T15:05:35Z</time>
      </trkpt>
      <trkpt lat="43.2669511624" lon="-2.0211906731">
        <ele>25.13</ele>
        <time>2019-02-14T15:05:43Z</time>
      </trkpt>
      <trkpt lat="43.2669509947" lon="-2.0212463289">
        <ele>25.13</ele>
        <time>2019-02-14T15:05:44Z</time>
      </trkpt>
      <trkpt lat="43.2669639029" lon="-2.0212982967">
        <ele>25.13</ele>
        <time>2019-02-14T15:05:45Z</time>
      </trkpt>
      <trkpt lat="43.2669708598" lon="-2.0213501807">
        <ele>25.13</ele>
        <time>2019-02-14T15:05:46Z</time>
      </trkpt>
      <trkpt lat="43.2669682615" lon="-2.0214069262">
        <ele>25.13</ele>
        <time>2019-02-14T15:05:47Z</time>
      </trkpt>
      <trkpt lat="43.2669520006" lon="-2.0214641746">
        <ele>25.61</ele>
        <time>2019-02-14T15:05:48Z</time>
      </trkpt>
      <trkpt lat="43.2669386733" lon="-2.0215269551">
        <ele>26.09</ele>
        <time>2019-02-14T15:05:49Z</time>
      </trkpt>
      <trkpt lat="43.2669261005" lon="-2.0216456428">
        <ele>27.05</ele>
        <time>2019-02-14T15:05:51Z</time>
      </trkpt>
      <trkpt lat="43.2669402659" lon="-2.0217001252">
        <ele>27.05</ele>
        <time>2019-02-14T15:05:52Z</time>
      </trkpt>
      <trkpt lat="43.2669804990" lon="-2.0217496622">
        <ele>27.53</ele>
        <time>2019-02-14T15:05:53Z</time>
      </trkpt>
      <trkpt lat="43.2670324668" lon="-2.0217903983">
        <ele>27.53</ele>
        <time>2019-02-14T15:05:54Z</time>
      </trkpt>
      <trkpt lat="43.2670867816" lon="-2.0218243450">
        <ele>27.05</ele>
        <time>2019-02-14T15:05:55Z</time>
      </trkpt>
      <trkpt lat="43.2680257224" lon="-2.0225140918">
        <ele>21.77</ele>
        <time>2019-02-14T15:06:12Z</time>
      </trkpt>
      <trkpt lat="43.2682020776" lon="-2.0227059536">
        <ele>21.29</ele>
        <time>2019-02-14T15:06:16Z</time>
      </trkpt>
      <trkpt lat="43.2682300732" lon="-2.0227559935">
        <ele>21.29</ele>
        <time>2019-02-14T15:06:17Z</time>
      </trkpt>
      <trkpt lat="43.2682463340" lon="-2.0228001662">
        <ele>20.81</ele>
        <time>2019-02-14T15:06:18Z</time>
      </trkpt>
      <trkpt lat="43.2682574820" lon="-2.0228393096">
        <ele>20.81</ele>
        <time>2019-02-14T15:06:19Z</time>
      </trkpt>
      <trkpt lat="43.2682651095" lon="-2.0228789560">
        <ele>20.81</ele>
        <time>2019-02-14T15:06:20Z</time>
      </trkpt>
      <trkpt lat="43.2682646904" lon="-2.0229305886">
        <ele>20.32</ele>
        <time>2019-02-14T15:06:21Z</time>
      </trkpt>
      <trkpt lat="43.2682573982" lon="-2.0229891781">
        <ele>20.32</ele>
        <time>2019-02-14T15:06:22Z</time>
      </trkpt>
      <trkpt lat="43.2682454959" lon="-2.0230333507">
        <ele>19.84</ele>
        <time>2019-02-14T15:06:23Z</time>
      </trkpt>
      <trkpt lat="43.2682216913" lon="-2.0230891742">
        <ele>19.84</ele>
        <time>2019-02-14T15:06:24Z</time>
      </trkpt>
      <trkpt lat="43.2681883313" lon="-2.0231433213">
        <ele>19.84</ele>
        <time>2019-02-14T15:06:25Z</time>
      </trkpt>
      <trkpt lat="43.2681506127" lon="-2.0231971331">
        <ele>19.84</ele>
        <time>2019-02-14T15:06:26Z</time>
      </trkpt>
      <trkpt lat="43.2676102314" lon="-2.0241221599">
        <ele>17.92</ele>
        <time>2019-02-14T15:06:41Z</time>
      </trkpt>
      <trkpt lat="43.2675885223" lon="-2.0242042188">
        <ele>17.92</ele>
        <time>2019-02-14T15:06:42Z</time>
      </trkpt>
      <trkpt lat="43.2675793860" lon="-2.0242738724">
        <ele>17.92</ele>
        <time>2019-02-14T15:06:43Z</time>
      </trkpt>
      <trkpt lat="43.2675571740" lon="-2.0249091368">
        <ele>17.44</ele>
        <time>2019-02-14T15:06:51Z</time>
      </trkpt>
      <trkpt lat="43.2676401548" lon="-2.0253832173">
        <ele>17.44</ele>
        <time>2019-02-14T15:06:57Z</time>
      </trkpt>
      <trkpt lat="43.2676675636" lon="-2.0254541282">
        <ele>17.44</ele>
        <time>2019-02-14T15:06:58Z</time>
      </trkpt>
      <trkpt lat="43.2682176679" lon="-2.0261034742">
        <ele>16.48</ele>
        <time>2019-02-14T15:07:10Z</time>
      </trkpt>
      <trkpt lat="43.2694295235" lon="-2.0270259026">
        <ele>16.48</ele>
        <time>2019-02-14T15:07:32Z</time>
      </trkpt>
      <trkpt lat="43.2703367807" lon="-2.0277600735">
        <ele>16.96</ele>
        <time>2019-02-14T15:07:49Z</time>
      </trkpt>
      <trkpt lat="43.2710688561" lon="-2.0287291892">
        <ele>15.04</ele>
        <time>2019-02-14T15:08:05Z</time>
      </trkpt>
      <trkpt lat="43.2714374084" lon="-2.0295970514">
        <ele>15.04</ele>
        <time>2019-02-14T15:08:16Z</time>
      </trkpt>
      <trkpt lat="43.2715224009" lon="-2.0297542121">
        <ele>15.52</ele>
        <time>2019-02-14T15:08:18Z</time>
      </trkpt>
      <trkpt lat="43.2720932085" lon="-2.0311092306">
        <ele>16.48</ele>
        <time>2019-02-14T15:08:35Z</time>
      </trkpt>
      <trkpt lat="43.2721301727" lon="-2.0312754437">
        <ele>16.48</ele>
        <time>2019-02-14T15:08:37Z</time>
      </trkpt>
      <trkpt lat="43.2721378841" lon="-2.0313605200">
        <ele>16.48</ele>
        <time>2019-02-14T15:08:38Z</time>
      </trkpt>
      <trkpt lat="43.2721359562" lon="-2.0314478595">
        <ele>16.48</ele>
        <time>2019-02-14T15:08:39Z</time>
      </trkpt>
      <trkpt lat="43.2721228804" lon="-2.0315337740">
        <ele>16.96</ele>
        <time>2019-02-14T15:08:40Z</time>
      </trkpt>
      <trkpt lat="43.2721016742" lon="-2.0316172577">
        <ele>16.96</ele>
        <time>2019-02-14T15:08:41Z</time>
      </trkpt>
      <trkpt lat="43.2720776182" lon="-2.0316995680">
        <ele>16.96</ele>
        <time>2019-02-14T15:08:42Z</time>
      </trkpt>
      <trkpt lat="43.2716686651" lon="-2.0327606332">
        <ele>17.44</ele>
        <time>2019-02-14T15:08:56Z</time>
      </trkpt>
      <trkpt lat="43.2716250792" lon="-2.0328463800">
        <ele>17.44</ele>
        <time>2019-02-14T15:08:58Z</time>
      </trkpt>
      <trkpt lat="43.2713095006" lon="-2.0333752781">
        <ele>17.92</ele>
        <time>2019-02-14T15:09:06Z</time>
      </trkpt>
      <trkpt lat="43.2711006235" lon="-2.0339257177">
        <ele>18.88</ele>
        <time>2019-02-14T15:09:14Z</time>
      </trkpt>
      <trkpt lat="43.2710889727" lon="-2.0339791942">
        <ele>18.88</ele>
        <time>2019-02-14T15:09:15Z</time>
      </trkpt>
      <trkpt lat="43.2710806746" lon="-2.0340537932">
        <ele>18.88</ele>
        <time>2019-02-14T15:09:16Z</time>
      </trkpt>
      <trkpt lat="43.2710799202" lon="-2.0340905059">
        <ele>18.88</ele>
        <time>2019-02-14T15:09:17Z</time>
      </trkpt>
      <trkpt lat="43.2710827701" lon="-2.0341583993">
        <ele>18.88</ele>
        <time>2019-02-14T15:09:18Z</time>
      </trkpt>
      <trkpt lat="43.2710881345" lon="-2.0342348423">
        <ele>18.40</ele>
        <time>2019-02-14T15:09:19Z</time>
      </trkpt>
      <trkpt lat="43.2710908167" lon="-2.0343175717">
        <ele>18.40</ele>
        <time>2019-02-14T15:09:20Z</time>
      </trkpt>
      <trkpt lat="43.2710763160" lon="-2.0347743016">
        <ele>16.96</ele>
        <time>2019-02-14T15:09:25Z</time>
      </trkpt>
      <trkpt lat="43.2710847817" lon="-2.0348693524">
        <ele>16.96</ele>
        <time>2019-02-14T15:09:26Z</time>
      </trkpt>
      <trkpt lat="43.2711007074" lon="-2.0349633973">
        <ele>16.48</ele>
        <time>2019-02-14T15:09:27Z</time>
      </trkpt>
      <trkpt lat="43.2711230032" lon="-2.0350576099">
        <ele>16.48</ele>
        <time>2019-02-14T15:09:28Z</time>
      </trkpt>
      <trkpt lat="43.2711458858" lon="-2.0351523254">
        <ele>16.00</ele>
        <time>2019-02-14T15:09:29Z</time>
      </trkpt>
      <trkpt lat="43.2711588778" lon="-2.0352482982">
        <ele>16.00</ele>
        <time>2019-02-14T15:09:30Z</time>
      </trkpt>
      <trkpt lat="43.2711612247" lon="-2.0353494678">
        <ele>15.52</ele>
        <time>2019-02-14T15:09:31Z</time>
      </trkpt>
      <trkpt lat="43.2711574528" lon="-2.0354455244">
        <ele>15.52</ele>
        <time>2019-02-14T15:09:32Z</time>
      </trkpt>
      <trkpt lat="43.2711634878" lon="-2.0356264059">
        <ele>15.52</ele>
        <time>2019-02-14T15:09:34Z</time>
      </trkpt>
      <trkpt lat="43.2711917348" lon="-2.0357033517">
        <ele>16.00</ele>
        <time>2019-02-14T15:09:35Z</time>
      </trkpt>
      <trkpt lat="43.2712351531" lon="-2.0357682277">
        <ele>16.00</ele>
        <time>2019-02-14T15:09:36Z</time>
      </trkpt>
      <trkpt lat="43.2712900545" lon="-2.0358237997">
        <ele>16.00</ele>
        <time>2019-02-14T15:09:37Z</time>
      </trkpt>
      <trkpt lat="43.2713510748" lon="-2.0358767733">
        <ele>16.00</ele>
        <time>2019-02-14T15:09:38Z</time>
      </trkpt>
      <trkpt lat="43.2715931442" lon="-2.0360927749">
        <ele>15.52</ele>
        <time>2019-02-14T15:09:42Z</time>
      </trkpt>
      <trkpt lat="43.2716446090" lon="-2.0361675415">
        <ele>15.52</ele>
        <time>2019-02-14T15:09:43Z</time>
      </trkpt>
      <trkpt lat="43.2716846745" lon="-2.0362597425">
        <ele>15.04</ele>
        <time>2019-02-14T15:09:44Z</time>
      </trkpt>
      <trkpt lat="43.2717094012" lon="-2.0363675337">
        <ele>15.04</ele>
        <time>2019-02-14T15:09:45Z</time>
      </trkpt>
      <trkpt lat="43.2717172801" lon="-2.0364716370">
        <ele>14.56</ele>
        <time>2019-02-14T15:09:46Z</time>
      </trkpt>
      <trkpt lat="43.2717074733" lon="-2.0365811046">
        <ele>14.56</ele>
        <time>2019-02-14T15:09:47Z</time>
      </trkpt>
      <trkpt lat="43.2716820762" lon="-2.0366804302">
        <ele>14.56</ele>
        <time>2019-02-14T15:09:48Z</time>
      </trkpt>
      <trkpt lat="43.2716447767" lon="-2.0367726311">
        <ele>14.08</ele>
        <time>2019-02-14T15:09:49Z</time>
      </trkpt>
      <trkpt lat="43.2716037054" lon="-2.0368573721">
        <ele>13.60</ele>
        <time>2019-02-14T15:09:50Z</time>
      </trkpt>
      <trkpt lat="43.2715556771" lon="-2.0369317196">
        <ele>13.60</ele>
        <time>2019-02-14T15:09:51Z</time>
      </trkpt>
      <trkpt lat="43.2714915555" lon="-2.0369923208">
        <ele>13.12</ele>
        <time>2019-02-14T15:09:52Z</time>
      </trkpt>
      <trkpt lat="43.2714240812" lon="-2.0370439533">
        <ele>13.12</ele>
        <time>2019-02-14T15:09:53Z</time>
      </trkpt>
      <trkpt lat="43.2713566069" lon="-2.0370882936">
        <ele>12.63</ele>
        <time>2019-02-14T15:09:54Z</time>
      </trkpt>
      <trkpt lat="43.2712846901" lon="-2.0371267665">
        <ele>12.63</ele>
        <time>2019-02-14T15:09:55Z</time>
      </trkpt>
      <trkpt lat="43.2703445759" lon="-2.0376025233">
        <ele>13.12</ele>
        <time>2019-02-14T15:10:11Z</time>
      </trkpt>
      <trkpt lat="43.2697148435" lon="-2.0382486843">
        <ele>12.15</ele>
        <time>2019-02-14T15:10:24Z</time>
      </trkpt>
      <trkpt lat="43.2690337300" lon="-2.0395352226">
        <ele>11.67</ele>
        <time>2019-02-14T15:10:43Z</time>
      </trkpt>
      <trkpt lat="43.2686921675" lon="-2.0401155856">
        <ele>11.19</ele>
        <time>2019-02-14T15:10:52Z</time>
      </trkpt>
      <trkpt lat="43.2680441625" lon="-2.0411763154">
        <ele>10.71</ele>
        <time>2019-02-14T15:11:09Z</time>
      </trkpt>
      <trkpt lat="43.2676415797" lon="-2.0417314488">
        <ele>9.27</ele>
        <time>2019-02-14T15:11:18Z</time>
      </trkpt>
      <trkpt lat="43.2675873488" lon="-2.0417767949">
        <ele>9.27</ele>
        <time>2019-02-14T15:11:19Z</time>
      </trkpt>
      <trkpt lat="43.2675269153" lon="-2.0418186206">
        <ele>9.27</ele>
        <time>2019-02-14T15:11:20Z</time>
      </trkpt>
      <trkpt lat="43.2668053173" lon="-2.0421208721">
        <ele>9.27</ele>
        <time>2019-02-14T15:11:33Z</time>
      </trkpt>
      <trkpt lat="43.2666662615" lon="-2.0422470197">
        <ele>9.75</ele>
        <time>2019-02-14T15:11:36Z</time>
      </trkpt>
      <trkpt lat="43.2666249387" lon="-2.0423042681">
        <ele>9.75</ele>
        <time>2019-02-14T15:11:37Z</time>
      </trkpt>
      <trkpt lat="43.2663662732" lon="-2.0427169092">
        <ele>9.27</ele>
        <time>2019-02-14T15:11:43Z</time>
      </trkpt>
      <trkpt lat="43.2663138863" lon="-2.0427704696">
        <ele>9.27</ele>
        <time>2019-02-14T15:11:44Z</time>
      </trkpt>
      <trkpt lat="43.2662576437" lon="-2.0428150613">
        <ele>9.27</ele>
        <time>2019-02-14T15:11:45Z</time>
      </trkpt>
      <trkpt lat="43.2661991380" lon="-2.0428501815">
        <ele>9.27</ele>
        <time>2019-02-14T15:11:46Z</time>
      </trkpt>
      <trkpt lat="43.2661345135" lon="-2.0428824518">
        <ele>9.27</ele>
        <time>2019-02-14T15:11:47Z</time>
      </trkpt>
      <trkpt lat="43.2660749182" lon="-2.0429041609">
        <ele>9.27</ele>
        <time>2019-02-14T15:11:48Z</time>
      </trkpt>
      <trkpt lat="43.2660139818" lon="-2.0429194998">
        <ele>9.27</ele>
        <time>2019-02-14T15:11:49Z</time>
      </trkpt>
      <trkpt lat="43.2650518231" lon="-2.0431898162">
        <ele>9.27</ele>
        <time>2019-02-14T15:12:06Z</time>
      </trkpt>
      <trkpt lat="43.2642534468" lon="-2.0432062447">
        <ele>7.83</ele>
        <time>2019-02-14T15:12:19Z</time>
      </trkpt>
      <trkpt lat="43.2640055101" lon="-2.0432142913">
        <ele>7.83</ele>
        <time>2019-02-14T15:12:24Z</time>
      </trkpt>
      <trkpt lat="43.2639647741" lon="-2.0432323962">
        <ele>7.83</ele>
        <time>2019-02-14T15:12:25Z</time>
      </trkpt>
      <trkpt lat="43.2639229484" lon="-2.0432637446">
        <ele>7.83</ele>
        <time>2019-02-14T15:12:26Z</time>
      </trkpt>
      <trkpt lat="43.2638815418" lon="-2.0433085039">
        <ele>8.31</ele>
        <time>2019-02-14T15:12:27Z</time>
      </trkpt>
      <trkpt lat="43.2638393808" lon="-2.0433664229">
        <ele>8.31</ele>
        <time>2019-02-14T15:12:28Z</time>
      </trkpt>
      <trkpt lat="43.2638022490" lon="-2.0434255153">
        <ele>8.79</ele>
        <time>2019-02-14T15:12:29Z</time>
      </trkpt>
      <trkpt lat="43.2633959781" lon="-2.0443713292">
        <ele>12.63</ele>
        <time>2019-02-14T15:12:44Z</time>
      </trkpt>
      <trkpt lat="43.2630576007" lon="-2.0454821829">
        <ele>12.15</ele>
        <time>2019-02-14T15:12:57Z</time>
      </trkpt>
      <trkpt lat="43.2629288547" lon="-2.0458568539">
        <ele>11.19</ele>
        <time>2019-02-14T15:13:01Z</time>
      </trkpt>
      <trkpt lat="43.2628855202" lon="-2.0459361468">
        <ele>11.67</ele>
        <time>2019-02-14T15:13:02Z</time>
      </trkpt>
      <trkpt lat="43.2623941731" lon="-2.0469475910">
        <ele>11.19</ele>
        <time>2019-02-14T15:13:15Z</time>
      </trkpt>
      <trkpt lat="43.2623059954" lon="-2.0472305641">
        <ele>10.71</ele>
        <time>2019-02-14T15:13:18Z</time>
      </trkpt>
      <trkpt lat="43.2622931711" lon="-2.0473333262">
        <ele>10.23</ele>
        <time>2019-02-14T15:13:19Z</time>
      </trkpt>
      <trkpt lat="43.2622919977" lon="-2.0474466495">
        <ele>9.75</ele>
        <time>2019-02-14T15:13:20Z</time>
      </trkpt>
      <trkpt lat="43.2623075880" lon="-2.0480961632">
        <ele>7.83</ele>
        <time>2019-02-14T15:13:25Z</time>
      </trkpt>
      <trkpt lat="43.2622976974" lon="-2.0482301060">
        <ele>7.83</ele>
        <time>2019-02-14T15:13:26Z</time>
      </trkpt>
      <trkpt lat="43.2622745633" lon="-2.0483747777">
        <ele>7.35</ele>
        <time>2019-02-14T15:13:27Z</time>
      </trkpt>
      <trkpt lat="43.2621604856" lon="-2.0495147165">
        <ele>6.39</ele>
        <time>2019-02-14T15:13:38Z</time>
      </trkpt>
      <trkpt lat="43.2622796763" lon="-2.0512110461">
        <ele>5.42</ele>
        <time>2019-02-14T15:13:56Z</time>
      </trkpt>
      <trkpt lat="43.2626008708" lon="-2.0523675811">
        <ele>6.87</ele>
        <time>2019-02-14T15:14:10Z</time>
      </trkpt>
      <trkpt lat="43.2632107381" lon="-2.0534008183">
        <ele>7.83</ele>
        <time>2019-02-14T15:14:24Z</time>
      </trkpt>
      <trkpt lat="43.2640182506" lon="-2.0539826900">
        <ele>9.75</ele>
        <time>2019-02-14T15:14:38Z</time>
      </trkpt>
      <trkpt lat="43.2649541739" lon="-2.0547426771">
        <ele>9.75</ele>
        <time>2019-02-14T15:14:52Z</time>
      </trkpt>
      <trkpt lat="43.2657062821" lon="-2.0557563007">
        <ele>8.79</ele>
        <time>2019-02-14T15:15:06Z</time>
      </trkpt>
      <trkpt lat="43.2658910193" lon="-2.0559988730">
        <ele>8.79</ele>
        <time>2019-02-14T15:15:10Z</time>
      </trkpt>
      <trkpt lat="43.2659440767" lon="-2.0560375135">
        <ele>8.79</ele>
        <time>2019-02-14T15:15:11Z</time>
      </trkpt>
      <trkpt lat="43.2659993134" lon="-2.0560641680">
        <ele>9.27</ele>
        <time>2019-02-14T15:15:12Z</time>
      </trkpt>
      <trkpt lat="43.2660537120" lon="-2.0560819376">
        <ele>9.27</ele>
        <time>2019-02-14T15:15:13Z</time>
      </trkpt>
      <trkpt lat="43.2661049254" lon="-2.0560951810">
        <ele>9.27</ele>
        <time>2019-02-14T15:15:14Z</time>
      </trkpt>
      <trkpt lat="43.2661545463" lon="-2.0561132021">
        <ele>9.27</ele>
        <time>2019-02-14T15:15:15Z</time>
      </trkpt>
      <trkpt lat="43.2662589010" lon="-2.0561724622">
        <ele>9.75</ele>
        <time>2019-02-14T15:15:17Z</time>
      </trkpt>
      <trkpt lat="43.2671358995" lon="-2.0566930622">
        <ele>10.23</ele>
        <time>2019-02-14T15:15:34Z</time>
      </trkpt>
      <trkpt lat="43.2682237867" lon="-2.0572323538">
        <ele>9.75</ele>
        <time>2019-02-14T15:15:52Z</time>
      </trkpt>
      <trkpt lat="43.2690221630" lon="-2.0573901851">
        <ele>9.27</ele>
        <time>2019-02-14T15:16:04Z</time>
      </trkpt>
      <trkpt lat="43.2690811716" lon="-2.0574035123">
        <ele>9.27</ele>
        <time>2019-02-14T15:16:05Z</time>
      </trkpt>
      <trkpt lat="43.2691385876" lon="-2.0574466791">
        <ele>9.27</ele>
        <time>2019-02-14T15:16:06Z</time>
      </trkpt>
      <trkpt lat="43.2692023739" lon="-2.0576298237">
        <ele>9.75</ele>
        <time>2019-02-14T15:16:09Z</time>
      </trkpt>
      <trkpt lat="43.2692770567" lon="-2.0578780957">
        <ele>11.19</ele>
        <time>2019-02-14T15:16:14Z</time>
      </trkpt>
      <trkpt lat="43.2693472970" lon="-2.0576128084">
        <ele>11.19</ele>
        <time>2019-02-14T15:16:19Z</time>
      </trkpt>
      <trkpt lat="43.2693541702" lon="-2.0574372075">
        <ele>9.75</ele>
        <time>2019-02-14T15:16:21Z</time>
      </trkpt>
      <trkpt lat="43.2693863567" lon="-2.0573802106">
        <ele>9.27</ele>
        <time>2019-02-14T15:16:22Z</time>
      </trkpt>
      <trkpt lat="43.2694343850" lon="-2.0573510416">
        <ele>8.79</ele>
        <time>2019-02-14T15:16:23Z</time>
      </trkpt>
      <trkpt lat="43.2694864366" lon="-2.0573433302">
        <ele>8.31</ele>
        <time>2019-02-14T15:16:24Z</time>
      </trkpt>
      <trkpt lat="43.2695496362" lon="-2.0573429111">
        <ele>8.31</ele>
        <time>2019-02-14T15:16:25Z</time>
      </trkpt>
      <trkpt lat="43.2705495134" lon="-2.0573583338">
        <ele>6.87</ele>
        <time>2019-02-14T15:16:39Z</time>
      </trkpt>
      <trkpt lat="43.2713022083" lon="-2.0578466635">
        <ele>6.39</ele>
        <time>2019-02-14T15:16:50Z</time>
      </trkpt>
      <trkpt lat="43.2721918635" lon="-2.0586539246">
        <ele>5.42</ele>
        <time>2019-02-14T15:17:06Z</time>
      </trkpt>
      <trkpt lat="43.2722515427" lon="-2.0586897153">
        <ele>5.42</ele>
        <time>2019-02-14T15:17:07Z</time>
      </trkpt>
      <trkpt lat="43.2723129820" lon="-2.0587167889">
        <ele>5.42</ele>
        <time>2019-02-14T15:17:08Z</time>
      </trkpt>
      <trkpt lat="43.2723778579" lon="-2.0587358996">
        <ele>5.42</ele>
        <time>2019-02-14T15:17:09Z</time>
      </trkpt>
      <trkpt lat="43.2724414766" lon="-2.0587464608">
        <ele>5.42</ele>
        <time>2019-02-14T15:17:10Z</time>
      </trkpt>
      <trkpt lat="43.2725043409" lon="-2.0587516576">
        <ele>5.42</ele>
        <time>2019-02-14T15:17:11Z</time>
      </trkpt>
      <trkpt lat="43.2725674566" lon="-2.0587509032">
        <ele>5.42</ele>
        <time>2019-02-14T15:17:12Z</time>
      </trkpt>
      <trkpt lat="43.2726302370" lon="-2.0587443653">
        <ele>5.42</ele>
        <time>2019-02-14T15:17:13Z</time>
      </trkpt>
      <trkpt lat="43.2726925146" lon="-2.0587317925">
        <ele>5.42</ele>
        <time>2019-02-14T15:17:14Z</time>
      </trkpt>
      <trkpt lat="43.2727531157" lon="-2.0587103348">
        <ele>5.42</ele>
        <time>2019-02-14T15:17:15Z</time>
      </trkpt>
      <trkpt lat="43.2728143875" lon="-2.0586866979">
        <ele>5.42</ele>
        <time>2019-02-14T15:17:16Z</time>
      </trkpt>
      <trkpt lat="43.2728787605" lon="-2.0586656593">
        <ele>5.42</ele>
        <time>2019-02-14T15:17:17Z</time>
      </trkpt>
      <trkpt lat="43.2734887954" lon="-2.0585229993">
        <ele>5.42</ele>
        <time>2019-02-14T15:17:26Z</time>
      </trkpt>
      <trkpt lat="43.2742917817" lon="-2.0587152801">
        <ele>5.91</ele>
        <time>2019-02-14T15:17:37Z</time>
      </trkpt>
      <trkpt lat="43.2753906492" lon="-2.0591267478">
        <ele>5.91</ele>
        <time>2019-02-14T15:17:52Z</time>
      </trkpt>
      <trkpt lat="43.2762106508" lon="-2.0598754194">
        <ele>5.42</ele>
        <time>2019-02-14T15:18:06Z</time>
      </trkpt>
      <trkpt lat="43.2765730005" lon="-2.0602329075">
        <ele>5.42</ele>
        <time>2019-02-14T15:18:15Z</time>
      </trkpt>
      <trkpt lat="43.2772498392" lon="-2.0610602014">
        <ele>5.42</ele>
        <time>2019-02-14T15:18:29Z</time>
      </trkpt>
      <trkpt lat="43.2774554472" lon="-2.0615487825">
        <ele>5.42</ele>
        <time>2019-02-14T15:18:35Z</time>
      </trkpt>
      <trkpt lat="43.2775418647" lon="-2.0621902496">
        <ele>5.91</ele>
        <time>2019-02-14T15:18:42Z</time>
      </trkpt>
      <trkpt lat="43.2773444708" lon="-2.0633630455">
        <ele>5.42</ele>
        <time>2019-02-14T15:18:56Z</time>
      </trkpt>
      <trkpt lat="43.2767764293" lon="-2.0641075261">
        <ele>4.94</ele>
        <time>2019-02-14T15:19:09Z</time>
      </trkpt>
      <trkpt lat="43.2757452037" lon="-2.0648611430">
        <ele>6.39</ele>
        <time>2019-02-14T15:19:28Z</time>
      </trkpt>
      <trkpt lat="43.2750061713" lon="-2.0650533400">
        <ele>6.87</ele>
        <time>2019-02-14T15:19:40Z</time>
      </trkpt>
      <trkpt lat="43.2739637140" lon="-2.0650770608">
        <ele>6.39</ele>
        <time>2019-02-14T15:19:56Z</time>
      </trkpt>
      <trkpt lat="43.2730857935" lon="-2.0650932379">
        <ele>5.91</ele>
        <time>2019-02-14T15:20:09Z</time>
      </trkpt>
      <trkpt lat="43.2725154888" lon="-2.0650455449">
        <ele>5.91</ele>
        <time>2019-02-14T15:20:17Z</time>
      </trkpt>
      <trkpt lat="43.2723746728" lon="-2.0650210697">
        <ele>5.42</ele>
        <time>2019-02-14T15:20:19Z</time>
      </trkpt>
      <trkpt lat="43.2714554295" lon="-2.0649586245">
        <ele>3.50</ele>
        <time>2019-02-14T15:20:32Z</time>
      </trkpt>
      <trkpt lat="43.2705166563" lon="-2.0652030408">
        <ele>1.10</ele>
        <time>2019-02-14T15:20:45Z</time>
      </trkpt>
      <trkpt lat="43.2703040913" lon="-2.0653347205">
        <ele>0.62</ele>
        <time>2019-02-14T15:20:48Z</time>
      </trkpt>
      <trkpt lat="43.2702429034" lon="-2.0653969981">
        <ele>0.62</ele>
        <time>2019-02-14T15:20:49Z</time>
      </trkpt>
      <trkpt lat="43.2701911870" lon="-2.0654719323">
        <ele>0.62</ele>
        <time>2019-02-14T15:20:50Z</time>
      </trkpt>
      <trkpt lat="43.2701495290" lon="-2.0655577630">
        <ele>0.62</ele>
        <time>2019-02-14T15:20:51Z</time>
      </trkpt>
      <trkpt lat="43.2701150794" lon="-2.0656544901">
        <ele>0.62</ele>
        <time>2019-02-14T15:20:52Z</time>
      </trkpt>
      <trkpt lat="43.2697611954" lon="-2.0667834487">
        <ele>1.10</ele>
        <time>2019-02-14T15:21:04Z</time>
      </trkpt>
      <trkpt lat="43.2697394863" lon="-2.0668262802">
        <ele>1.10</ele>
        <time>2019-02-14T15:21:05Z</time>
      </trkpt>
      <trkpt lat="43.2697246503" lon="-2.0668621548">
        <ele>2.06</ele>
        <time>2019-02-14T15:21:06Z</time>
      </trkpt>
      <trkpt lat="43.2696941402" lon="-2.0668790862">
        <ele>2.54</ele>
        <time>2019-02-14T15:21:07Z</time>
      </trkpt>
      <trkpt lat="43.2696538232" lon="-2.0668939222">
        <ele>2.54</ele>
        <time>2019-02-14T15:21:08Z</time>
      </trkpt>
      <trkpt lat="43.2696233131" lon="-2.0669208281">
        <ele>2.54</ele>
        <time>2019-02-14T15:21:09Z</time>
      </trkpt>
      <trkpt lat="43.2695942279" lon="-2.0669670124">
        <ele>2.54</ele>
        <time>2019-02-14T15:21:10Z</time>
      </trkpt>
      <trkpt lat="43.2695752010" lon="-2.0670158789">
        <ele>3.02</ele>
        <time>2019-02-14T15:21:11Z</time>
      </trkpt>
      <trkpt lat="43.2695556711" lon="-2.0670779888">
        <ele>3.02</ele>
        <time>2019-02-14T15:21:12Z</time>
      </trkpt>
      <trkpt lat="43.2693975884" lon="-2.0675286837">
        <ele>4.46</ele>
        <time>2019-02-14T15:21:19Z</time>
      </trkpt>
      <trkpt lat="43.2693664916" lon="-2.0675891172">
        <ele>4.46</ele>
        <time>2019-02-14T15:21:20Z</time>
      </trkpt>
      <trkpt lat="43.2693356462" lon="-2.0676417556">
        <ele>4.94</ele>
        <time>2019-02-14T15:21:21Z</time>
      </trkpt>
      <trkpt lat="43.2686505932" lon="-2.0686585642">
        <ele>5.91</ele>
        <time>2019-02-14T15:21:39Z</time>
      </trkpt>
      <trkpt lat="43.2681618445" lon="-2.0693945792">
        <ele>7.35</ele>
        <time>2019-02-14T15:21:53Z</time>
      </trkpt>
      <trkpt lat="43.2681441586" lon="-2.0694613829">
        <ele>7.35</ele>
        <time>2019-02-14T15:21:54Z</time>
      </trkpt>
      <trkpt lat="43.2680470124" lon="-2.0699280873">
        <ele>7.83</ele>
        <time>2019-02-14T15:22:00Z</time>
      </trkpt>
      <trkpt lat="43.2677758578" lon="-2.0708727278">
        <ele>10.71</ele>
        <time>2019-02-14T15:22:13Z</time>
      </trkpt>
      <trkpt lat="43.2676313538" lon="-2.0716387499">
        <ele>14.08</ele>
        <time>2019-02-14T15:22:27Z</time>
      </trkpt>
      <trkpt lat="43.2674154360" lon="-2.0727299061">
        <ele>15.52</ele>
        <time>2019-02-14T15:22:44Z</time>
      </trkpt>
      <trkpt lat="43.2673871890" lon="-2.0729885716">
        <ele>15.52</ele>
        <time>2019-02-14T15:22:48Z</time>
      </trkpt>
      <trkpt lat="43.2673617080" lon="-2.0730447304">
        <ele>15.52</ele>
        <time>2019-02-14T15:22:49Z</time>
      </trkpt>
      <trkpt lat="43.2673313655" lon="-2.0730738156">
        <ele>15.52</ele>
        <time>2019-02-14T15:22:50Z</time>
      </trkpt>
      <trkpt lat="43.2672824152" lon="-2.0730918366">
        <ele>15.52</ele>
        <time>2019-02-14T15:22:51Z</time>
      </trkpt>
      <trkpt lat="43.2672227360" lon="-2.0730982907">
        <ele>15.04</ele>
        <time>2019-02-14T15:22:52Z</time>
      </trkpt>
      <trkpt lat="43.2671587821" lon="-2.0731064212">
        <ele>15.04</ele>
        <time>2019-02-14T15:22:53Z</time>
      </trkpt>
      <trkpt lat="43.2670950796" lon="-2.0731146354">
        <ele>15.04</ele>
        <time>2019-02-14T15:22:54Z</time>
      </trkpt>
      <trkpt lat="43.2670348138" lon="-2.0731174015">
        <ele>15.04</ele>
        <time>2019-02-14T15:22:55Z</time>
      </trkpt>
      <trkpt lat="43.2666688599" lon="-2.0732251927">
        <ele>13.60</ele>
        <time>2019-02-14T15:23:02Z</time>
      </trkpt>
      <trkpt lat="43.2666374277" lon="-2.0732623246">
        <ele>13.12</ele>
        <time>2019-02-14T15:23:03Z</time>
      </trkpt>
      <trkpt lat="43.2666121144" lon="-2.0733090956">
        <ele>12.63</ele>
        <time>2019-02-14T15:23:04Z</time>
      </trkpt>
      <trkpt lat="43.2665992063" lon="-2.0733538549">
        <ele>12.63</ele>
        <time>2019-02-14T15:23:05Z</time>
      </trkpt>
      <trkpt lat="43.2665992063" lon="-2.0733910706">
        <ele>12.63</ele>
        <time>2019-02-14T15:23:06Z</time>
      </trkpt>
      <trkpt lat="43.2666137069" lon="-2.0734263584">
        <ele>12.63</ele>
        <time>2019-02-14T15:23:07Z</time>
      </trkpt>
      <trkpt lat="43.2666380145" lon="-2.0734599698">
        <ele>12.63</ele>
        <time>2019-02-14T15:23:08Z</time>
      </trkpt>
      <trkpt lat="43.2666669320" lon="-2.0734941680">
        <ele>12.63</ele>
        <time>2019-02-14T15:23:09Z</time>
      </trkpt>
      <trkpt lat="43.2667750586" lon="-2.0736462157">
        <ele>12.63</ele>
        <time>2019-02-14T15:23:13Z</time>
      </trkpt>
      <trkpt lat="43.2668038085" lon="-2.0737032127">
        <ele>13.12</ele>
        <time>2019-02-14T15:23:14Z</time>
      </trkpt>
      <trkpt lat="43.2668285351" lon="-2.0737600420">
        <ele>13.60</ele>
        <time>2019-02-14T15:23:15Z</time>
      </trkpt>
      <trkpt lat="43.2670770586" lon="-2.0744239725">
        <ele>20.32</ele>
        <time>2019-02-14T15:23:29Z</time>
      </trkpt>
      <trkpt lat="43.2671568543" lon="-2.0745968074">
        <ele>20.81</ele>
        <time>2019-02-14T15:23:32Z</time>
      </trkpt>
      <trkpt lat="43.2671737857" lon="-2.0746617671">
        <ele>20.81</ele>
        <time>2019-02-14T15:23:33Z</time>
      </trkpt>
      <trkpt lat="43.2671956625" lon="-2.0747859031">
        <ele>20.32</ele>
        <time>2019-02-14T15:23:35Z</time>
      </trkpt>
      <trkpt lat="43.2671989314" lon="-2.0748433191">
        <ele>20.32</ele>
        <time>2019-02-14T15:23:36Z</time>
      </trkpt>
      <trkpt lat="43.2672052179" lon="-2.0749007352">
        <ele>20.32</ele>
        <time>2019-02-14T15:23:37Z</time>
      </trkpt>
      <trkpt lat="43.2670912240" lon="-2.0755374245">
        <ele>18.88</ele>
        <time>2019-02-14T15:23:49Z</time>
      </trkpt>
      <trkpt lat="43.2668107655" lon="-2.0763512235">
        <ele>21.77</ele>
        <time>2019-02-14T15:24:05Z</time>
      </trkpt>
      <trkpt lat="43.2667820994" lon="-2.0763907023">
        <ele>21.77</ele>
        <time>2019-02-14T15:24:06Z</time>
      </trkpt>
      <trkpt lat="43.2667520922" lon="-2.0764242299">
        <ele>21.77</ele>
        <time>2019-02-14T15:24:07Z</time>
      </trkpt>
      <trkpt lat="43.2667243481" lon="-2.0764604397">
        <ele>21.77</ele>
        <time>2019-02-14T15:24:08Z</time>
      </trkpt>
      <trkpt lat="43.2666943409" lon="-2.0764976554">
        <ele>22.25</ele>
        <time>2019-02-14T15:24:09Z</time>
      </trkpt>
      <trkpt lat="43.2665948477" lon="-2.0766227134">
        <ele>22.73</ele>
        <time>2019-02-14T15:24:12Z</time>
      </trkpt>
      <trkpt lat="43.2665666007" lon="-2.0766705740">
        <ele>23.21</ele>
        <time>2019-02-14T15:24:13Z</time>
      </trkpt>
      <trkpt lat="43.2663010620" lon="-2.0770544652">
        <ele>26.57</ele>
        <time>2019-02-14T15:24:24Z</time>
      </trkpt>
      <trkpt lat="43.2661279757" lon="-2.0774100255">
        <ele>32.34</ele>
        <time>2019-02-14T15:24:34Z</time>
      </trkpt>
      <trkpt lat="43.2660595793" lon="-2.0776912384">
        <ele>36.67</ele>
        <time>2019-02-14T15:24:43Z</time>
      </trkpt>
      <trkpt lat="43.2660408039" lon="-2.0777344052">
        <ele>37.63</ele>
        <time>2019-02-14T15:24:45Z</time>
      </trkpt>
      <trkpt lat="43.2660210226" lon="-2.0777598023">
        <ele>37.63</ele>
        <time>2019-02-14T15:24:46Z</time>
      </trkpt>
      <trkpt lat="43.2657966390" lon="-2.0780147798">
        <ele>39.07</ele>
        <time>2019-02-14T15:24:59Z</time>
      </trkpt>
      <trkpt lat="43.2655854151" lon="-2.0782332961">
        <ele>43.40</ele>
        <time>2019-02-14T15:25:12Z</time>
      </trkpt>
      <trkpt lat="43.2655683160" lon="-2.0782480482">
        <ele>43.40</ele>
        <time>2019-02-14T15:25:13Z</time>
      </trkpt>
      <trkpt lat="43.2653637975" lon="-2.0784280915">
        <ele>44.84</ele>
        <time>2019-02-14T15:25:25Z</time>
      </trkpt>
      <trkpt lat="43.2651310321" lon="-2.0785695780">
        <ele>43.88</ele>
        <time>2019-02-14T15:25:38Z</time>
      </trkpt>
      <trkpt lat="43.2649208978" lon="-2.0787988231">
        <ele>41.47</ele>
        <time>2019-02-14T15:25:52Z</time>
      </trkpt>
      <trkpt lat="43.2648081612" lon="-2.0791764278">
        <ele>43.88</ele>
        <time>2019-02-14T15:26:07Z</time>
      </trkpt>
      <trkpt lat="43.2647401839" lon="-2.0795034897">
        <ele>52.05</ele>
        <time>2019-02-14T15:26:22Z</time>
      </trkpt>
      <trkpt lat="43.2646154612" lon="-2.0798264444">
        <ele>58.30</ele>
        <time>2019-02-14T15:26:37Z</time>
      </trkpt>
      <trkpt lat="43.2644922473" lon="-2.0801305398">
        <ele>59.74</ele>
        <time>2019-02-14T15:26:51Z</time>
      </trkpt>
      <trkpt lat="43.2645392697" lon="-2.0805056300">
        <ele>63.58</ele>
        <time>2019-02-14T15:27:05Z</time>
      </trkpt>
      <trkpt lat="43.2647617254" lon="-2.0806496311">
        <ele>70.79</ele>
        <time>2019-02-14T15:27:19Z</time>
      </trkpt>
      <trkpt lat="43.2650398370" lon="-2.0805155206">
        <ele>78.48</ele>
        <time>2019-02-14T15:27:33Z</time>
      </trkpt>
      <trkpt lat="43.2653690781" lon="-2.0802824199">
        <ele>85.21</ele>
        <time>2019-02-14T15:27:50Z</time>
      </trkpt>
      <trkpt lat="43.2656380534" lon="-2.0801291149">
        <ele>92.42</ele>
        <time>2019-02-14T15:28:06Z</time>
      </trkpt>
      <trkpt lat="43.2659838069" lon="-2.0801012870">
        <ele>99.63</ele>
        <time>2019-02-14T15:28:22Z</time>
      </trkpt>
      <trkpt lat="43.2662998885" lon="-2.0802564360">
        <ele>101.08</ele>
        <time>2019-02-14T15:28:35Z</time>
      </trkpt>
      <trkpt lat="43.2666333206" lon="-2.0802023727">
        <ele>97.71</ele>
        <time>2019-02-14T15:28:48Z</time>
      </trkpt>
      <trkpt lat="43.2669315487" lon="-2.0803285204">
        <ele>95.31</ele>
        <time>2019-02-14T15:29:02Z</time>
      </trkpt>
      <trkpt lat="43.2671574410" lon="-2.0804658160">
        <ele>94.83</ele>
        <time>2019-02-14T15:29:13Z</time>
      </trkpt>
      <trkpt lat="43.2674940582" lon="-2.0805553347">
        <ele>100.60</ele>
        <time>2019-02-14T15:29:29Z</time>
      </trkpt>
      <trkpt lat="43.2676214632" lon="-2.0808518864">
        <ele>104.44</ele>
        <time>2019-02-14T15:29:43Z</time>
      </trkpt>
      <trkpt lat="43.2674935553" lon="-2.0812319219">
        <ele>106.84</ele>
        <time>2019-02-14T15:30:00Z</time>
      </trkpt>
      <trkpt lat="43.2674554177" lon="-2.0813686308">
        <ele>107.81</ele>
        <time>2019-02-14T15:30:06Z</time>
      </trkpt>
      <trkpt lat="43.2674540766" lon="-2.0813940279">
        <ele>107.81</ele>
        <time>2019-02-14T15:30:07Z</time>
      </trkpt>
      <trkpt lat="43.2674527355" lon="-2.0814195927">
        <ele>107.81</ele>
        <time>2019-02-14T15:30:08Z</time>
      </trkpt>
      <trkpt lat="43.2674486283" lon="-2.0814420562">
        <ele>107.81</ele>
        <time>2019-02-14T15:30:09Z</time>
      </trkpt>
      <trkpt lat="43.2674427610" lon="-2.0814650226">
        <ele>107.81</ele>
        <time>2019-02-14T15:30:10Z</time>
      </trkpt>
      <trkpt lat="43.2674120832" lon="-2.0815547928">
        <ele>108.29</ele>
        <time>2019-02-14T15:30:15Z</time>
      </trkpt>
      <trkpt lat="43.2673363108" lon="-2.0814018231">
        <ele>107.81</ele>
        <time>2019-02-14T15:30:25Z</time>
      </trkpt>
      <trkpt lat="43.2673900388" lon="-2.0810419880">
        <ele>111.17</ele>
        <time>2019-02-14T15:30:39Z</time>
      </trkpt>
      <trkpt lat="43.2671421859" lon="-2.0808784571">
        <ele>114.05</ele>
        <time>2019-02-14T15:30:51Z</time>
      </trkpt>
      <trkpt lat="43.2668572851" lon="-2.0808528922">
        <ele>116.94</ele>
        <time>2019-02-14T15:31:05Z</time>
      </trkpt>
      <trkpt lat="43.2665521000" lon="-2.0809548162">
        <ele>118.86</ele>
        <time>2019-02-14T15:31:19Z</time>
      </trkpt>
      <trkpt lat="43.2662820350" lon="-2.0809400640">
        <ele>120.78</ele>
        <time>2019-02-14T15:31:32Z</time>
      </trkpt>
      <trkpt lat="43.2662598230" lon="-2.0809445065">
        <ele>120.78</ele>
        <time>2019-02-14T15:31:33Z</time>
      </trkpt>
      <trkpt lat="43.2662350126" lon="-2.0809529722">
        <ele>121.26</ele>
        <time>2019-02-14T15:31:34Z</time>
      </trkpt>
      <trkpt lat="43.2662102859" lon="-2.0809618570">
        <ele>121.26</ele>
        <time>2019-02-14T15:31:35Z</time>
      </trkpt>
      <trkpt lat="43.2661894988" lon="-2.0809674729">
        <ele>121.26</ele>
        <time>2019-02-14T15:31:36Z</time>
      </trkpt>
      <trkpt lat="43.2658039313" lon="-2.0812517032">
        <ele>121.26</ele>
        <time>2019-02-14T15:31:51Z</time>
      </trkpt>
      <trkpt lat="43.2656679768" lon="-2.0816477481">
        <ele>121.74</ele>
        <time>2019-02-14T15:32:04Z</time>
      </trkpt>
      <trkpt lat="43.2654698286" lon="-2.0819565374">
        <ele>122.22</ele>
        <time>2019-02-14T15:32:16Z</time>
      </trkpt>
      <trkpt lat="43.2651804015" lon="-2.0821341500">
        <ele>124.15</ele>
        <time>2019-02-14T15:32:29Z</time>
      </trkpt>
      <trkpt lat="43.2647689339" lon="-2.0824761316">
        <ele>124.63</ele>
        <time>2019-02-14T15:32:45Z</time>
      </trkpt>
      <trkpt lat="43.2643350866" lon="-2.0825195499">
        <ele>127.03</ele>
        <time>2019-02-14T15:33:00Z</time>
      </trkpt>
      <trkpt lat="43.2640231960" lon="-2.0827599429">
        <ele>128.47</ele>
        <time>2019-02-14T15:33:11Z</time>
      </trkpt>
      <trkpt lat="43.2635201979" lon="-2.0831502043">
        <ele>130.40</ele>
        <time>2019-02-14T15:33:28Z</time>
      </trkpt>
      <trkpt lat="43.2631969918" lon="-2.0830534771">
        <ele>131.84</ele>
        <time>2019-02-14T15:33:40Z</time>
      </trkpt>
      <trkpt lat="43.2629031222" lon="-2.0828411635">
        <ele>137.61</ele>
        <time>2019-02-14T15:33:58Z</time>
      </trkpt>
      <trkpt lat="43.2626672555" lon="-2.0826447755">
        <ele>140.97</ele>
        <time>2019-02-14T15:34:15Z</time>
      </trkpt>
      <trkpt lat="43.2624147926" lon="-2.0825842582">
        <ele>144.82</ele>
        <time>2019-02-14T15:34:30Z</time>
      </trkpt>
      <trkpt lat="43.2621998806" lon="-2.0827160217">
        <ele>148.18</ele>
        <time>2019-02-14T15:34:45Z</time>
      </trkpt>
      <trkpt lat="43.2619856391" lon="-2.0828749426">
        <ele>150.58</ele>
        <time>2019-02-14T15:34:59Z</time>
      </trkpt>
      <trkpt lat="43.2617553044" lon="-2.0830853283">
        <ele>152.51</ele>
        <time>2019-02-14T15:35:14Z</time>
      </trkpt>
      <trkpt lat="43.2616467588" lon="-2.0835166611">
        <ele>153.47</ele>
        <time>2019-02-14T15:35:28Z</time>
      </trkpt>
      <trkpt lat="43.2613798790" lon="-2.0840041526">
        <ele>155.39</ele>
        <time>2019-02-14T15:35:46Z</time>
      </trkpt>
      <trkpt lat="43.2611218840" lon="-2.0844540093">
        <ele>158.27</ele>
        <time>2019-02-14T15:36:04Z</time>
      </trkpt>
      <trkpt lat="43.2608475443" lon="-2.0848148502">
        <ele>160.68</ele>
        <time>2019-02-14T15:36:20Z</time>
      </trkpt>
      <trkpt lat="43.2605122682" lon="-2.0851174369">
        <ele>163.56</ele>
        <time>2019-02-14T15:36:39Z</time>
      </trkpt>
      <trkpt lat="43.2604616415" lon="-2.0851134136">
        <ele>164.52</ele>
        <time>2019-02-14T15:36:42Z</time>
      </trkpt>
      <trkpt lat="43.2604489848" lon="-2.0851034392">
        <ele>164.52</ele>
        <time>2019-02-14T15:36:43Z</time>
      </trkpt>
      <trkpt lat="43.2604378369" lon="-2.0850884356">
        <ele>164.52</ele>
        <time>2019-02-14T15:36:44Z</time>
      </trkpt>
      <trkpt lat="43.2604277786" lon="-2.0850745216">
        <ele>165.00</ele>
        <time>2019-02-14T15:36:45Z</time>
      </trkpt>
      <trkpt lat="43.2604198158" lon="-2.0850590989">
        <ele>165.48</ele>
        <time>2019-02-14T15:36:46Z</time>
      </trkpt>
      <trkpt lat="43.2604145352" lon="-2.0850429218">
        <ele>165.96</ele>
        <time>2019-02-14T15:36:47Z</time>
      </trkpt>
      <trkpt lat="43.2604012080" lon="-2.0850198716">
        <ele>167.41</ele>
        <time>2019-02-14T15:36:56Z</time>
      </trkpt>
      <trkpt lat="43.2603878807" lon="-2.0850305166">
        <ele>165.96</ele>
        <time>2019-02-14T15:37:17Z</time>
      </trkpt>
      <trkpt lat="43.2603900600" lon="-2.0850471128">
        <ele>165.96</ele>
        <time>2019-02-14T15:37:43Z</time>
      </trkpt>
      <trkpt lat="43.2603980228" lon="-2.0850505494">
        <ele>165.48</ele>
        <time>2019-02-14T15:38:09Z</time>
      </trkpt>
      <trkpt lat="43.2604029682" lon="-2.0850244816">
        <ele>163.56</ele>
        <time>2019-02-14T15:38:39Z</time>
      </trkpt>
      <trkpt lat="43.2603991963" lon="-2.0850229729">
        <ele>164.04</ele>
        <time>2019-02-14T15:38:52Z</time>
      </trkpt>
      <trkpt lat="43.2603973523" lon="-2.0850249007">
        <ele>161.16</ele>
        <time>2019-02-14T15:39:16Z</time>
      </trkpt>
      <trkpt lat="43.2603881322" lon="-2.0850289240">
        <ele>165.00</ele>
        <time>2019-02-14T15:39:40Z</time>
      </trkpt>
      <trkpt lat="43.2603642438" lon="-2.0850250684">
        <ele>164.04</ele>
        <time>2019-02-14T15:40:00Z</time>
      </trkpt>
      <trkpt lat="43.2604002021" lon="-2.0850381441">
        <ele>164.52</ele>
        <time>2019-02-14T15:40:19Z</time>
      </trkpt>
      <trkpt lat="43.2604134455" lon="-2.0850072987">
        <ele>165.00</ele>
        <time>2019-02-14T15:40:25Z</time>
      </trkpt>
      <trkpt lat="43.2606382482" lon="-2.0846751239">
        <ele>167.41</ele>
        <time>2019-02-14T15:40:41Z</time>
      </trkpt>
      <trkpt lat="43.2609442715" lon="-2.0839944296">
        <ele>169.81</ele>
        <time>2019-02-14T15:41:02Z</time>
      </trkpt>
      <trkpt lat="43.2610410824" lon="-2.0834126417">
        <ele>174.14</ele>
        <time>2019-02-14T15:41:21Z</time>
      </trkpt>
      <trkpt lat="43.2610769570" lon="-2.0830494538">
        <ele>179.42</ele>
        <time>2019-02-14T15:41:37Z</time>
      </trkpt>
      <trkpt lat="43.2611354627" lon="-2.0826278441">
        <ele>184.71</ele>
        <time>2019-02-14T15:41:56Z</time>
      </trkpt>
      <trkpt lat="43.2611854188" lon="-2.0822574478">
        <ele>190.00</ele>
        <time>2019-02-14T15:42:14Z</time>
      </trkpt>
      <trkpt lat="43.2612046134" lon="-2.0821407717">
        <ele>191.92</ele>
        <time>2019-02-14T15:42:20Z</time>
      </trkpt>
      <trkpt lat="43.2612016797" lon="-2.0821232535">
        <ele>192.40</ele>
        <time>2019-02-14T15:42:21Z</time>
      </trkpt>
      <trkpt lat="43.2611998357" lon="-2.0821042266">
        <ele>192.40</ele>
        <time>2019-02-14T15:42:22Z</time>
      </trkpt>
      <trkpt lat="43.2612000871" lon="-2.0820843615">
        <ele>192.88</ele>
        <time>2019-02-14T15:42:23Z</time>
      </trkpt>
      <trkpt lat="43.2612008415" lon="-2.0820644964">
        <ele>193.36</ele>
        <time>2019-02-14T15:42:24Z</time>
      </trkpt>
      <trkpt lat="43.2612046972" lon="-2.0820453018">
        <ele>193.36</ele>
        <time>2019-02-14T15:42:25Z</time>
      </trkpt>
      <trkpt lat="43.2612124085" lon="-2.0820266102">
        <ele>193.84</ele>
        <time>2019-02-14T15:42:26Z</time>
      </trkpt>
      <trkpt lat="43.2612186112" lon="-2.0820053201">
        <ele>193.84</ele>
        <time>2019-02-14T15:42:27Z</time>
      </trkpt>
      <trkpt lat="43.2612225506" lon="-2.0819832757">
        <ele>194.32</ele>
        <time>2019-02-14T15:42:28Z</time>
      </trkpt>
      <trkpt lat="43.2612238917" lon="-2.0819609798">
        <ele>194.32</ele>
        <time>2019-02-14T15:42:29Z</time>
      </trkpt>
      <trkpt lat="43.2612220477" lon="-2.0819420367">
        <ele>194.80</ele>
        <time>2019-02-14T15:42:30Z</time>
      </trkpt>
      <trkpt lat="43.2612209581" lon="-2.0819239318">
        <ele>194.80</ele>
        <time>2019-02-14T15:42:31Z</time>
      </trkpt>
      <trkpt lat="43.2612256519" lon="-2.0819034800">
        <ele>194.80</ele>
        <time>2019-02-14T15:42:32Z</time>
      </trkpt>
      <trkpt lat="43.2612703275" lon="-2.0815278869">
        <ele>198.65</ele>
        <time>2019-02-14T15:42:51Z</time>
      </trkpt>
      <trkpt lat="43.2612818945" lon="-2.0811072830">
        <ele>203.46</ele>
        <time>2019-02-14T15:43:10Z</time>
      </trkpt>
      <trkpt lat="43.2613175176" lon="-2.0806130022">
        <ele>207.78</ele>
        <time>2019-02-14T15:43:29Z</time>
      </trkpt>
      <trkpt lat="43.2613287494" lon="-2.0802089944">
        <ele>208.74</ele>
        <time>2019-02-14T15:43:44Z</time>
      </trkpt>
      <trkpt lat="43.2613888476" lon="-2.0797901507">
        <ele>209.22</ele>
        <time>2019-02-14T15:43:59Z</time>
      </trkpt>
      <trkpt lat="43.2613410708" lon="-2.0791895036">
        <ele>211.63</ele>
        <time>2019-02-14T15:44:19Z</time>
      </trkpt>
      <trkpt lat="43.2610545773" lon="-2.0790449157">
        <ele>215.47</ele>
        <time>2019-02-14T15:44:35Z</time>
      </trkpt>
      <trkpt lat="43.2607441116" lon="-2.0790617634">
        <ele>222.20</ele>
        <time>2019-02-14T15:44:54Z</time>
      </trkpt>
      <trkpt lat="43.2605127711" lon="-2.0790826343">
        <ele>227.49</ele>
        <time>2019-02-14T15:45:08Z</time>
      </trkpt>
      <trkpt lat="43.2602660917" lon="-2.0791247953">
        <ele>234.22</ele>
        <time>2019-02-14T15:45:26Z</time>
      </trkpt>
      <trkpt lat="43.2600111980" lon="-2.0792399626">
        <ele>241.43</ele>
        <time>2019-02-14T15:45:46Z</time>
      </trkpt>
      <trkpt lat="43.2598193362" lon="-2.0794490911">
        <ele>243.83</ele>
        <time>2019-02-14T15:46:02Z</time>
      </trkpt>
      <trkpt lat="43.2596078608" lon="-2.0796951838">
        <ele>245.75</ele>
        <time>2019-02-14T15:46:19Z</time>
      </trkpt>
      <trkpt lat="43.2593824714" lon="-2.0798412804">
        <ele>248.16</ele>
        <time>2019-02-14T15:46:35Z</time>
      </trkpt>
      <trkpt lat="43.2591810543" lon="-2.0799462218">
        <ele>253.44</ele>
        <time>2019-02-14T15:46:50Z</time>
      </trkpt>
      <trkpt lat="43.2589867618" lon="-2.0800551865">
        <ele>260.17</ele>
        <time>2019-02-14T15:47:05Z</time>
      </trkpt>
      <trkpt lat="43.2589523960" lon="-2.0800784044">
        <ele>261.62</ele>
        <time>2019-02-14T15:47:08Z</time>
      </trkpt>
      <trkpt lat="43.2589404937" lon="-2.0800846908">
        <ele>262.10</ele>
        <time>2019-02-14T15:47:09Z</time>
      </trkpt>
      <trkpt lat="43.2589287590" lon="-2.0800939947">
        <ele>262.58</ele>
        <time>2019-02-14T15:47:10Z</time>
      </trkpt>
      <trkpt lat="43.2587353047" lon="-2.0802390855">
        <ele>267.38</ele>
        <time>2019-02-14T15:47:25Z</time>
      </trkpt>
      <trkpt lat="43.2585524116" lon="-2.0804238226">
        <ele>270.75</ele>
        <time>2019-02-14T15:47:41Z</time>
      </trkpt>
      <trkpt lat="43.2583286148" lon="-2.0806549117">
        <ele>268.83</ele>
        <time>2019-02-14T15:47:58Z</time>
      </trkpt>
      <trkpt lat="43.2580529340" lon="-2.0808332786">
        <ele>269.79</ele>
        <time>2019-02-14T15:48:15Z</time>
      </trkpt>
      <trkpt lat="43.2577873114" lon="-2.0809616894">
        <ele>272.67</ele>
        <time>2019-02-14T15:48:32Z</time>
      </trkpt>
      <trkpt lat="43.2575012371" lon="-2.0809385553">
        <ele>272.67</ele>
        <time>2019-02-14T15:48:50Z</time>
      </trkpt>
      <trkpt lat="43.2574713137" lon="-2.0809075423">
        <ele>272.67</ele>
        <time>2019-02-14T15:48:52Z</time>
      </trkpt>
      <trkpt lat="43.2574644405" lon="-2.0808886830">
        <ele>272.67</ele>
        <time>2019-02-14T15:48:53Z</time>
      </trkpt>
      <trkpt lat="43.2574627642" lon="-2.0808690693">
        <ele>272.67</ele>
        <time>2019-02-14T15:48:54Z</time>
      </trkpt>
      <trkpt lat="43.2574646082" lon="-2.0808524732">
        <ele>272.67</ele>
        <time>2019-02-14T15:48:55Z</time>
      </trkpt>
      <trkpt lat="43.2574696373" lon="-2.0808357093">
        <ele>273.15</ele>
        <time>2019-02-14T15:48:56Z</time>
      </trkpt>
      <trkpt lat="43.2575802784" lon="-2.0806749444">
        <ele>275.56</ele>
        <time>2019-02-14T15:49:11Z</time>
      </trkpt>
      <trkpt lat="43.2576999720" lon="-2.0803829189">
        <ele>276.04</ele>
        <time>2019-02-14T15:49:27Z</time>
      </trkpt>
      <trkpt lat="43.2578091882" lon="-2.0800568629">
        <ele>274.59</ele>
        <time>2019-02-14T15:49:41Z</time>
      </trkpt>
      <trkpt lat="43.2578466553" lon="-2.0797582157">
        <ele>276.04</ele>
        <time>2019-02-14T15:49:58Z</time>
      </trkpt>
      <trkpt lat="43.2579075918" lon="-2.0794859715">
        <ele>277.96</ele>
        <time>2019-02-14T15:50:15Z</time>
      </trkpt>
      <trkpt lat="43.2580489945" lon="-2.0791492704">
        <ele>283.25</ele>
        <time>2019-02-14T15:50:30Z</time>
      </trkpt>
      <trkpt lat="43.2580567896" lon="-2.0791307464">
        <ele>283.73</ele>
        <time>2019-02-14T15:50:31Z</time>
      </trkpt>
      <trkpt lat="43.2580669317" lon="-2.0791090373">
        <ele>283.73</ele>
        <time>2019-02-14T15:50:32Z</time>
      </trkpt>
      <trkpt lat="43.2580756489" lon="-2.0790814608">
        <ele>283.73</ele>
        <time>2019-02-14T15:50:33Z</time>
      </trkpt>
      <trkpt lat="43.2580845337" lon="-2.0790605899">
        <ele>284.21</ele>
        <time>2019-02-14T15:50:34Z</time>
      </trkpt>
      <trkpt lat="43.2580936700" lon="-2.0790405571">
        <ele>284.21</ele>
        <time>2019-02-14T15:50:35Z</time>
      </trkpt>
      <trkpt lat="43.2581010461" lon="-2.0790196024">
        <ele>284.21</ele>
        <time>2019-02-14T15:50:36Z</time>
      </trkpt>
      <trkpt lat="43.2581072487" lon="-2.0789973065">
        <ele>284.21</ele>
        <time>2019-02-14T15:50:37Z</time>
      </trkpt>
      <trkpt lat="43.2581631560" lon="-2.0785731822">
        <ele>285.65</ele>
        <time>2019-02-14T15:50:55Z</time>
      </trkpt>
      <trkpt lat="43.2581456378" lon="-2.0781654865">
        <ele>290.94</ele>
        <time>2019-02-14T15:51:11Z</time>
      </trkpt>
      <trkpt lat="43.2580433786" lon="-2.0778019633">
        <ele>297.18</ele>
        <time>2019-02-14T15:51:28Z</time>
      </trkpt>
      <trkpt lat="43.2580174785" lon="-2.0777567010">
        <ele>298.15</ele>
        <time>2019-02-14T15:51:31Z</time>
      </trkpt>
      <trkpt lat="43.2580075040" lon="-2.0777442120">
        <ele>298.63</ele>
        <time>2019-02-14T15:51:32Z</time>
      </trkpt>
      <trkpt lat="43.2579971105" lon="-2.0777369197">
        <ele>298.63</ele>
        <time>2019-02-14T15:51:33Z</time>
      </trkpt>
      <trkpt lat="43.2579865493" lon="-2.0777336508">
        <ele>298.63</ele>
        <time>2019-02-14T15:51:34Z</time>
      </trkpt>
      <trkpt lat="43.2579749823" lon="-2.0777308010">
        <ele>299.11</ele>
        <time>2019-02-14T15:51:35Z</time>
      </trkpt>
      <trkpt lat="43.2578850444" lon="-2.0779166277">
        <ele>303.91</ele>
        <time>2019-02-14T15:51:49Z</time>
      </trkpt>
      <trkpt lat="43.2578077633" lon="-2.0782295242">
        <ele>309.68</ele>
        <time>2019-02-14T15:52:05Z</time>
      </trkpt>
      <trkpt lat="43.2577644289" lon="-2.0782976691">
        <ele>311.12</ele>
        <time>2019-02-14T15:52:09Z</time>
      </trkpt>
      <trkpt lat="43.2577511854" lon="-2.0783163607">
        <ele>311.60</ele>
        <time>2019-02-14T15:52:10Z</time>
      </trkpt>
      <trkpt lat="43.2575425599" lon="-2.0786714181">
        <ele>314.97</ele>
        <time>2019-02-14T15:52:24Z</time>
      </trkpt>
      <trkpt lat="43.2573843095" lon="-2.0789824706">
        <ele>314.97</ele>
        <time>2019-02-14T15:52:37Z</time>
      </trkpt>
      <trkpt lat="43.2571730856" lon="-2.0792851411">
        <ele>316.41</ele>
        <time>2019-02-14T15:52:49Z</time>
      </trkpt>
      <trkpt lat="43.2570470218" lon="-2.0794800203">
        <ele>319.30</ele>
        <time>2019-02-14T15:52:59Z</time>
      </trkpt>
      <trkpt lat="43.2570363767" lon="-2.0795029867">
        <ele>319.78</ele>
        <time>2019-02-14T15:53:00Z</time>
      </trkpt>
      <trkpt lat="43.2568014320" lon="-2.0797437988">
        <ele>321.70</ele>
        <time>2019-02-14T15:53:15Z</time>
      </trkpt>
      <trkpt lat="43.2565253321" lon="-2.0799735468">
        <ele>323.14</ele>
        <time>2019-02-14T15:53:30Z</time>
      </trkpt>
      <trkpt lat="43.2564787287" lon="-2.0800028834">
        <ele>323.62</ele>
        <time>2019-02-14T15:53:33Z</time>
      </trkpt>
      <trkpt lat="43.2562374976" lon="-2.0801521651">
        <ele>327.95</ele>
        <time>2019-02-14T15:53:47Z</time>
      </trkpt>
      <trkpt lat="43.2560523413" lon="-2.0802809950">
        <ele>331.79</ele>
        <time>2019-02-14T15:53:59Z</time>
      </trkpt>
      <trkpt lat="43.2558890618" lon="-2.0804804843">
        <ele>334.68</ele>
        <time>2019-02-14T15:54:13Z</time>
      </trkpt>
      <trkpt lat="43.2556741498" lon="-2.0807170216">
        <ele>336.60</ele>
        <time>2019-02-14T15:54:24Z</time>
      </trkpt>
      <trkpt lat="43.2554874849" lon="-2.0810369588">
        <ele>335.16</ele>
        <time>2019-02-14T15:54:40Z</time>
      </trkpt>
      <trkpt lat="43.2552563120" lon="-2.0813687984">
        <ele>336.12</ele>
        <time>2019-02-14T15:54:55Z</time>
      </trkpt>
      <trkpt lat="43.2550645340" lon="-2.0815670304">
        <ele>338.04</ele>
        <time>2019-02-14T15:55:07Z</time>
      </trkpt>
      <trkpt lat="43.2549834810" lon="-2.0816519391">
        <ele>339.48</ele>
        <time>2019-02-14T15:55:13Z</time>
      </trkpt>
      <trkpt lat="43.2549741771" lon="-2.0816722233">
        <ele>339.48</ele>
        <time>2019-02-14T15:55:14Z</time>
      </trkpt>
      <trkpt lat="43.2548984885" lon="-2.0820815116">
        <ele>344.29</ele>
        <time>2019-02-14T15:55:29Z</time>
      </trkpt>
      <trkpt lat="43.2546659745" lon="-2.0824807417">
        <ele>345.25</ele>
        <time>2019-02-14T15:55:44Z</time>
      </trkpt>
      <trkpt lat="43.2544667367" lon="-2.0827863459">
        <ele>345.73</ele>
        <time>2019-02-14T15:55:57Z</time>
      </trkpt>
      <trkpt lat="43.2542048022" lon="-2.0832146611">
        <ele>345.25</ele>
        <time>2019-02-14T15:56:14Z</time>
      </trkpt>
      <trkpt lat="43.2538369205" lon="-2.0833029225">
        <ele>346.69</ele>
        <time>2019-02-14T15:56:28Z</time>
      </trkpt>
      <trkpt lat="43.2533802744" lon="-2.0831666328">
        <ele>346.69</ele>
        <time>2019-02-14T15:56:43Z</time>
      </trkpt>
      <trkpt lat="43.2529952098" lon="-2.0832922775">
        <ele>349.10</ele>
        <time>2019-02-14T15:56:57Z</time>
      </trkpt>
      <trkpt lat="43.2526647113" lon="-2.0833525434">
        <ele>350.54</ele>
        <time>2019-02-14T15:57:08Z</time>
      </trkpt>
      <trkpt lat="43.2526233885" lon="-2.0833288226">
        <ele>350.54</ele>
        <time>2019-02-14T15:57:09Z</time>
      </trkpt>
      <trkpt lat="43.2525822334" lon="-2.0832989831">
        <ele>350.06</ele>
        <time>2019-02-14T15:57:10Z</time>
      </trkpt>
      <trkpt lat="43.2519905549" lon="-2.0827184524">
        <ele>344.77</ele>
        <time>2019-02-14T15:57:24Z</time>
      </trkpt>
      <trkpt lat="43.2519007009" lon="-2.0826279279">
        <ele>344.29</ele>
        <time>2019-02-14T15:57:26Z</time>
      </trkpt>
      <trkpt lat="43.2518565282" lon="-2.0826073084">
        <ele>343.81</ele>
        <time>2019-02-14T15:57:27Z</time>
      </trkpt>
      <trkpt lat="43.2518088352" lon="-2.0826081466">
        <ele>343.33</ele>
        <time>2019-02-14T15:57:28Z</time>
      </trkpt>
      <trkpt lat="43.2517593820" lon="-2.0826203004">
        <ele>343.33</ele>
        <time>2019-02-14T15:57:29Z</time>
      </trkpt>
      <trkpt lat="43.2517101802" lon="-2.0826360583">
        <ele>342.85</ele>
        <time>2019-02-14T15:57:30Z</time>
      </trkpt>
      <trkpt lat="43.2515157200" lon="-2.0826931391">
        <ele>341.89</ele>
        <time>2019-02-14T15:57:34Z</time>
      </trkpt>
      <trkpt lat="43.2514742296" lon="-2.0827153511">
        <ele>341.89</ele>
        <time>2019-02-14T15:57:35Z</time>
      </trkpt>
      <trkpt lat="43.2514373492" lon="-2.0827493817">
        <ele>341.41</ele>
        <time>2019-02-14T15:57:36Z</time>
      </trkpt>
      <trkpt lat="43.2514069229" lon="-2.0827904530">
        <ele>341.41</ele>
        <time>2019-02-14T15:57:37Z</time>
      </trkpt>
      <trkpt lat="43.2513827831" lon="-2.0828380622">
        <ele>340.92</ele>
        <time>2019-02-14T15:57:38Z</time>
      </trkpt>
      <trkpt lat="43.2513656002" lon="-2.0828829892">
        <ele>340.92</ele>
        <time>2019-02-14T15:57:39Z</time>
      </trkpt>
      <trkpt lat="43.2511878200" lon="-2.0832567383">
        <ele>341.89</ele>
        <time>2019-02-14T15:57:50Z</time>
      </trkpt>
      <trkpt lat="43.2507896796" lon="-2.0833901782">
        <ele>346.21</ele>
        <time>2019-02-14T15:58:04Z</time>
      </trkpt>
      <trkpt lat="43.2503948081" lon="-2.0835138112">
        <ele>350.06</ele>
        <time>2019-02-14T15:58:17Z</time>
      </trkpt>
      <trkpt lat="43.2501039561" lon="-2.0835782681">
        <ele>349.58</ele>
        <time>2019-02-14T15:58:24Z</time>
      </trkpt>
      <trkpt lat="43.2500491384" lon="-2.0835754182">
        <ele>349.58</ele>
        <time>2019-02-14T15:58:25Z</time>
      </trkpt>
      <trkpt lat="43.2499922253" lon="-2.0835634321">
        <ele>349.58</ele>
        <time>2019-02-14T15:58:26Z</time>
      </trkpt>
      <trkpt lat="43.2499345578" lon="-2.0835439023">
        <ele>349.10</ele>
        <time>2019-02-14T15:58:27Z</time>
      </trkpt>
      <trkpt lat="43.2498767227" lon="-2.0835185889">
        <ele>349.10</ele>
        <time>2019-02-14T15:58:28Z</time>
      </trkpt>
      <trkpt lat="43.2496002037" lon="-2.0834162459">
        <ele>348.13</ele>
        <time>2019-02-14T15:58:33Z</time>
      </trkpt>
      <trkpt lat="43.2495525945" lon="-2.0834192634">
        <ele>347.65</ele>
        <time>2019-02-14T15:58:34Z</time>
      </trkpt>
      <trkpt lat="43.2495111879" lon="-2.0834391285">
        <ele>347.65</ele>
        <time>2019-02-14T15:58:35Z</time>
      </trkpt>
      <trkpt lat="43.2494763192" lon="-2.0834686328">
        <ele>347.65</ele>
        <time>2019-02-14T15:58:36Z</time>
      </trkpt>
      <trkpt lat="43.2494460605" lon="-2.0835018251">
        <ele>347.65</ele>
        <time>2019-02-14T15:58:37Z</time>
      </trkpt>
      <trkpt lat="43.2494199928" lon="-2.0835377835">
        <ele>347.65</ele>
        <time>2019-02-14T15:58:38Z</time>
      </trkpt>
      <trkpt lat="43.2493958529" lon="-2.0835734904">
        <ele>347.65</ele>
        <time>2019-02-14T15:58:39Z</time>
      </trkpt>
      <trkpt lat="43.2492417935" lon="-2.0838035736">
        <ele>348.62</ele>
        <time>2019-02-14T15:58:50Z</time>
      </trkpt>
      <trkpt lat="43.2490682881" lon="-2.0841774903">
        <ele>351.50</ele>
        <time>2019-02-14T15:59:06Z</time>
      </trkpt>
      <trkpt lat="43.2489758357" lon="-2.0845814981">
        <ele>355.83</ele>
        <time>2019-02-14T15:59:21Z</time>
      </trkpt>
      <trkpt lat="43.2486811280" lon="-2.0847243257">
        <ele>357.75</ele>
        <time>2019-02-14T15:59:35Z</time>
      </trkpt>
      <trkpt lat="43.2483277470" lon="-2.0847774670">
        <ele>360.63</ele>
        <time>2019-02-14T15:59:50Z</time>
      </trkpt>
      <trkpt lat="43.2479918003" lon="-2.0847144350">
        <ele>360.15</ele>
        <time>2019-02-14T16:00:03Z</time>
      </trkpt>
      <trkpt lat="43.2477215677" lon="-2.0845467970">
        <ele>362.07</ele>
        <time>2019-02-14T16:00:15Z</time>
      </trkpt>
      <trkpt lat="43.2474601362" lon="-2.0843225811">
        <ele>364.48</ele>
        <time>2019-02-14T16:00:27Z</time>
      </trkpt>
      <trkpt lat="43.2472191565" lon="-2.0840593893">
        <ele>365.92</ele>
        <time>2019-02-14T16:00:40Z</time>
      </trkpt>
      <trkpt lat="43.2471426297" lon="-2.0839858800">
        <ele>367.84</ele>
        <time>2019-02-14T16:00:44Z</time>
      </trkpt>
      <trkpt lat="43.2468891609" lon="-2.0840270352">
        <ele>374.57</ele>
        <time>2019-02-14T16:00:56Z</time>
      </trkpt>
      <trkpt lat="43.2465217821" lon="-2.0841547754">
        <ele>380.34</ele>
        <time>2019-02-14T16:01:10Z</time>
      </trkpt>
      <trkpt lat="43.2460295968" lon="-2.0841655042">
        <ele>383.22</ele>
        <time>2019-02-14T16:01:26Z</time>
      </trkpt>
      <trkpt lat="43.2455811650" lon="-2.0837498456">
        <ele>385.15</ele>
        <time>2019-02-14T16:01:41Z</time>
      </trkpt>
      <trkpt lat="43.2453135308" lon="-2.0832899306">
        <ele>385.63</ele>
        <time>2019-02-14T16:01:55Z</time>
      </trkpt>
      <trkpt lat="43.2452277001" lon="-2.0832723286">
        <ele>386.11</ele>
        <time>2019-02-14T16:01:58Z</time>
      </trkpt>
      <trkpt lat="43.2452038955" lon="-2.0832797885">
        <ele>386.11</ele>
        <time>2019-02-14T16:01:59Z</time>
      </trkpt>
      <trkpt lat="43.2448670268" lon="-2.0831940416">
        <ele>387.55</ele>
        <time>2019-02-14T16:02:12Z</time>
      </trkpt>
      <trkpt lat="43.2446124684" lon="-2.0828538202">
        <ele>389.47</ele>
        <time>2019-02-14T16:02:26Z</time>
      </trkpt>
      <trkpt lat="43.2444583252" lon="-2.0824151952">
        <ele>390.43</ele>
        <time>2019-02-14T16:02:41Z</time>
      </trkpt>
      <trkpt lat="43.2442057785" lon="-2.0822437853">
        <ele>391.87</ele>
        <time>2019-02-14T16:02:54Z</time>
      </trkpt>
      <trkpt lat="43.2439759467" lon="-2.0819342416">
        <ele>391.39</ele>
        <time>2019-02-14T16:03:11Z</time>
      </trkpt>
      <trkpt lat="43.2438702509" lon="-2.0815568883">
        <ele>390.91</ele>
        <time>2019-02-14T16:03:24Z</time>
      </trkpt>
      <trkpt lat="43.2436058857" lon="-2.0814972930">
        <ele>393.80</ele>
        <time>2019-02-14T16:03:37Z</time>
      </trkpt>
      <trkpt lat="43.2434317935" lon="-2.0813734923">
        <ele>396.20</ele>
        <time>2019-02-14T16:03:45Z</time>
      </trkpt>
      <trkpt lat="43.2434241660" lon="-2.0813337620">
        <ele>396.20</ele>
        <time>2019-02-14T16:03:46Z</time>
      </trkpt>
      <trkpt lat="43.2434167061" lon="-2.0813022461">
        <ele>396.68</ele>
        <time>2019-02-14T16:03:47Z</time>
      </trkpt>
      <trkpt lat="43.2434129342" lon="-2.0812665392">
        <ele>396.68</ele>
        <time>2019-02-14T16:03:48Z</time>
      </trkpt>
      <trkpt lat="43.2434112579" lon="-2.0812303293">
        <ele>397.16</ele>
        <time>2019-02-14T16:03:49Z</time>
      </trkpt>
      <trkpt lat="43.2434136048" lon="-2.0811975561">
        <ele>397.16</ele>
        <time>2019-02-14T16:03:50Z</time>
      </trkpt>
      <trkpt lat="43.2434238307" lon="-2.0811610948">
        <ele>397.64</ele>
        <time>2019-02-14T16:03:51Z</time>
      </trkpt>
      <trkpt lat="43.2434359845" lon="-2.0811286569">
        <ele>397.64</ele>
        <time>2019-02-14T16:03:52Z</time>
      </trkpt>
      <trkpt lat="43.2434438635" lon="-2.0810972247">
        <ele>398.12</ele>
        <time>2019-02-14T16:03:53Z</time>
      </trkpt>
      <trkpt lat="43.2434511557" lon="-2.0810681395">
        <ele>398.12</ele>
        <time>2019-02-14T16:03:54Z</time>
      </trkpt>
      <trkpt lat="43.2434616331" lon="-2.0810390543">
        <ele>398.60</ele>
        <time>2019-02-14T16:03:55Z</time>
      </trkpt>
      <trkpt lat="43.2435321249" lon="-2.0807242300">
        <ele>401.97</ele>
        <time>2019-02-14T16:04:07Z</time>
      </trkpt>
      <trkpt lat="43.2435344718" lon="-2.0806990005">
        <ele>401.97</ele>
        <time>2019-02-14T16:04:08Z</time>
      </trkpt>
      <trkpt lat="43.2435379084" lon="-2.0806756150">
        <ele>402.45</ele>
        <time>2019-02-14T16:04:09Z</time>
      </trkpt>
      <trkpt lat="43.2435410097" lon="-2.0806543250">
        <ele>402.45</ele>
        <time>2019-02-14T16:04:10Z</time>
      </trkpt>
      <trkpt lat="43.2435452007" lon="-2.0806320291">
        <ele>402.93</ele>
        <time>2019-02-14T16:04:11Z</time>
      </trkpt>
      <trkpt lat="43.2435511518" lon="-2.0806081407">
        <ele>402.93</ele>
        <time>2019-02-14T16:04:12Z</time>
      </trkpt>
      <trkpt lat="43.2435566001" lon="-2.0805832464">
        <ele>403.41</ele>
        <time>2019-02-14T16:04:13Z</time>
      </trkpt>
      <trkpt lat="43.2436508965" lon="-2.0802543405">
        <ele>403.89</ele>
        <time>2019-02-14T16:04:27Z</time>
      </trkpt>
      <trkpt lat="43.2437207177" lon="-2.0799413603">
        <ele>402.93</ele>
        <time>2019-02-14T16:04:40Z</time>
      </trkpt>
      <trkpt lat="43.2436284330" lon="-2.0796831977">
        <ele>406.29</ele>
        <time>2019-02-14T16:04:54Z</time>
      </trkpt>
      <trkpt lat="43.2435056381" lon="-2.0794428885">
        <ele>409.18</ele>
        <time>2019-02-14T16:05:05Z</time>
      </trkpt>
      <trkpt lat="43.2435825840" lon="-2.0790703129">
        <ele>410.62</ele>
        <time>2019-02-14T16:05:20Z</time>
      </trkpt>
      <trkpt lat="43.2435320411" lon="-2.0787640382">
        <ele>412.06</ele>
        <time>2019-02-14T16:05:33Z</time>
      </trkpt>
      <trkpt lat="43.2433409337" lon="-2.0786131639">
        <ele>415.43</ele>
        <time>2019-02-14T16:05:47Z</time>
      </trkpt>
      <trkpt lat="43.2432312984" lon="-2.0784359705">
        <ele>419.27</ele>
        <time>2019-02-14T16:05:58Z</time>
      </trkpt>
      <trkpt lat="43.2432331424" lon="-2.0782659855">
        <ele>420.71</ele>
        <time>2019-02-14T16:06:04Z</time>
      </trkpt>
      <trkpt lat="43.2431603875" lon="-2.0779433660">
        <ele>424.56</ele>
        <time>2019-02-14T16:06:17Z</time>
      </trkpt>
      <trkpt lat="43.2429966889" lon="-2.0775593910">
        <ele>429.37</ele>
        <time>2019-02-14T16:06:35Z</time>
      </trkpt>
      <trkpt lat="43.2428316493" lon="-2.0772687905">
        <ele>432.73</ele>
        <time>2019-02-14T16:06:50Z</time>
      </trkpt>
      <trkpt lat="43.2426406257" lon="-2.0773404557">
        <ele>433.69</ele>
        <time>2019-02-14T16:07:03Z</time>
      </trkpt>
      <trkpt lat="43.2423607539" lon="-2.0774011407">
        <ele>437.06</ele>
        <time>2019-02-14T16:07:18Z</time>
      </trkpt>
      <trkpt lat="43.2422456704" lon="-2.0773454010">
        <ele>439.94</ele>
        <time>2019-02-14T16:07:25Z</time>
      </trkpt>
      <trkpt lat="43.2422211953" lon="-2.0773397852">
        <ele>440.42</ele>
        <time>2019-02-14T16:07:26Z</time>
      </trkpt>
      <trkpt lat="43.2421988994" lon="-2.0773368515">
        <ele>440.90</ele>
        <time>2019-02-14T16:07:27Z</time>
      </trkpt>
      <trkpt lat="43.2421785314" lon="-2.0773327444">
        <ele>441.38</ele>
        <time>2019-02-14T16:07:28Z</time>
      </trkpt>
      <trkpt lat="43.2421592530" lon="-2.0773298945">
        <ele>441.38</ele>
        <time>2019-02-14T16:07:29Z</time>
      </trkpt>
      <trkpt lat="43.2417918742" lon="-2.0772650186">
        <ele>444.75</ele>
        <time>2019-02-14T16:07:47Z</time>
      </trkpt>
      <trkpt lat="43.2416637987" lon="-2.0771097019">
        <ele>448.11</ele>
        <time>2019-02-14T16:07:59Z</time>
      </trkpt>
      <trkpt lat="43.2415162772" lon="-2.0771519467">
        <ele>447.15</ele>
        <time>2019-02-14T16:08:11Z</time>
      </trkpt>
      <trkpt lat="43.2414926402" lon="-2.0771492645">
        <ele>441.86</ele>
        <time>2019-02-14T16:08:27Z</time>
      </trkpt>
      <trkpt lat="43.2414766308" lon="-2.0771731529">
        <ele>438.50</ele>
        <time>2019-02-14T16:08:47Z</time>
      </trkpt>
      <trkpt lat="43.2414539997" lon="-2.0771754161">
        <ele>438.98</ele>
        <time>2019-02-14T16:09:22Z</time>
      </trkpt>
      <trkpt lat="43.2414686680" lon="-2.0771299861">
        <ele>436.58</ele>
        <time>2019-02-14T16:09:35Z</time>
      </trkpt>
      <trkpt lat="43.2414653152" lon="-2.0771231130">
        <ele>435.13</ele>
        <time>2019-02-14T16:09:55Z</time>
      </trkpt>
      <trkpt lat="43.2414829172" lon="-2.0771682076">
        <ele>435.13</ele>
        <time>2019-02-14T16:10:17Z</time>
      </trkpt>
      <trkpt lat="43.2415012736" lon="-2.0771390386">
        <ele>438.02</ele>
        <time>2019-02-14T16:11:01Z</time>
      </trkpt>
      <trkpt lat="43.2414662372" lon="-2.0771562215">
        <ele>438.02</ele>
        <time>2019-02-14T16:11:17Z</time>
      </trkpt>
      <trkpt lat="43.2414652314" lon="-2.0771645196">
        <ele>438.02</ele>
        <time>2019-02-14T16:11:19Z</time>
      </trkpt>
      <trkpt lat="43.2414317038" lon="-2.0772076026">
        <ele>437.06</ele>
        <time>2019-02-14T16:11:22Z</time>
      </trkpt>
      <trkpt lat="43.2411674224" lon="-2.0775795914">
        <ele>434.17</ele>
        <time>2019-02-14T16:11:34Z</time>
      </trkpt>
      <trkpt lat="43.2409061585" lon="-2.0779569447">
        <ele>434.65</ele>
        <time>2019-02-14T16:11:47Z</time>
      </trkpt>
      <trkpt lat="43.2406515162" lon="-2.0781757962">
        <ele>439.94</ele>
        <time>2019-02-14T16:12:00Z</time>
      </trkpt>
      <trkpt lat="43.2402364444" lon="-2.0783904567">
        <ele>441.38</ele>
        <time>2019-02-14T16:12:16Z</time>
      </trkpt>
      <trkpt lat="43.2398696523" lon="-2.0785233937">
        <ele>439.46</ele>
        <time>2019-02-14T16:12:24Z</time>
      </trkpt>
      <trkpt lat="43.2398249768" lon="-2.0785542391">
        <ele>439.46</ele>
        <time>2019-02-14T16:12:25Z</time>
      </trkpt>
      <trkpt lat="43.2397829834" lon="-2.0785936341">
        <ele>439.46</ele>
        <time>2019-02-14T16:12:26Z</time>
      </trkpt>
      <trkpt lat="43.2397317700" lon="-2.0786558278">
        <ele>438.98</ele>
        <time>2019-02-14T16:12:27Z</time>
      </trkpt>
      <trkpt lat="43.2397128269" lon="-2.0786862541">
        <ele>438.98</ele>
        <time>2019-02-14T16:12:28Z</time>
      </trkpt>
      <trkpt lat="43.2396852504" lon="-2.0787385572">
        <ele>438.98</ele>
        <time>2019-02-14T16:12:29Z</time>
      </trkpt>
      <trkpt lat="43.2396622002" lon="-2.0787985716">
        <ele>438.98</ele>
        <time>2019-02-14T16:12:30Z</time>
      </trkpt>
      <trkpt lat="43.2396404073" lon="-2.0788748469">
        <ele>438.98</ele>
        <time>2019-02-14T16:12:31Z</time>
      </trkpt>
      <trkpt lat="43.2396153454" lon="-2.0789668802">
        <ele>438.98</ele>
        <time>2019-02-14T16:12:33Z</time>
      </trkpt>
      <trkpt lat="43.2395992521" lon="-2.0790227037">
        <ele>439.46</ele>
        <time>2019-02-14T16:12:34Z</time>
      </trkpt>
      <trkpt lat="43.2393127587" lon="-2.0797698665">
        <ele>440.90</ele>
        <time>2019-02-14T16:12:50Z</time>
      </trkpt>
      <trkpt lat="43.2390830945" lon="-2.0800482295">
        <ele>441.38</ele>
        <time>2019-02-14T16:12:58Z</time>
      </trkpt>
      <trkpt lat="43.2390460465" lon="-2.0800834335">
        <ele>441.38</ele>
        <time>2019-02-14T16:12:59Z</time>
      </trkpt>
      <trkpt lat="43.2387640793" lon="-2.0803949889">
        <ele>440.42</ele>
        <time>2019-02-14T16:13:06Z</time>
      </trkpt>
      <trkpt lat="43.2387273666" lon="-2.0804524049">
        <ele>440.42</ele>
        <time>2019-02-14T16:13:07Z</time>
      </trkpt>
      <trkpt lat="43.2385054976" lon="-2.0807706658">
        <ele>439.46</ele>
        <time>2019-02-14T16:13:13Z</time>
      </trkpt>
      <trkpt lat="43.2384741493" lon="-2.0808575023">
        <ele>439.46</ele>
        <time>2019-02-14T16:13:14Z</time>
      </trkpt>
      <trkpt lat="43.2384565473" lon="-2.0809532236">
        <ele>439.46</ele>
        <time>2019-02-14T16:13:16Z</time>
      </trkpt>
      <trkpt lat="43.2384426333" lon="-2.0810391381">
        <ele>439.46</ele>
        <time>2019-02-14T16:13:17Z</time>
      </trkpt>
      <trkpt lat="43.2384339161" lon="-2.0811065286">
        <ele>439.94</ele>
        <time>2019-02-14T16:13:18Z</time>
      </trkpt>
      <trkpt lat="43.2383640110" lon="-2.0814568084">
        <ele>440.42</ele>
        <time>2019-02-14T16:13:24Z</time>
      </trkpt>
      <trkpt lat="43.2383454870" lon="-2.0815159008">
        <ele>440.42</ele>
        <time>2019-02-14T16:13:25Z</time>
      </trkpt>
      <trkpt lat="43.2383193355" lon="-2.0815701317">
        <ele>440.42</ele>
        <time>2019-02-14T16:13:26Z</time>
      </trkpt>
      <trkpt lat="43.2379242964" lon="-2.0820096787">
        <ele>442.34</ele>
        <time>2019-02-14T16:13:39Z</time>
      </trkpt>
      <trkpt lat="43.2374578435" lon="-2.0821981877">
        <ele>444.27</ele>
        <time>2019-02-14T16:13:52Z</time>
      </trkpt>
      <trkpt lat="43.2370985113" lon="-2.0825258363">
        <ele>447.63</ele>
        <time>2019-02-14T16:14:05Z</time>
      </trkpt>
      <trkpt lat="43.2367978524" lon="-2.0828482043">
        <ele>451.00</ele>
        <time>2019-02-14T16:14:17Z</time>
      </trkpt>
      <trkpt lat="43.2365272008" lon="-2.0831725001">
        <ele>451.00</ele>
        <time>2019-02-14T16:14:26Z</time>
      </trkpt>
      <trkpt lat="43.2362750731" lon="-2.0835336763">
        <ele>454.36</ele>
        <time>2019-02-14T16:14:39Z</time>
      </trkpt>
      <trkpt lat="43.2360568922" lon="-2.0838923380">
        <ele>455.32</ele>
        <time>2019-02-14T16:14:50Z</time>
      </trkpt>
      <trkpt lat="43.2359939441" lon="-2.0840608142">
        <ele>455.80</ele>
        <time>2019-02-14T16:14:53Z</time>
      </trkpt>
      <trkpt lat="43.2359853107" lon="-2.0840944257">
        <ele>455.80</ele>
        <time>2019-02-14T16:14:54Z</time>
      </trkpt>
      <trkpt lat="43.2359759230" lon="-2.0841443818">
        <ele>455.80</ele>
        <time>2019-02-14T16:14:55Z</time>
      </trkpt>
      <trkpt lat="43.2359019108" lon="-2.0845606271">
        <ele>454.36</ele>
        <time>2019-02-14T16:15:02Z</time>
      </trkpt>
      <trkpt lat="43.2358764298" lon="-2.0846260060">
        <ele>453.88</ele>
        <time>2019-02-14T16:15:03Z</time>
      </trkpt>
      <trkpt lat="43.2353550754" lon="-2.0854125638">
        <ele>450.52</ele>
        <time>2019-02-14T16:15:17Z</time>
      </trkpt>
      <trkpt lat="43.2352468651" lon="-2.0855403040">
        <ele>450.52</ele>
        <time>2019-02-14T16:15:20Z</time>
      </trkpt>
      <trkpt lat="43.2349395845" lon="-2.0857511926">
        <ele>449.07</ele>
        <time>2019-02-14T16:15:25Z</time>
      </trkpt>
      <trkpt lat="43.2348794024" lon="-2.0857700519">
        <ele>449.07</ele>
        <time>2019-02-14T16:15:26Z</time>
      </trkpt>
      <trkpt lat="43.2346308790" lon="-2.0858172420">
        <ele>448.11</ele>
        <time>2019-02-14T16:15:30Z</time>
      </trkpt>
      <trkpt lat="43.2345271111" lon="-2.0858263783">
        <ele>447.63</ele>
        <time>2019-02-14T16:15:32Z</time>
      </trkpt>
      <trkpt lat="43.2344821002" lon="-2.0858303178">
        <ele>447.63</ele>
        <time>2019-02-14T16:15:33Z</time>
      </trkpt>
      <trkpt lat="43.2344556134" lon="-2.0858311560">
        <ele>447.15</ele>
        <time>2019-02-14T16:15:34Z</time>
      </trkpt>
      <trkpt lat="43.2340360153" lon="-2.0859428868">
        <ele>447.15</ele>
        <time>2019-02-14T16:15:46Z</time>
      </trkpt>
      <trkpt lat="43.2335364539" lon="-2.0863525104">
        <ele>448.59</ele>
        <time>2019-02-14T16:16:02Z</time>
      </trkpt>
      <trkpt lat="43.2332789619" lon="-2.0867792331">
        <ele>448.59</ele>
        <time>2019-02-14T16:16:13Z</time>
      </trkpt>
      <trkpt lat="43.2332207076" lon="-2.0868886169">
        <ele>448.59</ele>
        <time>2019-02-14T16:16:15Z</time>
      </trkpt>
      <trkpt lat="43.2331834920" lon="-2.0869402494">
        <ele>448.59</ele>
        <time>2019-02-14T16:16:17Z</time>
      </trkpt>
      <trkpt lat="43.2328253333" lon="-2.0874157548">
        <ele>449.55</ele>
        <time>2019-02-14T16:16:30Z</time>
      </trkpt>
      <trkpt lat="43.2328039594" lon="-2.0874714106">
        <ele>449.07</ele>
        <time>2019-02-14T16:16:31Z</time>
      </trkpt>
      <trkpt lat="43.2327893749" lon="-2.0875346940">
        <ele>449.07</ele>
        <time>2019-02-14T16:16:32Z</time>
      </trkpt>
      <trkpt lat="43.2327781431" lon="-2.0876141544">
        <ele>449.55</ele>
        <time>2019-02-14T16:16:33Z</time>
      </trkpt>
      <trkpt lat="43.2327678334" lon="-2.0876930282">
        <ele>449.55</ele>
        <time>2019-02-14T16:16:34Z</time>
      </trkpt>
      <trkpt lat="43.2327417657" lon="-2.0878154878">
        <ele>449.55</ele>
        <time>2019-02-14T16:16:36Z</time>
      </trkpt>
      <trkpt lat="43.2327237446" lon="-2.0878644381">
        <ele>449.55</ele>
        <time>2019-02-14T16:16:37Z</time>
      </trkpt>
      <trkpt lat="43.2325143646" lon="-2.0882085152">
        <ele>448.59</ele>
        <time>2019-02-14T16:16:44Z</time>
      </trkpt>
      <trkpt lat="43.2323672622" lon="-2.0882888976">
        <ele>447.63</ele>
        <time>2019-02-14T16:16:47Z</time>
      </trkpt>
      <trkpt lat="43.2323204912" lon="-2.0883085113">
        <ele>447.63</ele>
        <time>2019-02-14T16:16:48Z</time>
      </trkpt>
      <trkpt lat="43.2321917452" lon="-2.0883357525">
        <ele>447.15</ele>
        <time>2019-02-14T16:16:51Z</time>
      </trkpt>
      <trkpt lat="43.2317740750" lon="-2.0883629937">
        <ele>445.23</ele>
        <time>2019-02-14T16:16:57Z</time>
      </trkpt>
      <trkpt lat="43.2313796226" lon="-2.0883437153">
        <ele>444.27</ele>
        <time>2019-02-14T16:17:03Z</time>
      </trkpt>
      <trkpt lat="43.2313008327" lon="-2.0883685257">
        <ele>443.79</ele>
        <time>2019-02-14T16:17:04Z</time>
      </trkpt>
      <trkpt lat="43.2312490325" lon="-2.0883981977">
        <ele>443.79</ele>
        <time>2019-02-14T16:17:05Z</time>
      </trkpt>
      <trkpt lat="43.2311710808" lon="-2.0884553622">
        <ele>443.31</ele>
        <time>2019-02-14T16:17:06Z</time>
      </trkpt>
      <trkpt lat="43.2311054505" lon="-2.0885171369">
        <ele>442.82</ele>
        <time>2019-02-14T16:17:07Z</time>
      </trkpt>
      <trkpt lat="43.2310350426" lon="-2.0885928255">
        <ele>441.86</ele>
        <time>2019-02-14T16:17:08Z</time>
      </trkpt>
      <trkpt lat="43.2306176238" lon="-2.0889951568">
        <ele>437.54</ele>
        <time>2019-02-14T16:17:14Z</time>
      </trkpt>
      <trkpt lat="43.2305109221" lon="-2.0891362242">
        <ele>436.10</ele>
        <time>2019-02-14T16:17:16Z</time>
      </trkpt>
      <trkpt lat="43.2304695994" lon="-2.0892122481">
        <ele>435.61</ele>
        <time>2019-02-14T16:17:17Z</time>
      </trkpt>
      <trkpt lat="43.2304325514" lon="-2.0892958157">
        <ele>435.13</ele>
        <time>2019-02-14T16:17:18Z</time>
      </trkpt>
      <trkpt lat="43.2300619874" lon="-2.0902527776">
        <ele>429.37</ele>
        <time>2019-02-14T16:17:29Z</time>
      </trkpt>
      <trkpt lat="43.2297836244" lon="-2.0907370001">
        <ele>428.40</ele>
        <time>2019-02-14T16:17:36Z</time>
      </trkpt>
      <trkpt lat="43.2294598315" lon="-2.0912479609">
        <ele>428.40</ele>
        <time>2019-02-14T16:17:45Z</time>
      </trkpt>
      <trkpt lat="43.2293885853" lon="-2.0913495496">
        <ele>428.89</ele>
        <time>2019-02-14T16:17:47Z</time>
      </trkpt>
      <trkpt lat="43.2290782873" lon="-2.0918440819">
        <ele>429.37</ele>
        <time>2019-02-14T16:18:00Z</time>
      </trkpt>
      <trkpt lat="43.2290537283" lon="-2.0918975584">
        <ele>428.89</ele>
        <time>2019-02-14T16:18:01Z</time>
      </trkpt>
      <trkpt lat="43.2290367130" lon="-2.0919467602">
        <ele>428.89</ele>
        <time>2019-02-14T16:18:02Z</time>
      </trkpt>
      <trkpt lat="43.2287819870" lon="-2.0927020535">
        <ele>420.71</ele>
        <time>2019-02-14T16:18:11Z</time>
      </trkpt>
      <trkpt lat="43.2287108246" lon="-2.0928361639">
        <ele>418.31</ele>
        <time>2019-02-14T16:18:13Z</time>
      </trkpt>
      <trkpt lat="43.2286378182" lon="-2.0929238386">
        <ele>415.43</ele>
        <time>2019-02-14T16:18:17Z</time>
      </trkpt>
      <trkpt lat="43.2286282629" lon="-2.0929040574">
        <ele>414.47</ele>
        <time>2019-02-14T16:18:19Z</time>
      </trkpt>
      <trkpt lat="43.2286339626" lon="-2.0928814262">
        <ele>413.50</ele>
        <time>2019-02-14T16:18:20Z</time>
      </trkpt>
      <trkpt lat="43.2287099864" lon="-2.0924956910">
        <ele>412.06</ele>
        <time>2019-02-14T16:18:30Z</time>
      </trkpt>
      <trkpt lat="43.2287446875" lon="-2.0916404016">
        <ele>412.54</ele>
        <time>2019-02-14T16:18:45Z</time>
      </trkpt>
      <trkpt lat="43.2287649717" lon="-2.0909316279">
        <ele>411.58</ele>
        <time>2019-02-14T16:18:55Z</time>
      </trkpt>
      <trkpt lat="43.2288155146" lon="-2.0907835197">
        <ele>411.10</ele>
        <time>2019-02-14T16:18:57Z</time>
      </trkpt>
      <trkpt lat="43.2288523111" lon="-2.0907130279">
        <ele>411.10</ele>
        <time>2019-02-14T16:18:58Z</time>
      </trkpt>
      <trkpt lat="43.2289006747" lon="-2.0906472299">
        <ele>410.62</ele>
        <time>2019-02-14T16:18:59Z</time>
      </trkpt>
      <trkpt lat="43.2291101385" lon="-2.0903788414">
        <ele>409.18</ele>
        <time>2019-02-14T16:19:03Z</time>
      </trkpt>
      <trkpt lat="43.2291500363" lon="-2.0902965311">
        <ele>409.18</ele>
        <time>2019-02-14T16:19:04Z</time>
      </trkpt>
      <trkpt lat="43.2291803788" lon="-2.0902101975">
        <ele>408.70</ele>
        <time>2019-02-14T16:19:05Z</time>
      </trkpt>
      <trkpt lat="43.2292616833" lon="-2.0898895897">
        <ele>406.77</ele>
        <time>2019-02-14T16:19:09Z</time>
      </trkpt>
      <trkpt lat="43.2292632759" lon="-2.0898206066">
        <ele>406.29</ele>
        <time>2019-02-14T16:19:10Z</time>
      </trkpt>
      <trkpt lat="43.2292542234" lon="-2.0896783657">
        <ele>405.33</ele>
        <time>2019-02-14T16:19:12Z</time>
      </trkpt>
      <trkpt lat="43.2292493619" lon="-2.0896079578">
        <ele>404.37</ele>
        <time>2019-02-14T16:19:13Z</time>
      </trkpt>
      <trkpt lat="43.2292439975" lon="-2.0895339455">
        <ele>403.89</ele>
        <time>2019-02-14T16:19:14Z</time>
      </trkpt>
      <trkpt lat="43.2292341907" lon="-2.0894668903">
        <ele>403.41</ele>
        <time>2019-02-14T16:19:15Z</time>
      </trkpt>
      <trkpt lat="43.2292242162" lon="-2.0893963147">
        <ele>402.93</ele>
        <time>2019-02-14T16:19:16Z</time>
      </trkpt>
      <trkpt lat="43.2292080391" lon="-2.0893290080">
        <ele>401.97</ele>
        <time>2019-02-14T16:19:17Z</time>
      </trkpt>
      <trkpt lat="43.2290876750" lon="-2.0890291873">
        <ele>399.08</ele>
        <time>2019-02-14T16:19:22Z</time>
      </trkpt>
      <trkpt lat="43.2289847452" lon="-2.0885794144">
        <ele>397.16</ele>
        <time>2019-02-14T16:19:30Z</time>
      </trkpt>
      <trkpt lat="43.2289742678" lon="-2.0885176398">
        <ele>397.16</ele>
        <time>2019-02-14T16:19:31Z</time>
      </trkpt>
      <trkpt lat="43.2289606892" lon="-2.0884612296">
        <ele>396.68</ele>
        <time>2019-02-14T16:19:32Z</time>
      </trkpt>
      <trkpt lat="43.2289453503" lon="-2.0884075854">
        <ele>396.20</ele>
        <time>2019-02-14T16:19:33Z</time>
      </trkpt>
      <trkpt lat="43.2289284188" lon="-2.0883523487">
        <ele>395.72</ele>
        <time>2019-02-14T16:19:34Z</time>
      </trkpt>
      <trkpt lat="43.2288943045" lon="-2.0882472396">
        <ele>395.24</ele>
        <time>2019-02-14T16:19:36Z</time>
      </trkpt>
      <trkpt lat="43.2287616190" lon="-2.0876246318">
        <ele>391.39</ele>
        <time>2019-02-14T16:19:48Z</time>
      </trkpt>
      <trkpt lat="43.2285945676" lon="-2.0870275889">
        <ele>391.39</ele>
        <time>2019-02-14T16:20:00Z</time>
      </trkpt>
      <trkpt lat="43.2284577750" lon="-2.0865346491">
        <ele>394.28</ele>
        <time>2019-02-14T16:20:11Z</time>
      </trkpt>
      <trkpt lat="43.2283663284" lon="-2.0860225148">
        <ele>395.72</ele>
        <time>2019-02-14T16:20:20Z</time>
      </trkpt>
      <trkpt lat="43.2283638138" lon="-2.0859552920">
        <ele>396.20</ele>
        <time>2019-02-14T16:20:21Z</time>
      </trkpt>
      <trkpt lat="43.2283839304" lon="-2.0856499393">
        <ele>395.72</ele>
        <time>2019-02-14T16:20:25Z</time>
      </trkpt>
      <trkpt lat="43.2284768019" lon="-2.0846906304">
        <ele>391.39</ele>
        <time>2019-02-14T16:20:36Z</time>
      </trkpt>
      <trkpt lat="43.2284954097" lon="-2.0844278578">
        <ele>389.95</ele>
        <time>2019-02-14T16:20:40Z</time>
      </trkpt>
      <trkpt lat="43.2284904644" lon="-2.0843520015">
        <ele>389.47</ele>
        <time>2019-02-14T16:20:41Z</time>
      </trkpt>
      <trkpt lat="43.2284520753" lon="-2.0840191562">
        <ele>387.07</ele>
        <time>2019-02-14T16:20:45Z</time>
      </trkpt>
      <trkpt lat="43.2284856867" lon="-2.0829888526">
        <ele>379.86</ele>
        <time>2019-02-14T16:20:55Z</time>
      </trkpt>
      <trkpt lat="43.2286088169" lon="-2.0818842016">
        <ele>367.84</ele>
        <time>2019-02-14T16:21:06Z</time>
      </trkpt>
      <trkpt lat="43.2286033686" lon="-2.0817916654">
        <ele>366.88</ele>
        <time>2019-02-14T16:21:07Z</time>
      </trkpt>
      <trkpt lat="43.2285862695" lon="-2.0816941839">
        <ele>366.40</ele>
        <time>2019-02-14T16:21:08Z</time>
      </trkpt>
      <trkpt lat="43.2285588607" lon="-2.0815902483">
        <ele>365.44</ele>
        <time>2019-02-14T16:21:09Z</time>
      </trkpt>
      <trkpt lat="43.2284234092" lon="-2.0811517909">
        <ele>361.11</ele>
        <time>2019-02-14T16:21:14Z</time>
      </trkpt>
      <trkpt lat="43.2284131832" lon="-2.0810766891">
        <ele>360.63</ele>
        <time>2019-02-14T16:21:15Z</time>
      </trkpt>
      <trkpt lat="43.2284089085" lon="-2.0809947141">
        <ele>359.67</ele>
        <time>2019-02-14T16:21:16Z</time>
      </trkpt>
      <trkpt lat="43.2284116745" lon="-2.0809037704">
        <ele>359.19</ele>
        <time>2019-02-14T16:21:17Z</time>
      </trkpt>
      <trkpt lat="43.2284251694" lon="-2.0808044448">
        <ele>358.23</ele>
        <time>2019-02-14T16:21:18Z</time>
      </trkpt>
      <trkpt lat="43.2284477167" lon="-2.0807015989">
        <ele>357.27</ele>
        <time>2019-02-14T16:21:19Z</time>
      </trkpt>
      <trkpt lat="43.2284742035" lon="-2.0805947296">
        <ele>356.31</ele>
        <time>2019-02-14T16:21:20Z</time>
      </trkpt>
      <trkpt lat="43.2285465393" lon="-2.0801991038">
        <ele>352.46</ele>
        <time>2019-02-14T16:21:24Z</time>
      </trkpt>
      <trkpt lat="43.2285508979" lon="-2.0801183023">
        <ele>351.50</ele>
        <time>2019-02-14T16:21:25Z</time>
      </trkpt>
      <trkpt lat="43.2285498921" lon="-2.0800304599">
        <ele>350.54</ele>
        <time>2019-02-14T16:21:26Z</time>
      </trkpt>
      <trkpt lat="43.2285406720" lon="-2.0799411926">
        <ele>349.58</ele>
        <time>2019-02-14T16:21:27Z</time>
      </trkpt>
      <trkpt lat="43.2285170350" lon="-2.0798644144">
        <ele>349.10</ele>
        <time>2019-02-14T16:21:28Z</time>
      </trkpt>
      <trkpt lat="43.2284902968" lon="-2.0798131172">
        <ele>348.62</ele>
        <time>2019-02-14T16:21:29Z</time>
      </trkpt>
      <trkpt lat="43.2284540031" lon="-2.0797615685">
        <ele>347.65</ele>
        <time>2019-02-14T16:21:30Z</time>
      </trkpt>
      <trkpt lat="43.2284216490" lon="-2.0797081757">
        <ele>347.17</ele>
        <time>2019-02-14T16:21:31Z</time>
      </trkpt>
      <trkpt lat="43.2283953298" lon="-2.0796552859">
        <ele>346.69</ele>
        <time>2019-02-14T16:21:32Z</time>
      </trkpt>
      <trkpt lat="43.2283618860" lon="-2.0796122029">
        <ele>346.21</ele>
        <time>2019-02-14T16:21:33Z</time>
      </trkpt>
      <trkpt lat="43.2280656695" lon="-2.0790914353">
        <ele>345.73</ele>
        <time>2019-02-14T16:21:47Z</time>
      </trkpt>
      <trkpt lat="43.2278963551" lon="-2.0785304345">
        <ele>347.65</ele>
        <time>2019-02-14T16:22:00Z</time>
      </trkpt>
      <trkpt lat="43.2278033998" lon="-2.0780727826">
        <ele>352.46</ele>
        <time>2019-02-14T16:22:15Z</time>
      </trkpt>
      <trkpt lat="43.2278360054" lon="-2.0774453133">
        <ele>353.90</ele>
        <time>2019-02-14T16:22:31Z</time>
      </trkpt>
      <trkpt lat="43.2279442158" lon="-2.0768677164">
        <ele>355.34</ele>
        <time>2019-02-14T16:22:44Z</time>
      </trkpt>
      <trkpt lat="43.2281220797" lon="-2.0762838330">
        <ele>357.27</ele>
        <time>2019-02-14T16:22:56Z</time>
      </trkpt>
      <trkpt lat="43.2281891350" lon="-2.0759477187">
        <ele>356.79</ele>
        <time>2019-02-14T16:23:00Z</time>
      </trkpt>
      <trkpt lat="43.2281794958" lon="-2.0757893845">
        <ele>356.79</ele>
        <time>2019-02-14T16:23:02Z</time>
      </trkpt>
      <trkpt lat="43.2281611394" lon="-2.0755915716">
        <ele>356.31</ele>
        <time>2019-02-14T16:23:05Z</time>
      </trkpt>
      <trkpt lat="43.2281630673" lon="-2.0755256061">
        <ele>356.31</ele>
        <time>2019-02-14T16:23:06Z</time>
      </trkpt>
      <trkpt lat="43.2282099221" lon="-2.0749837160">
        <ele>356.31</ele>
        <time>2019-02-14T16:23:14Z</time>
      </trkpt>
      <trkpt lat="43.2281944156" lon="-2.0746324304">
        <ele>355.83</ele>
        <time>2019-02-14T16:23:18Z</time>
      </trkpt>
      <trkpt lat="43.2281096745" lon="-2.0743257366">
        <ele>355.83</ele>
        <time>2019-02-14T16:23:22Z</time>
      </trkpt>
      <trkpt lat="43.2280199043" lon="-2.0737796556">
        <ele>354.38</ele>
        <time>2019-02-14T16:23:30Z</time>
      </trkpt>
      <trkpt lat="43.2278280426" lon="-2.0728339255">
        <ele>349.58</ele>
        <time>2019-02-14T16:23:39Z</time>
      </trkpt>
      <trkpt lat="43.2277732249" lon="-2.0725427382">
        <ele>347.17</ele>
        <time>2019-02-14T16:23:42Z</time>
      </trkpt>
      <trkpt lat="43.2277061697" lon="-2.0722467732">
        <ele>344.29</ele>
        <time>2019-02-14T16:23:46Z</time>
      </trkpt>
      <trkpt lat="43.2276995480" lon="-2.0721815620">
        <ele>343.81</ele>
        <time>2019-02-14T16:23:47Z</time>
      </trkpt>
      <trkpt lat="43.2276861370" lon="-2.0721016824">
        <ele>342.85</ele>
        <time>2019-02-14T16:23:48Z</time>
      </trkpt>
      <trkpt lat="43.2276683673" lon="-2.0720301848">
        <ele>342.37</ele>
        <time>2019-02-14T16:23:49Z</time>
      </trkpt>
      <trkpt lat="43.2276447304" lon="-2.0719446056">
        <ele>341.41</ele>
        <time>2019-02-14T16:23:50Z</time>
      </trkpt>
      <trkpt lat="43.2275712211" lon="-2.0716093294">
        <ele>338.52</ele>
        <time>2019-02-14T16:23:54Z</time>
      </trkpt>
      <trkpt lat="43.2275237795" lon="-2.0713844430">
        <ele>337.56</ele>
        <time>2019-02-14T16:23:57Z</time>
      </trkpt>
      <trkpt lat="43.2275051717" lon="-2.0713267755">
        <ele>337.56</ele>
        <time>2019-02-14T16:23:58Z</time>
      </trkpt>
      <trkpt lat="43.2273056824" lon="-2.0709029026">
        <ele>342.37</ele>
        <time>2019-02-14T16:24:12Z</time>
      </trkpt>
      <trkpt lat="43.2271175086" lon="-2.0705152396">
        <ele>344.29</ele>
        <time>2019-02-14T16:24:25Z</time>
      </trkpt>
      <trkpt lat="43.2267653011" lon="-2.0701061189">
        <ele>344.77</ele>
        <time>2019-02-14T16:24:40Z</time>
      </trkpt>
      <trkpt lat="43.2265384868" lon="-2.0697663166">
        <ele>348.13</ele>
        <time>2019-02-14T16:24:53Z</time>
      </trkpt>
      <trkpt lat="43.2264668215" lon="-2.0696511492">
        <ele>348.13</ele>
        <time>2019-02-14T16:24:56Z</time>
      </trkpt>
      <trkpt lat="43.2264427654" lon="-2.0696021151">
        <ele>348.13</ele>
        <time>2019-02-14T16:24:57Z</time>
      </trkpt>
      <trkpt lat="43.2264118362" lon="-2.0695535839">
        <ele>347.65</ele>
        <time>2019-02-14T16:24:58Z</time>
      </trkpt>
      <trkpt lat="43.2263382431" lon="-2.0694509894">
        <ele>348.13</ele>
        <time>2019-02-14T16:25:00Z</time>
      </trkpt>
      <trkpt lat="43.2262773905" lon="-2.0693365764">
        <ele>347.65</ele>
        <time>2019-02-14T16:25:02Z</time>
      </trkpt>
      <trkpt lat="43.2262555975" lon="-2.0692714490">
        <ele>347.17</ele>
        <time>2019-02-14T16:25:03Z</time>
      </trkpt>
      <trkpt lat="43.2262366544" lon="-2.0691893063">
        <ele>346.69</ele>
        <time>2019-02-14T16:25:04Z</time>
      </trkpt>
      <trkpt lat="43.2262220699" lon="-2.0690940879">
        <ele>345.73</ele>
        <time>2019-02-14T16:25:05Z</time>
      </trkpt>
      <trkpt lat="43.2262136042" lon="-2.0689945109">
        <ele>345.25</ele>
        <time>2019-02-14T16:25:06Z</time>
      </trkpt>
      <trkpt lat="43.2262064796" lon="-2.0688995440">
        <ele>344.29</ele>
        <time>2019-02-14T16:25:07Z</time>
      </trkpt>
      <trkpt lat="43.2261953317" lon="-2.0688076783">
        <ele>343.33</ele>
        <time>2019-02-14T16:25:08Z</time>
      </trkpt>
      <trkpt lat="43.2261789031" lon="-2.0687224343">
        <ele>342.85</ele>
        <time>2019-02-14T16:25:09Z</time>
      </trkpt>
      <trkpt lat="43.2261567749" lon="-2.0686416328">
        <ele>341.89</ele>
        <time>2019-02-14T16:25:10Z</time>
      </trkpt>
      <trkpt lat="43.2259054855" lon="-2.0680099726">
        <ele>336.12</ele>
        <time>2019-02-14T16:25:19Z</time>
      </trkpt>
      <trkpt lat="43.2258747239" lon="-2.0679730922">
        <ele>336.12</ele>
        <time>2019-02-14T16:25:20Z</time>
      </trkpt>
      <trkpt lat="43.2258313056" lon="-2.0679440070">
        <ele>335.64</ele>
        <time>2019-02-14T16:25:21Z</time>
      </trkpt>
      <trkpt lat="43.2254559640" lon="-2.0676711760">
        <ele>333.71</ele>
        <time>2019-02-14T16:25:33Z</time>
      </trkpt>
      <trkpt lat="43.2252613362" lon="-2.0672761369">
        <ele>333.71</ele>
        <time>2019-02-14T16:25:45Z</time>
      </trkpt>
      <trkpt lat="43.2252049260" lon="-2.0668191556">
        <ele>332.27</ele>
        <time>2019-02-14T16:25:54Z</time>
      </trkpt>
      <trkpt lat="43.2251335122" lon="-2.0666174870">
        <ele>332.75</ele>
        <time>2019-02-14T16:25:58Z</time>
      </trkpt>
      <trkpt lat="43.2251034211" lon="-2.0665823668">
        <ele>332.27</ele>
        <time>2019-02-14T16:25:59Z</time>
      </trkpt>
      <trkpt lat="43.2250683848" lon="-2.0665562991">
        <ele>332.27</ele>
        <time>2019-02-14T16:26:00Z</time>
      </trkpt>
      <trkpt lat="43.2250323426" lon="-2.0665399544">
        <ele>331.79</ele>
        <time>2019-02-14T16:26:01Z</time>
      </trkpt>
      <trkpt lat="43.2249988150" lon="-2.0665360149">
        <ele>331.79</ele>
        <time>2019-02-14T16:26:02Z</time>
      </trkpt>
      <trkpt lat="43.2249694783" lon="-2.0665403735">
        <ele>331.31</ele>
        <time>2019-02-14T16:26:03Z</time>
      </trkpt>
      <trkpt lat="43.2249400578" lon="-2.0665385295">
        <ele>331.31</ele>
        <time>2019-02-14T16:26:04Z</time>
      </trkpt>
      <trkpt lat="43.2249108888" lon="-2.0665306505">
        <ele>331.31</ele>
        <time>2019-02-14T16:26:05Z</time>
      </trkpt>
      <trkpt lat="43.2248783670" lon="-2.0665309019">
        <ele>330.83</ele>
        <time>2019-02-14T16:26:06Z</time>
      </trkpt>
      <trkpt lat="43.2248467673" lon="-2.0665351767">
        <ele>330.83</ele>
        <time>2019-02-14T16:26:07Z</time>
      </trkpt>
      <trkpt lat="43.2248168439" lon="-2.0665368531">
        <ele>330.83</ele>
        <time>2019-02-14T16:26:08Z</time>
      </trkpt>
      <trkpt lat="43.2247925363" lon="-2.0665334165">
        <ele>330.83</ele>
        <time>2019-02-14T16:26:09Z</time>
      </trkpt>
      <trkpt lat="43.2247559074" lon="-2.0664769225">
        <ele>332.27</ele>
        <time>2019-02-14T16:26:20Z</time>
      </trkpt>
      <trkpt lat="43.2247445919" lon="-2.0664965361">
        <ele>337.08</ele>
        <time>2019-02-14T16:26:39Z</time>
      </trkpt>
      <trkpt lat="43.2245980762" lon="-2.0664780959">
        <ele>340.92</ele>
        <time>2019-02-14T16:26:52Z</time>
      </trkpt>
      <trkpt lat="43.2243334595" lon="-2.0662600826">
        <ele>343.33</ele>
        <time>2019-02-14T16:27:05Z</time>
      </trkpt>
      <trkpt lat="43.2241690904" lon="-2.0660397224">
        <ele>343.81</ele>
        <time>2019-02-14T16:27:16Z</time>
      </trkpt>
      <trkpt lat="43.2239131071" lon="-2.0656995848">
        <ele>346.69</ele>
        <time>2019-02-14T16:27:30Z</time>
      </trkpt>
      <trkpt lat="43.2235819381" lon="-2.0654023625">
        <ele>347.17</ele>
        <time>2019-02-14T16:27:44Z</time>
      </trkpt>
      <trkpt lat="43.2232997194" lon="-2.0652502310">
        <ele>353.90</ele>
        <time>2019-02-14T16:27:57Z</time>
      </trkpt>
      <trkpt lat="43.2229803689" lon="-2.0651808288">
        <ele>359.19</ele>
        <time>2019-02-14T16:28:13Z</time>
      </trkpt>
      <trkpt lat="43.2226194441" lon="-2.0651118457">
        <ele>363.04</ele>
        <time>2019-02-14T16:28:29Z</time>
      </trkpt>
      <trkpt lat="43.2222720981" lon="-2.0649757236">
        <ele>363.04</ele>
        <time>2019-02-14T16:28:41Z</time>
      </trkpt>
      <trkpt lat="43.2221996784" lon="-2.0649034716">
        <ele>362.55</ele>
        <time>2019-02-14T16:28:43Z</time>
      </trkpt>
      <trkpt lat="43.2221011911" lon="-2.0647863764">
        <ele>362.55</ele>
        <time>2019-02-14T16:28:45Z</time>
      </trkpt>
      <trkpt lat="43.2220507320" lon="-2.0647159684">
        <ele>362.55</ele>
        <time>2019-02-14T16:28:46Z</time>
      </trkpt>
      <trkpt lat="43.2220017817" lon="-2.0646558702">
        <ele>362.55</ele>
        <time>2019-02-14T16:28:47Z</time>
      </trkpt>
      <trkpt lat="43.2219532505" lon="-2.0646111108">
        <ele>362.55</ele>
        <time>2019-02-14T16:28:48Z</time>
      </trkpt>
      <trkpt lat="43.2219040487" lon="-2.0645772479">
        <ele>362.55</ele>
        <time>2019-02-14T16:28:49Z</time>
      </trkpt>
      <trkpt lat="43.2218474708" lon="-2.0645502582">
        <ele>362.55</ele>
        <time>2019-02-14T16:28:50Z</time>
      </trkpt>
      <trkpt lat="43.2215841115" lon="-2.0644837897">
        <ele>362.07</ele>
        <time>2019-02-14T16:28:55Z</time>
      </trkpt>
      <trkpt lat="43.2215300482" lon="-2.0644921716">
        <ele>362.07</ele>
        <time>2019-02-14T16:28:56Z</time>
      </trkpt>
      <trkpt lat="43.2213020604" lon="-2.0645254478">
        <ele>362.07</ele>
        <time>2019-02-14T16:29:00Z</time>
      </trkpt>
      <trkpt lat="43.2212457340" lon="-2.0645130426">
        <ele>361.59</ele>
        <time>2019-02-14T16:29:01Z</time>
      </trkpt>
      <trkpt lat="43.2211916707" lon="-2.0644972846">
        <ele>361.59</ele>
        <time>2019-02-14T16:29:02Z</time>
      </trkpt>
      <trkpt lat="43.2209271379" lon="-2.0644121245">
        <ele>360.63</ele>
        <time>2019-02-14T16:29:07Z</time>
      </trkpt>
      <trkpt lat="43.2208881620" lon="-2.0643809438">
        <ele>360.15</ele>
        <time>2019-02-14T16:29:08Z</time>
      </trkpt>
      <trkpt lat="43.2206735015" lon="-2.0640648622">
        <ele>357.27</ele>
        <time>2019-02-14T16:29:17Z</time>
      </trkpt>
      <trkpt lat="43.2204445917" lon="-2.0637079608">
        <ele>352.94</ele>
        <time>2019-02-14T16:29:28Z</time>
      </trkpt>
      <trkpt lat="43.2201238163" lon="-2.0632785559">
        <ele>351.98</ele>
        <time>2019-02-14T16:29:41Z</time>
      </trkpt>
      <trkpt lat="43.2199377380" lon="-2.0629702695">
        <ele>352.46</ele>
        <time>2019-02-14T16:29:50Z</time>
      </trkpt>
      <trkpt lat="43.2199180406" lon="-2.0629052259">
        <ele>352.46</ele>
        <time>2019-02-14T16:29:51Z</time>
      </trkpt>
      <trkpt lat="43.2198986784" lon="-2.0628325548">
        <ele>351.98</ele>
        <time>2019-02-14T16:29:52Z</time>
      </trkpt>
      <trkpt lat="43.2196921483" lon="-2.0621411316">
        <ele>348.13</ele>
        <time>2019-02-14T16:29:59Z</time>
      </trkpt>
      <trkpt lat="43.2193365879" lon="-2.0614277478">
        <ele>344.77</ele>
        <time>2019-02-14T16:30:07Z</time>
      </trkpt>
      <trkpt lat="43.2192956004" lon="-2.0613106526">
        <ele>345.25</ele>
        <time>2019-02-14T16:30:09Z</time>
      </trkpt>
      <trkpt lat="43.2192674372" lon="-2.0612596069">
        <ele>345.73</ele>
        <time>2019-02-14T16:30:10Z</time>
      </trkpt>
      <trkpt lat="43.2190911658" lon="-2.0610874426">
        <ele>351.02</ele>
        <time>2019-02-14T16:30:20Z</time>
      </trkpt>
      <trkpt lat="43.2188646868" lon="-2.0609828364">
        <ele>352.94</ele>
        <time>2019-02-14T16:30:32Z</time>
      </trkpt>
      <trkpt lat="43.2185182627" lon="-2.0609901287">
        <ele>356.79</ele>
        <time>2019-02-14T16:30:49Z</time>
      </trkpt>
      <trkpt lat="43.2182654645" lon="-2.0610027853">
        <ele>361.59</ele>
        <time>2019-02-14T16:31:03Z</time>
      </trkpt>
      <trkpt lat="43.2181050349" lon="-2.0608177967">
        <ele>367.84</ele>
        <time>2019-02-14T16:31:16Z</time>
      </trkpt>
      <trkpt lat="43.2179644704" lon="-2.0604971889">
        <ele>369.28</ele>
        <time>2019-02-14T16:31:30Z</time>
      </trkpt>
      <trkpt lat="43.2179051265" lon="-2.0601670258">
        <ele>371.69</ele>
        <time>2019-02-14T16:31:44Z</time>
      </trkpt>
      <trkpt lat="43.2180727646" lon="-2.0599497668">
        <ele>377.45</ele>
        <time>2019-02-14T16:31:57Z</time>
      </trkpt>
      <trkpt lat="43.2182732597" lon="-2.0598366950">
        <ele>381.78</ele>
        <time>2019-02-14T16:32:10Z</time>
      </trkpt>
      <trkpt lat="43.2184901834" lon="-2.0597427338">
        <ele>383.70</ele>
        <time>2019-02-14T16:32:23Z</time>
      </trkpt>
      <trkpt lat="43.2187008206" lon="-2.0596542209">
        <ele>387.07</ele>
        <time>2019-02-14T16:32:37Z</time>
      </trkpt>
      <trkpt lat="43.2187328395" lon="-2.0596458390">
        <ele>387.07</ele>
        <time>2019-02-14T16:32:39Z</time>
      </trkpt>
      <trkpt lat="43.2187495194" lon="-2.0596418995">
        <ele>387.55</ele>
        <time>2019-02-14T16:32:40Z</time>
      </trkpt>
      <trkpt lat="43.2187656127" lon="-2.0596353617">
        <ele>387.55</ele>
        <time>2019-02-14T16:32:41Z</time>
      </trkpt>
      <trkpt lat="43.2187799457" lon="-2.0596224535">
        <ele>387.55</ele>
        <time>2019-02-14T16:32:42Z</time>
      </trkpt>
      <trkpt lat="43.2187931053" lon="-2.0596091263">
        <ele>388.03</ele>
        <time>2019-02-14T16:32:43Z</time>
      </trkpt>
      <trkpt lat="43.2188433968" lon="-2.0595687255">
        <ele>388.99</ele>
        <time>2019-02-14T16:32:46Z</time>
      </trkpt>
      <trkpt lat="43.2188579813" lon="-2.0595567394">
        <ele>388.99</ele>
        <time>2019-02-14T16:32:47Z</time>
      </trkpt>
      <trkpt lat="43.2188736554" lon="-2.0595471840">
        <ele>388.99</ele>
        <time>2019-02-14T16:32:48Z</time>
      </trkpt>
      <trkpt lat="43.2188910060" lon="-2.0595388860">
        <ele>388.99</ele>
        <time>2019-02-14T16:32:49Z</time>
      </trkpt>
      <trkpt lat="43.2189066801" lon="-2.0595289115">
        <ele>389.47</ele>
        <time>2019-02-14T16:32:50Z</time>
      </trkpt>
      <trkpt lat="43.2189219352" lon="-2.0595200267">
        <ele>389.47</ele>
        <time>2019-02-14T16:32:51Z</time>
      </trkpt>
      <trkpt lat="43.2189317420" lon="-2.0595106389">
        <ele>389.47</ele>
        <time>2019-02-14T16:32:52Z</time>
      </trkpt>
      <trkpt lat="43.2189452369" lon="-2.0595011674">
        <ele>389.47</ele>
        <time>2019-02-14T16:32:53Z</time>
      </trkpt>
      <trkpt lat="43.2189609949" lon="-2.0594916958">
        <ele>389.47</ele>
        <time>2019-02-14T16:32:54Z</time>
      </trkpt>
      <trkpt lat="43.2189797703" lon="-2.0594844036">
        <ele>389.95</ele>
        <time>2019-02-14T16:32:55Z</time>
      </trkpt>
      <trkpt lat="43.2189995516" lon="-2.0594780333">
        <ele>389.95</ele>
        <time>2019-02-14T16:32:56Z</time>
      </trkpt>
      <trkpt lat="43.2192391902" lon="-2.0592835732">
        <ele>391.39</ele>
        <time>2019-02-14T16:33:10Z</time>
      </trkpt>
      <trkpt lat="43.2193293795" lon="-2.0589952357">
        <ele>392.36</ele>
        <time>2019-02-14T16:33:23Z</time>
      </trkpt>
      <trkpt lat="43.2193347439" lon="-2.0589732751">
        <ele>392.36</ele>
        <time>2019-02-14T16:33:24Z</time>
      </trkpt>
      <trkpt lat="43.2193371747" lon="-2.0589494705">
        <ele>392.36</ele>
        <time>2019-02-14T16:33:25Z</time>
      </trkpt>
      <trkpt lat="43.2193419524" lon="-2.0589249954">
        <ele>392.84</ele>
        <time>2019-02-14T16:33:26Z</time>
      </trkpt>
      <trkpt lat="43.2194089238" lon="-2.0585628971">
        <ele>394.76</ele>
        <time>2019-02-14T16:33:42Z</time>
      </trkpt>
      <trkpt lat="43.2195671741" lon="-2.0582823548">
        <ele>397.16</ele>
        <time>2019-02-14T16:33:57Z</time>
      </trkpt>
      <trkpt lat="43.2197871991" lon="-2.0579284709">
        <ele>401.01</ele>
        <time>2019-02-14T16:34:14Z</time>
      </trkpt>
      <trkpt lat="43.2199247461" lon="-2.0577387884">
        <ele>403.41</ele>
        <time>2019-02-14T16:34:27Z</time>
      </trkpt>
      <trkpt lat="43.2198950741" lon="-2.0577237848">
        <ele>406.77</ele>
        <time>2019-02-14T16:34:41Z</time>
      </trkpt>
      <trkpt lat="43.2198724430" lon="-2.0576921850">
        <ele>409.66</ele>
        <time>2019-02-14T16:34:59Z</time>
      </trkpt>
      <trkpt lat="43.2198837586" lon="-2.0577406324">
        <ele>408.70</ele>
        <time>2019-02-14T16:35:11Z</time>
      </trkpt>
      <trkpt lat="43.2198960800" lon="-2.0577660296">
        <ele>408.22</ele>
        <time>2019-02-14T16:35:23Z</time>
      </trkpt>
      <trkpt lat="43.2199104968" lon="-2.0577812847">
        <ele>413.02</ele>
        <time>2019-02-14T16:35:42Z</time>
      </trkpt>
      <trkpt lat="43.2199245784" lon="-2.0577312447">
        <ele>412.06</ele>
        <time>2019-02-14T16:35:56Z</time>
      </trkpt>
      <trkpt lat="43.2200019434" lon="-2.0577252936">
        <ele>412.54</ele>
        <time>2019-02-14T16:36:18Z</time>
      </trkpt>
      <trkpt lat="43.2199400850" lon="-2.0577749144">
        <ele>411.58</ele>
        <time>2019-02-14T16:36:31Z</time>
      </trkpt>
      <trkpt lat="43.2198957447" lon="-2.0577342622">
        <ele>409.66</ele>
        <time>2019-02-14T16:36:40Z</time>
      </trkpt>
      <trkpt lat="43.2198794000" lon="-2.0577233657">
        <ele>409.18</ele>
        <time>2019-02-14T16:36:41Z</time>
      </trkpt>
      <trkpt lat="43.2198662404" lon="-2.0577034168">
        <ele>408.70</ele>
        <time>2019-02-14T16:36:42Z</time>
      </trkpt>
      <trkpt lat="43.2198688388" lon="-2.0576761756">
        <ele>408.70</ele>
        <time>2019-02-14T16:36:43Z</time>
      </trkpt>
      <trkpt lat="43.2198733650" lon="-2.0576460846">
        <ele>408.22</ele>
        <time>2019-02-14T16:36:44Z</time>
      </trkpt>
      <trkpt lat="43.2198718563" lon="-2.0576091204">
        <ele>408.70</ele>
        <time>2019-02-14T16:36:45Z</time>
      </trkpt>
      <trkpt lat="43.2198659889" lon="-2.0572770294">
        <ele>406.77</ele>
        <time>2019-02-14T16:36:51Z</time>
      </trkpt>
      <trkpt lat="43.2198441122" lon="-2.0571420807">
        <ele>406.29</ele>
        <time>2019-02-14T16:36:53Z</time>
      </trkpt>
      <trkpt lat="43.2197960000" lon="-2.0569435973">
        <ele>404.37</ele>
        <time>2019-02-14T16:36:56Z</time>
      </trkpt>
      <trkpt lat="43.2197658252" lon="-2.0568785537">
        <ele>403.41</ele>
        <time>2019-02-14T16:36:57Z</time>
      </trkpt>
      <trkpt lat="43.2196713611" lon="-2.0566743705">
        <ele>401.49</ele>
        <time>2019-02-14T16:37:00Z</time>
      </trkpt>
      <trkpt lat="43.2196455449" lon="-2.0565969218">
        <ele>400.53</ele>
        <time>2019-02-14T16:37:01Z</time>
      </trkpt>
      <trkpt lat="43.2196245901" lon="-2.0565140247">
        <ele>400.05</ele>
        <time>2019-02-14T16:37:02Z</time>
      </trkpt>
      <trkpt lat="43.2196097542" lon="-2.0564265177">
        <ele>399.08</ele>
        <time>2019-02-14T16:37:03Z</time>
      </trkpt>
      <trkpt lat="43.2195945829" lon="-2.0563432015">
        <ele>398.60</ele>
        <time>2019-02-14T16:37:04Z</time>
      </trkpt>
      <trkpt lat="43.2195668388" lon="-2.0562556107">
        <ele>397.64</ele>
        <time>2019-02-14T16:37:05Z</time>
      </trkpt>
      <trkpt lat="43.2195299584" lon="-2.0561727136">
        <ele>396.68</ele>
        <time>2019-02-14T16:37:06Z</time>
      </trkpt>
      <trkpt lat="43.2194890548" lon="-2.0560975280">
        <ele>395.72</ele>
        <time>2019-02-14T16:37:07Z</time>
      </trkpt>
      <trkpt lat="43.2194412779" lon="-2.0560283773">
        <ele>394.76</ele>
        <time>2019-02-14T16:37:08Z</time>
      </trkpt>
      <trkpt lat="43.2193841133" lon="-2.0559655130">
        <ele>393.80</ele>
        <time>2019-02-14T16:37:09Z</time>
      </trkpt>
      <trkpt lat="43.2193147950" lon="-2.0559060853">
        <ele>392.36</ele>
        <time>2019-02-14T16:37:10Z</time>
      </trkpt>
      <trkpt lat="43.2192422915" lon="-2.0558468252">
        <ele>391.39</ele>
        <time>2019-02-14T16:37:11Z</time>
      </trkpt>
      <trkpt lat="43.2190165669" lon="-2.0556726493">
        <ele>389.47</ele>
        <time>2019-02-14T16:37:14Z</time>
      </trkpt>
      <trkpt lat="43.2189537864" lon="-2.0556068514">
        <ele>388.99</ele>
        <time>2019-02-14T16:37:15Z</time>
      </trkpt>
      <trkpt lat="43.2187870704" lon="-2.0554116368">
        <ele>387.55</ele>
        <time>2019-02-14T16:37:18Z</time>
      </trkpt>
      <trkpt lat="43.2187276427" lon="-2.0553746726">
        <ele>387.55</ele>
        <time>2019-02-14T16:37:19Z</time>
      </trkpt>
      <trkpt lat="43.2186618447" lon="-2.0553550590">
        <ele>387.07</ele>
        <time>2019-02-14T16:37:20Z</time>
      </trkpt>
      <trkpt lat="43.2181744371" lon="-2.0553382952">
        <ele>383.22</ele>
        <time>2019-02-14T16:37:28Z</time>
      </trkpt>
      <trkpt lat="43.2181098964" lon="-2.0553580765">
        <ele>382.74</ele>
        <time>2019-02-14T16:37:29Z</time>
      </trkpt>
      <trkpt lat="43.2178964932" lon="-2.0554154925">
        <ele>380.34</ele>
        <time>2019-02-14T16:37:32Z</time>
      </trkpt>
      <trkpt lat="43.2178322878" lon="-2.0554067753">
        <ele>379.86</ele>
        <time>2019-02-14T16:37:33Z</time>
      </trkpt>
      <trkpt lat="43.2177637238" lon="-2.0553792827">
        <ele>378.90</ele>
        <time>2019-02-14T16:37:34Z</time>
      </trkpt>
      <trkpt lat="43.2176997699" lon="-2.0553447492">
        <ele>377.94</ele>
        <time>2019-02-14T16:37:35Z</time>
      </trkpt>
      <trkpt lat="43.2176375762" lon="-2.0552936196">
        <ele>377.45</ele>
        <time>2019-02-14T16:37:36Z</time>
      </trkpt>
      <trkpt lat="43.2175809983" lon="-2.0552291628">
        <ele>376.49</ele>
        <time>2019-02-14T16:37:37Z</time>
      </trkpt>
      <trkpt lat="43.2175246719" lon="-2.0551613532">
        <ele>375.53</ele>
        <time>2019-02-14T16:37:38Z</time>
      </trkpt>
      <trkpt lat="43.2172504161" lon="-2.0547497179">
        <ele>370.73</ele>
        <time>2019-02-14T16:37:43Z</time>
      </trkpt>
      <trkpt lat="43.2172152121" lon="-2.0546669886">
        <ele>369.28</ele>
        <time>2019-02-14T16:37:44Z</time>
      </trkpt>
      <trkpt lat="43.2171884738" lon="-2.0545916352">
        <ele>368.32</ele>
        <time>2019-02-14T16:37:45Z</time>
      </trkpt>
      <trkpt lat="43.2171188202" lon="-2.0543166250">
        <ele>364.96</ele>
        <time>2019-02-14T16:37:49Z</time>
      </trkpt>
      <trkpt lat="43.2171147130" lon="-2.0542393439">
        <ele>364.00</ele>
        <time>2019-02-14T16:37:50Z</time>
      </trkpt>
      <trkpt lat="43.2171131205" lon="-2.0539889764">
        <ele>362.07</ele>
        <time>2019-02-14T16:37:53Z</time>
      </trkpt>
      <trkpt lat="43.2171316445" lon="-2.0539057441">
        <ele>361.59</ele>
        <time>2019-02-14T16:37:54Z</time>
      </trkpt>
      <trkpt lat="43.2171633281" lon="-2.0538234338">
        <ele>361.11</ele>
        <time>2019-02-14T16:37:55Z</time>
      </trkpt>
      <trkpt lat="43.2173489034" lon="-2.0533908438">
        <ele>360.15</ele>
        <time>2019-02-14T16:38:01Z</time>
      </trkpt>
      <trkpt lat="43.2173748035" lon="-2.0533172507">
        <ele>360.15</ele>
        <time>2019-02-14T16:38:02Z</time>
      </trkpt>
      <trkpt lat="43.2174074929" lon="-2.0532506984">
        <ele>360.15</ele>
        <time>2019-02-14T16:38:03Z</time>
      </trkpt>
      <trkpt lat="43.2174480613" lon="-2.0531908516">
        <ele>360.15</ele>
        <time>2019-02-14T16:38:04Z</time>
      </trkpt>
      <trkpt lat="43.2174914796" lon="-2.0531433262">
        <ele>360.15</ele>
        <time>2019-02-14T16:38:05Z</time>
      </trkpt>
      <trkpt lat="43.2175397594" lon="-2.0531056914">
        <ele>360.15</ele>
        <time>2019-02-14T16:38:06Z</time>
      </trkpt>
      <trkpt lat="43.2175907213" lon="-2.0530643687">
        <ele>359.67</ele>
        <time>2019-02-14T16:38:07Z</time>
      </trkpt>
      <trkpt lat="43.2176470477" lon="-2.0530119818">
        <ele>359.67</ele>
        <time>2019-02-14T16:38:08Z</time>
      </trkpt>
      <trkpt lat="43.2176980097" lon="-2.0529495366">
        <ele>359.67</ele>
        <time>2019-02-14T16:38:09Z</time>
      </trkpt>
      <trkpt lat="43.2177376561" lon="-2.0528787095">
        <ele>359.67</ele>
        <time>2019-02-14T16:38:10Z</time>
      </trkpt>
      <trkpt lat="43.2177700941" lon="-2.0528095588">
        <ele>359.19</ele>
        <time>2019-02-14T16:38:11Z</time>
      </trkpt>
      <trkpt lat="43.2177896239" lon="-2.0527407434">
        <ele>359.19</ele>
        <time>2019-02-14T16:38:12Z</time>
      </trkpt>
      <trkpt lat="43.2177975867" lon="-2.0526665635">
        <ele>358.71</ele>
        <time>2019-02-14T16:38:13Z</time>
      </trkpt>
      <trkpt lat="43.2177957427" lon="-2.0525870193">
        <ele>358.23</ele>
        <time>2019-02-14T16:38:14Z</time>
      </trkpt>
      <trkpt lat="43.2177843433" lon="-2.0525032002">
        <ele>357.75</ele>
        <time>2019-02-14T16:38:15Z</time>
      </trkpt>
      <trkpt lat="43.2177730277" lon="-2.0524126757">
        <ele>357.27</ele>
        <time>2019-02-14T16:38:16Z</time>
      </trkpt>
      <trkpt lat="43.2177671604" lon="-2.0523141883">
        <ele>356.31</ele>
        <time>2019-02-14T16:38:17Z</time>
      </trkpt>
      <trkpt lat="43.2177633047" lon="-2.0522129349">
        <ele>355.83</ele>
        <time>2019-02-14T16:38:18Z</time>
      </trkpt>
      <trkpt lat="43.2177679986" lon="-2.0521208178">
        <ele>355.34</ele>
        <time>2019-02-14T16:38:19Z</time>
      </trkpt>
      <trkpt lat="43.2177719381" lon="-2.0519553591">
        <ele>353.90</ele>
        <time>2019-02-14T16:38:21Z</time>
      </trkpt>
      <trkpt lat="43.2177535817" lon="-2.0518712047">
        <ele>353.42</ele>
        <time>2019-02-14T16:38:22Z</time>
      </trkpt>
      <trkpt lat="43.2176260091" lon="-2.0514550433">
        <ele>351.02</ele>
        <time>2019-02-14T16:38:27Z</time>
      </trkpt>
      <trkpt lat="43.2175923977" lon="-2.0513868146">
        <ele>351.02</ele>
        <time>2019-02-14T16:38:28Z</time>
      </trkpt>
      <trkpt lat="43.2175573613" lon="-2.0513229445">
        <ele>351.02</ele>
        <time>2019-02-14T16:38:29Z</time>
      </trkpt>
      <trkpt lat="43.2175297011" lon="-2.0512513630">
        <ele>350.54</ele>
        <time>2019-02-14T16:38:30Z</time>
      </trkpt>
      <trkpt lat="43.2175152004" lon="-2.0511708129">
        <ele>350.06</ele>
        <time>2019-02-14T16:38:31Z</time>
      </trkpt>
      <trkpt lat="43.2175130211" lon="-2.0510890894">
        <ele>349.58</ele>
        <time>2019-02-14T16:38:32Z</time>
      </trkpt>
      <trkpt lat="43.2175193075" lon="-2.0510081202">
        <ele>349.58</ele>
        <time>2019-02-14T16:38:33Z</time>
      </trkpt>
      <trkpt lat="43.2175179664" lon="-2.0509280730">
        <ele>349.58</ele>
        <time>2019-02-14T16:38:34Z</time>
      </trkpt>
      <trkpt lat="43.2174965926" lon="-2.0508483611">
        <ele>349.58</ele>
        <time>2019-02-14T16:38:35Z</time>
      </trkpt>
      <trkpt lat="43.2173231710" lon="-2.0505522285">
        <ele>349.58</ele>
        <time>2019-02-14T16:38:39Z</time>
      </trkpt>
      <trkpt lat="43.2172476500" lon="-2.0505431760">
        <ele>349.58</ele>
        <time>2019-02-14T16:38:40Z</time>
      </trkpt>
      <trkpt lat="43.2171264477" lon="-2.0505331177">
        <ele>348.62</ele>
        <time>2019-02-14T16:38:42Z</time>
      </trkpt>
      <trkpt lat="43.2170859631" lon="-2.0505134203">
        <ele>347.65</ele>
        <time>2019-02-14T16:38:43Z</time>
      </trkpt>
      <trkpt lat="43.2170571294" lon="-2.0504837483">
        <ele>346.69</ele>
        <time>2019-02-14T16:38:44Z</time>
      </trkpt>
      <trkpt lat="43.2170045748" lon="-2.0503853448">
        <ele>344.77</ele>
        <time>2019-02-14T16:38:46Z</time>
      </trkpt>
      <trkpt lat="43.2169837039" lon="-2.0503095724">
        <ele>344.29</ele>
        <time>2019-02-14T16:38:47Z</time>
      </trkpt>
      <trkpt lat="43.2169684488" lon="-2.0502234902">
        <ele>343.81</ele>
        <time>2019-02-14T16:38:48Z</time>
      </trkpt>
      <trkpt lat="43.2169560436" lon="-2.0501245838">
        <ele>343.33</ele>
        <time>2019-02-14T16:38:49Z</time>
      </trkpt>
      <trkpt lat="43.2169436384" lon="-2.0500265993">
        <ele>343.33</ele>
        <time>2019-02-14T16:38:50Z</time>
      </trkpt>
      <trkpt lat="43.2169311494" lon="-2.0499334764">
        <ele>342.85</ele>
        <time>2019-02-14T16:38:51Z</time>
      </trkpt>
      <trkpt lat="43.2169223484" lon="-2.0498382580">
        <ele>342.85</ele>
        <time>2019-02-14T16:38:52Z</time>
      </trkpt>
      <trkpt lat="43.2169177383" lon="-2.0497407764">
        <ele>342.37</ele>
        <time>2019-02-14T16:38:53Z</time>
      </trkpt>
      <trkpt lat="43.2169169839" lon="-2.0496531017">
        <ele>342.37</ele>
        <time>2019-02-14T16:38:54Z</time>
      </trkpt>
      <trkpt lat="43.2169233542" lon="-2.0495798439">
        <ele>341.89</ele>
        <time>2019-02-14T16:38:55Z</time>
      </trkpt>
      <trkpt lat="43.2169378549" lon="-2.0495190751">
        <ele>342.37</ele>
        <time>2019-02-14T16:38:56Z</time>
      </trkpt>
      <trkpt lat="43.2169951033" lon="-2.0493098628">
        <ele>343.81</ele>
        <time>2019-02-14T16:38:59Z</time>
      </trkpt>
      <trkpt lat="43.2170182373" lon="-2.0492358506">
        <ele>344.77</ele>
        <time>2019-02-14T16:39:00Z</time>
      </trkpt>
      <trkpt lat="43.2170316484" lon="-2.0491642691">
        <ele>345.25</ele>
        <time>2019-02-14T16:39:01Z</time>
      </trkpt>
      <trkpt lat="43.2170337439" lon="-2.0490953699">
        <ele>345.73</ele>
        <time>2019-02-14T16:39:02Z</time>
      </trkpt>
      <trkpt lat="43.2170343306" lon="-2.0490290690">
        <ele>346.69</ele>
        <time>2019-02-14T16:39:03Z</time>
      </trkpt>
      <trkpt lat="43.2170292176" lon="-2.0489592478">
        <ele>347.17</ele>
        <time>2019-02-14T16:39:04Z</time>
      </trkpt>
      <trkpt lat="43.2170163933" lon="-2.0488799550">
        <ele>347.65</ele>
        <time>2019-02-14T16:39:05Z</time>
      </trkpt>
      <trkpt lat="43.2169976179" lon="-2.0486185234">
        <ele>349.58</ele>
        <time>2019-02-14T16:39:08Z</time>
      </trkpt>
      <trkpt lat="43.2169955224" lon="-2.0485438406">
        <ele>350.06</ele>
        <time>2019-02-14T16:39:09Z</time>
      </trkpt>
      <trkpt lat="43.2169106137" lon="-2.0483752806">
        <ele>350.06</ele>
        <time>2019-02-14T16:39:12Z</time>
      </trkpt>
      <trkpt lat="43.2168698777" lon="-2.0483641326">
        <ele>350.06</ele>
        <time>2019-02-14T16:39:13Z</time>
      </trkpt>
      <trkpt lat="43.2168356795" lon="-2.0483738557">
        <ele>350.06</ele>
        <time>2019-02-14T16:39:14Z</time>
      </trkpt>
      <trkpt lat="43.2168061752" lon="-2.0483943075">
        <ele>350.54</ele>
        <time>2019-02-14T16:39:15Z</time>
      </trkpt>
      <trkpt lat="43.2167878188" lon="-2.0484160166">
        <ele>350.54</ele>
        <time>2019-02-14T16:39:16Z</time>
      </trkpt>
      <trkpt lat="43.2167866454" lon="-2.0486146677">
        <ele>346.21</ele>
        <time>2019-02-14T16:39:19Z</time>
      </trkpt>
      <trkpt lat="43.2168042473" lon="-2.0487712417">
        <ele>338.04</ele>
        <time>2019-02-14T16:39:20Z</time>
      </trkpt>
      <trkpt lat="43.2168027386" lon="-2.0488548931">
        <ele>334.68</ele>
        <time>2019-02-14T16:39:21Z</time>
      </trkpt>
      <trkpt lat="43.2167853042" lon="-2.0489126444">
        <ele>332.75</ele>
        <time>2019-02-14T16:39:22Z</time>
      </trkpt>
      <trkpt lat="43.2167572249" lon="-2.0489517879">
        <ele>331.79</ele>
        <time>2019-02-14T16:39:23Z</time>
      </trkpt>
      <trkpt lat="43.2166933548" lon="-2.0489425678">
        <ele>326.50</ele>
        <time>2019-02-14T16:39:26Z</time>
      </trkpt>
      <trkpt lat="43.2166986354" lon="-2.0488887560">
        <ele>324.58</ele>
        <time>2019-02-14T16:39:27Z</time>
      </trkpt>
      <trkpt lat="43.2166983839" lon="-2.0488526300">
        <ele>322.66</ele>
        <time>2019-02-14T16:39:28Z</time>
      </trkpt>
      <trkpt lat="43.2166900020" lon="-2.0487968903">
        <ele>321.22</ele>
        <time>2019-02-14T16:39:29Z</time>
      </trkpt>
      <trkpt lat="43.2165924367" lon="-2.0486707427">
        <ele>315.93</ele>
        <time>2019-02-14T16:39:32Z</time>
      </trkpt>
      <trkpt lat="43.2162859943" lon="-2.0485215448">
        <ele>307.76</ele>
        <time>2019-02-14T16:39:37Z</time>
      </trkpt>
      <trkpt lat="43.2159348764" lon="-2.0482462831">
        <ele>299.59</ele>
        <time>2019-02-14T16:39:42Z</time>
      </trkpt>
      <trkpt lat="43.2158247381" lon="-2.0480462071">
        <ele>290.46</ele>
        <time>2019-02-14T16:39:46Z</time>
      </trkpt>
      <trkpt lat="43.2158310246" lon="-2.0480113383">
        <ele>288.53</ele>
        <time>2019-02-14T16:39:47Z</time>
      </trkpt>
      <trkpt lat="43.2158762030" lon="-2.0479245856">
        <ele>287.09</ele>
        <time>2019-02-14T16:39:49Z</time>
      </trkpt>
      <trkpt lat="43.2159107365" lon="-2.0478853583">
        <ele>287.57</ele>
        <time>2019-02-14T16:39:50Z</time>
      </trkpt>
      <trkpt lat="43.2160282508" lon="-2.0477637369">
        <ele>288.05</ele>
        <time>2019-02-14T16:39:53Z</time>
      </trkpt>
      <trkpt lat="43.2160656340" lon="-2.0477072429">
        <ele>288.05</ele>
        <time>2019-02-14T16:39:54Z</time>
      </trkpt>
      <trkpt lat="43.2163455058" lon="-2.0471557975">
        <ele>285.65</ele>
        <time>2019-02-14T16:40:02Z</time>
      </trkpt>
      <trkpt lat="43.2164190989" lon="-2.0469536260">
        <ele>281.80</ele>
        <time>2019-02-14T16:40:05Z</time>
      </trkpt>
      <trkpt lat="43.2164227031" lon="-2.0468827989">
        <ele>280.36</ele>
        <time>2019-02-14T16:40:06Z</time>
      </trkpt>
      <trkpt lat="43.2164147403" lon="-2.0468121395">
        <ele>279.40</ele>
        <time>2019-02-14T16:40:07Z</time>
      </trkpt>
      <trkpt lat="43.2164076157" lon="-2.0467358641">
        <ele>277.96</ele>
        <time>2019-02-14T16:40:08Z</time>
      </trkpt>
      <trkpt lat="43.2164028380" lon="-2.0466443338">
        <ele>277.48</ele>
        <time>2019-02-14T16:40:09Z</time>
      </trkpt>
      <trkpt lat="43.2164043467" lon="-2.0465554856">
        <ele>276.04</ele>
        <time>2019-02-14T16:40:10Z</time>
      </trkpt>
      <trkpt lat="43.2164152432" lon="-2.0464751869">
        <ele>275.07</ele>
        <time>2019-02-14T16:40:11Z</time>
      </trkpt>
      <trkpt lat="43.2164365333" lon="-2.0464003365">
        <ele>274.59</ele>
        <time>2019-02-14T16:40:12Z</time>
      </trkpt>
      <trkpt lat="43.2164607570" lon="-2.0463425014">
        <ele>274.11</ele>
        <time>2019-02-14T16:40:13Z</time>
      </trkpt>
      <trkpt lat="43.2164847292" lon="-2.0462944731">
        <ele>274.11</ele>
        <time>2019-02-14T16:40:14Z</time>
      </trkpt>
      <trkpt lat="43.2165113837" lon="-2.0462551620">
        <ele>273.63</ele>
        <time>2019-02-14T16:40:15Z</time>
      </trkpt>
      <trkpt lat="43.2165382057" lon="-2.0462280046">
        <ele>273.15</ele>
        <time>2019-02-14T16:40:16Z</time>
      </trkpt>
      <trkpt lat="43.2166293170" lon="-2.0461262483">
        <ele>269.31</ele>
        <time>2019-02-14T16:40:19Z</time>
      </trkpt>
      <trkpt lat="43.2166490145" lon="-2.0460707601">
        <ele>268.35</ele>
        <time>2019-02-14T16:40:20Z</time>
      </trkpt>
      <trkpt lat="43.2166575640" lon="-2.0460233185">
        <ele>266.90</ele>
        <time>2019-02-14T16:40:21Z</time>
      </trkpt>
      <trkpt lat="43.2166663650" lon="-2.0459099114">
        <ele>264.50</ele>
        <time>2019-02-14T16:40:23Z</time>
      </trkpt>
      <trkpt lat="43.2166552171" lon="-2.0458435267">
        <ele>263.54</ele>
        <time>2019-02-14T16:40:24Z</time>
      </trkpt>
      <trkpt lat="43.2166315801" lon="-2.0457848534">
        <ele>262.10</ele>
        <time>2019-02-14T16:40:25Z</time>
      </trkpt>
      <trkpt lat="43.2166055124" lon="-2.0457246713">
        <ele>261.14</ele>
        <time>2019-02-14T16:40:26Z</time>
      </trkpt>
      <trkpt lat="43.2165876590" lon="-2.0456604660">
        <ele>259.69</ele>
        <time>2019-02-14T16:40:27Z</time>
      </trkpt>
      <trkpt lat="43.2165701408" lon="-2.0455933269">
        <ele>257.29</ele>
        <time>2019-02-14T16:40:28Z</time>
      </trkpt>
      <trkpt lat="43.2165576518" lon="-2.0455268584">
        <ele>255.85</ele>
        <time>2019-02-14T16:40:29Z</time>
      </trkpt>
      <trkpt lat="43.2165538799" lon="-2.0454581268">
        <ele>253.93</ele>
        <time>2019-02-14T16:40:30Z</time>
      </trkpt>
      <trkpt lat="43.2165593281" lon="-2.0453876350">
        <ele>252.48</ele>
        <time>2019-02-14T16:40:31Z</time>
      </trkpt>
      <trkpt lat="43.2165718172" lon="-2.0453218371">
        <ele>251.52</ele>
        <time>2019-02-14T16:40:32Z</time>
      </trkpt>
      <trkpt lat="43.2165869884" lon="-2.0452633314">
        <ele>251.04</ele>
        <time>2019-02-14T16:40:33Z</time>
      </trkpt>
      <trkpt lat="43.2166081946" lon="-2.0452091005">
        <ele>250.56</ele>
        <time>2019-02-14T16:40:34Z</time>
      </trkpt>
      <trkpt lat="43.2166653592" lon="-2.0451039914">
        <ele>250.56</ele>
        <time>2019-02-14T16:40:36Z</time>
      </trkpt>
      <trkpt lat="43.2166917622" lon="-2.0450536162">
        <ele>250.56</ele>
        <time>2019-02-14T16:40:37Z</time>
      </trkpt>
      <trkpt lat="43.2167059276" lon="-2.0449987147">
        <ele>250.56</ele>
        <time>2019-02-14T16:40:38Z</time>
      </trkpt>
      <trkpt lat="43.2167106215" lon="-2.0449397061">
        <ele>251.04</ele>
        <time>2019-02-14T16:40:39Z</time>
      </trkpt>
      <trkpt lat="43.2167099509" lon="-2.0448855590">
        <ele>251.04</ele>
        <time>2019-02-14T16:40:40Z</time>
      </trkpt>
      <trkpt lat="43.2167091966" lon="-2.0448338427">
        <ele>251.04</ele>
        <time>2019-02-14T16:40:41Z</time>
      </trkpt>
      <trkpt lat="43.2167242840" lon="-2.0446425676">
        <ele>245.27</ele>
        <time>2019-02-14T16:40:50Z</time>
      </trkpt>
      <trkpt lat="43.2167389523" lon="-2.0446270611">
        <ele>242.39</ele>
        <time>2019-02-14T16:40:52Z</time>
      </trkpt>
      <trkpt lat="43.2167401258" lon="-2.0446119737">
        <ele>241.43</ele>
        <time>2019-02-14T16:40:53Z</time>
      </trkpt>
      <trkpt lat="43.2167425565" lon="-2.0445946231">
        <ele>239.51</ele>
        <time>2019-02-14T16:40:54Z</time>
      </trkpt>
      <trkpt lat="43.2167570572" lon="-2.0443494525">
        <ele>230.85</ele>
        <time>2019-02-14T16:40:59Z</time>
      </trkpt>
      <trkpt lat="43.2167583983" lon="-2.0442902762">
        <ele>229.41</ele>
        <time>2019-02-14T16:41:00Z</time>
      </trkpt>
      <trkpt lat="43.2167759165" lon="-2.0441834070">
        <ele>227.01</ele>
        <time>2019-02-14T16:41:02Z</time>
      </trkpt>
      <trkpt lat="43.2168186642" lon="-2.0438897051">
        <ele>221.72</ele>
        <time>2019-02-14T16:41:09Z</time>
      </trkpt>
      <trkpt lat="43.2168604061" lon="-2.0433194004">
        <ele>215.95</ele>
        <time>2019-02-14T16:41:19Z</time>
      </trkpt>
      <trkpt lat="43.2168823667" lon="-2.0432221703">
        <ele>212.59</ele>
        <time>2019-02-14T16:41:25Z</time>
      </trkpt>
      <trkpt lat="43.2168743201" lon="-2.0431888942">
        <ele>211.15</ele>
        <time>2019-02-14T16:41:26Z</time>
      </trkpt>
      <trkpt lat="43.2168715540" lon="-2.0431382675">
        <ele>209.70</ele>
        <time>2019-02-14T16:41:27Z</time>
      </trkpt>
      <trkpt lat="43.2168751583" lon="-2.0430774149">
        <ele>208.26</ele>
        <time>2019-02-14T16:41:28Z</time>
      </trkpt>
      <trkpt lat="43.2168826181" lon="-2.0430201665">
        <ele>206.82</ele>
        <time>2019-02-14T16:41:29Z</time>
      </trkpt>
      <trkpt lat="43.2168822829" lon="-2.0429670252">
        <ele>206.34</ele>
        <time>2019-02-14T16:41:30Z</time>
      </trkpt>
      <trkpt lat="43.2168711349" lon="-2.0429221820">
        <ele>205.38</ele>
        <time>2019-02-14T16:41:31Z</time>
      </trkpt>
      <trkpt lat="43.2168388646" lon="-2.0428760815">
        <ele>204.42</ele>
        <time>2019-02-14T16:41:32Z</time>
      </trkpt>
      <trkpt lat="43.2168047503" lon="-2.0428338367">
        <ele>203.94</ele>
        <time>2019-02-14T16:41:33Z</time>
      </trkpt>
      <trkpt lat="43.2167739887" lon="-2.0427728165">
        <ele>202.98</ele>
        <time>2019-02-14T16:41:34Z</time>
      </trkpt>
      <trkpt lat="43.2167527825" lon="-2.0426848065">
        <ele>202.49</ele>
        <time>2019-02-14T16:41:35Z</time>
      </trkpt>
      <trkpt lat="43.2167483401" lon="-2.0425840560">
        <ele>200.09</ele>
        <time>2019-02-14T16:41:36Z</time>
      </trkpt>
      <trkpt lat="43.2167525310" lon="-2.0424751751">
        <ele>198.17</ele>
        <time>2019-02-14T16:41:37Z</time>
      </trkpt>
      <trkpt lat="43.2167601585" lon="-2.0423573256">
        <ele>196.25</ele>
        <time>2019-02-14T16:41:38Z</time>
      </trkpt>
      <trkpt lat="43.2167563029" lon="-2.0413838513">
        <ele>188.08</ele>
        <time>2019-02-14T16:41:46Z</time>
      </trkpt>
      <trkpt lat="43.2167303190" lon="-2.0412764791">
        <ele>187.11</ele>
        <time>2019-02-14T16:41:47Z</time>
      </trkpt>
      <trkpt lat="43.2166672871" lon="-2.0410521794">
        <ele>185.19</ele>
        <time>2019-02-14T16:41:49Z</time>
      </trkpt>
      <trkpt lat="43.2165201847" lon="-2.0405946951">
        <ele>179.90</ele>
        <time>2019-02-14T16:41:53Z</time>
      </trkpt>
      <trkpt lat="43.2164992299" lon="-2.0404593274">
        <ele>178.46</ele>
        <time>2019-02-14T16:41:54Z</time>
      </trkpt>
      <trkpt lat="43.2164866570" lon="-2.0403086208">
        <ele>177.02</ele>
        <time>2019-02-14T16:41:55Z</time>
      </trkpt>
      <trkpt lat="43.2165568136" lon="-2.0390572865">
        <ele>165.00</ele>
        <time>2019-02-14T16:42:03Z</time>
      </trkpt>
      <trkpt lat="43.2165915146" lon="-2.0386886504">
        <ele>160.68</ele>
        <time>2019-02-14T16:42:06Z</time>
      </trkpt>
      <trkpt lat="43.2166239526" lon="-2.0385718904">
        <ele>159.24</ele>
        <time>2019-02-14T16:42:07Z</time>
      </trkpt>
      <trkpt lat="43.2166730706" lon="-2.0384609979">
        <ele>157.79</ele>
        <time>2019-02-14T16:42:08Z</time>
      </trkpt>
      <trkpt lat="43.2167281397" lon="-2.0383661985">
        <ele>155.87</ele>
        <time>2019-02-14T16:42:09Z</time>
      </trkpt>
      <trkpt lat="43.2167800236" lon="-2.0382822957">
        <ele>154.91</ele>
        <time>2019-02-14T16:42:10Z</time>
      </trkpt>
      <trkpt lat="43.2168549579" lon="-2.0381367858">
        <ele>152.51</ele>
        <time>2019-02-14T16:42:12Z</time>
      </trkpt>
      <trkpt lat="43.2168708835" lon="-2.0380630251">
        <ele>151.54</ele>
        <time>2019-02-14T16:42:13Z</time>
      </trkpt>
      <trkpt lat="43.2168710511" lon="-2.0379685611">
        <ele>150.58</ele>
        <time>2019-02-14T16:42:14Z</time>
      </trkpt>
      <trkpt lat="43.2166979648" lon="-2.0371925645">
        <ele>142.41</ele>
        <time>2019-02-14T16:42:21Z</time>
      </trkpt>
      <trkpt lat="43.2166390400" lon="-2.0370730385">
        <ele>141.45</ele>
        <time>2019-02-14T16:42:22Z</time>
      </trkpt>
      <trkpt lat="43.2165788580" lon="-2.0369491540">
        <ele>140.49</ele>
        <time>2019-02-14T16:42:23Z</time>
      </trkpt>
      <trkpt lat="43.2165250462" lon="-2.0368178096">
        <ele>139.05</ele>
        <time>2019-02-14T16:42:24Z</time>
      </trkpt>
      <trkpt lat="43.2164783590" lon="-2.0366878901">
        <ele>138.09</ele>
        <time>2019-02-14T16:42:25Z</time>
      </trkpt>
      <trkpt lat="43.2159691583" lon="-2.0355244819">
        <ele>127.99</ele>
        <time>2019-02-14T16:42:35Z</time>
      </trkpt>
      <trkpt lat="43.2158880215" lon="-2.0353663992">
        <ele>127.03</ele>
        <time>2019-02-14T16:42:37Z</time>
      </trkpt>
      <trkpt lat="43.2158700004" lon="-2.0352863520">
        <ele>126.55</ele>
        <time>2019-02-14T16:42:38Z</time>
      </trkpt>
      <trkpt lat="43.2158639655" lon="-2.0351964980">
        <ele>125.59</ele>
        <time>2019-02-14T16:42:39Z</time>
      </trkpt>
      <trkpt lat="43.2158665638" lon="-2.0350985974">
        <ele>125.11</ele>
        <time>2019-02-14T16:42:40Z</time>
      </trkpt>
      <trkpt lat="43.2158737723" lon="-2.0350002777">
        <ele>124.15</ele>
        <time>2019-02-14T16:42:41Z</time>
      </trkpt>
      <trkpt lat="43.2159176935" lon="-2.0337753464">
        <ele>115.98</ele>
        <time>2019-02-14T16:42:53Z</time>
      </trkpt>
      <trkpt lat="43.2158915419" lon="-2.0331617072">
        <ele>110.69</ele>
        <time>2019-02-14T16:42:59Z</time>
      </trkpt>
      <trkpt lat="43.2158825733" lon="-2.0331007708">
        <ele>109.73</ele>
        <time>2019-02-14T16:43:00Z</time>
      </trkpt>
      <trkpt lat="43.2158673182" lon="-2.0330564305">
        <ele>109.25</ele>
        <time>2019-02-14T16:43:01Z</time>
      </trkpt>
      <trkpt lat="43.2158360537" lon="-2.0330104139">
        <ele>108.77</ele>
        <time>2019-02-14T16:43:02Z</time>
      </trkpt>
      <trkpt lat="43.2158010174" lon="-2.0329788141">
        <ele>108.29</ele>
        <time>2019-02-14T16:43:03Z</time>
      </trkpt>
      <trkpt lat="43.2157567609" lon="-2.0329488907">
        <ele>107.81</ele>
        <time>2019-02-14T16:43:04Z</time>
      </trkpt>
      <trkpt lat="43.2156984229" lon="-2.0329130162">
        <ele>106.84</ele>
        <time>2019-02-14T16:43:05Z</time>
      </trkpt>
      <trkpt lat="43.2153839339" lon="-2.0326569490">
        <ele>104.92</ele>
        <time>2019-02-14T16:43:10Z</time>
      </trkpt>
      <trkpt lat="43.2153383363" lon="-2.0325919054">
        <ele>105.40</ele>
        <time>2019-02-14T16:43:11Z</time>
      </trkpt>
      <trkpt lat="43.2153036352" lon="-2.0325195696">
        <ele>105.40</ele>
        <time>2019-02-14T16:43:12Z</time>
      </trkpt>
      <trkpt lat="43.2152820937" lon="-2.0324424561">
        <ele>105.88</ele>
        <time>2019-02-14T16:43:13Z</time>
      </trkpt>
      <trkpt lat="43.2152695209" lon="-2.0323639177">
        <ele>105.88</ele>
        <time>2019-02-14T16:43:14Z</time>
      </trkpt>
      <trkpt lat="43.2152627315" lon="-2.0322829485">
        <ele>105.88</ele>
        <time>2019-02-14T16:43:15Z</time>
      </trkpt>
      <trkpt lat="43.2151703630" lon="-2.0310617890">
        <ele>104.92</ele>
        <time>2019-02-14T16:43:28Z</time>
      </trkpt>
      <trkpt lat="43.2151763141" lon="-2.0309761260">
        <ele>105.40</ele>
        <time>2019-02-14T16:43:29Z</time>
      </trkpt>
      <trkpt lat="43.2152644079" lon="-2.0304380078">
        <ele>104.44</ele>
        <time>2019-02-14T16:43:35Z</time>
      </trkpt>
      <trkpt lat="43.2152947504" lon="-2.0303550269">
        <ele>103.96</ele>
        <time>2019-02-14T16:43:36Z</time>
      </trkpt>
      <trkpt lat="43.2153332233" lon="-2.0302767400">
        <ele>103.96</ele>
        <time>2019-02-14T16:43:37Z</time>
      </trkpt>
      <trkpt lat="43.2153782342" lon="-2.0302023925">
        <ele>103.48</ele>
        <time>2019-02-14T16:43:38Z</time>
      </trkpt>
      <trkpt lat="43.2154309563" lon="-2.0301309787">
        <ele>103.00</ele>
        <time>2019-02-14T16:43:39Z</time>
      </trkpt>
      <trkpt lat="43.2154908869" lon="-2.0300639234">
        <ele>102.52</ele>
        <time>2019-02-14T16:43:40Z</time>
      </trkpt>
      <trkpt lat="43.2155585289" lon="-2.0300000533">
        <ele>101.56</ele>
        <time>2019-02-14T16:43:41Z</time>
      </trkpt>
      <trkpt lat="43.2157006860" lon="-2.0298462454">
        <ele>100.11</ele>
        <time>2019-02-14T16:43:43Z</time>
      </trkpt>
      <trkpt lat="43.2157652266" lon="-2.0297512785">
        <ele>99.15</ele>
        <time>2019-02-14T16:43:44Z</time>
      </trkpt>
      <trkpt lat="43.2163712382" lon="-2.0286964998">
        <ele>91.46</ele>
        <time>2019-02-14T16:43:54Z</time>
      </trkpt>
      <trkpt lat="43.2167017367" lon="-2.0277746581">
        <ele>82.81</ele>
        <time>2019-02-14T16:44:02Z</time>
      </trkpt>
      <trkpt lat="43.2167589013" lon="-2.0276988018">
        <ele>81.85</ele>
        <time>2019-02-14T16:44:03Z</time>
      </trkpt>
      <trkpt lat="43.2168288063" lon="-2.0276395418">
        <ele>80.89</ele>
        <time>2019-02-14T16:44:04Z</time>
      </trkpt>
      <trkpt lat="43.2169134635" lon="-2.0275961235">
        <ele>79.45</ele>
        <time>2019-02-14T16:44:05Z</time>
      </trkpt>
      <trkpt lat="43.2170138787" lon="-2.0275734924">
        <ele>78.00</ele>
        <time>2019-02-14T16:44:06Z</time>
      </trkpt>
      <trkpt lat="43.2171241008" lon="-2.0275687985">
        <ele>76.56</ele>
        <time>2019-02-14T16:44:07Z</time>
      </trkpt>
      <trkpt lat="43.2172409445" lon="-2.0275673736">
        <ele>74.64</ele>
        <time>2019-02-14T16:44:08Z</time>
      </trkpt>
      <trkpt lat="43.2180431765" lon="-2.0274356939">
        <ele>61.66</ele>
        <time>2019-02-14T16:44:16Z</time>
      </trkpt>
      <trkpt lat="43.2182099763" lon="-2.0273866598">
        <ele>58.30</ele>
        <time>2019-02-14T16:44:19Z</time>
      </trkpt>
      <trkpt lat="43.2182535622" lon="-2.0273458399">
        <ele>57.34</ele>
        <time>2019-02-14T16:44:20Z</time>
      </trkpt>
      <trkpt lat="43.2182856649" lon="-2.0272871666">
        <ele>56.37</ele>
        <time>2019-02-14T16:44:21Z</time>
      </trkpt>
      <trkpt lat="43.2183082122" lon="-2.0272141602">
        <ele>55.89</ele>
        <time>2019-02-14T16:44:22Z</time>
      </trkpt>
      <trkpt lat="43.2183264848" lon="-2.0271262340">
        <ele>55.41</ele>
        <time>2019-02-14T16:44:23Z</time>
      </trkpt>
      <trkpt lat="43.2183486968" lon="-2.0270330273">
        <ele>54.45</ele>
        <time>2019-02-14T16:44:24Z</time>
      </trkpt>
      <trkpt lat="43.2183787879" lon="-2.0269407425">
        <ele>53.97</ele>
        <time>2019-02-14T16:44:25Z</time>
      </trkpt>
      <trkpt lat="43.2184123155" lon="-2.0268427581">
        <ele>53.49</ele>
        <time>2019-02-14T16:44:26Z</time>
      </trkpt>
      <trkpt lat="43.2184374612" lon="-2.0267436001">
        <ele>52.53</ele>
        <time>2019-02-14T16:44:27Z</time>
      </trkpt>
      <trkpt lat="43.2184484415" lon="-2.0266381558">
        <ele>52.05</ele>
        <time>2019-02-14T16:44:28Z</time>
      </trkpt>
      <trkpt lat="43.2184419874" lon="-2.0265331306">
        <ele>51.09</ele>
        <time>2019-02-14T16:44:29Z</time>
      </trkpt>
      <trkpt lat="43.2184165902" lon="-2.0264333021">
        <ele>50.13</ele>
        <time>2019-02-14T16:44:30Z</time>
      </trkpt>
      <trkpt lat="43.2183741778" lon="-2.0263452921">
        <ele>49.16</ele>
        <time>2019-02-14T16:44:31Z</time>
      </trkpt>
      <trkpt lat="43.2183148339" lon="-2.0262712799">
        <ele>48.20</ele>
        <time>2019-02-14T16:44:32Z</time>
      </trkpt>
      <trkpt lat="43.2182421628" lon="-2.0262121037">
        <ele>47.72</ele>
        <time>2019-02-14T16:44:33Z</time>
      </trkpt>
      <trkpt lat="43.2181738503" lon="-2.0261623152">
        <ele>46.76</ele>
        <time>2019-02-14T16:44:34Z</time>
      </trkpt>
      <trkpt lat="43.2181190327" lon="-2.0261077490">
        <ele>46.28</ele>
        <time>2019-02-14T16:44:35Z</time>
      </trkpt>
      <trkpt lat="43.2180838287" lon="-2.0260467287">
        <ele>46.28</ele>
        <time>2019-02-14T16:44:36Z</time>
      </trkpt>
      <trkpt lat="43.2180726808" lon="-2.0259613171">
        <ele>45.80</ele>
        <time>2019-02-14T16:44:37Z</time>
      </trkpt>
      <trkpt lat="43.2180967368" lon="-2.0258695353">
        <ele>45.32</ele>
        <time>2019-02-14T16:44:38Z</time>
      </trkpt>
      <trkpt lat="43.2181302644" lon="-2.0258167293">
        <ele>44.84</ele>
        <time>2019-02-14T16:44:39Z</time>
      </trkpt>
      <trkpt lat="43.2181719225" lon="-2.0257654320">
        <ele>44.36</ele>
        <time>2019-02-14T16:44:40Z</time>
      </trkpt>
      <trkpt lat="43.2182144187" lon="-2.0257109497">
        <ele>43.88</ele>
        <time>2019-02-14T16:44:41Z</time>
      </trkpt>
      <trkpt lat="43.2182456832" lon="-2.0256587304">
        <ele>43.40</ele>
        <time>2019-02-14T16:44:42Z</time>
      </trkpt>
      <trkpt lat="43.2182674762" lon="-2.0256050862">
        <ele>42.92</ele>
        <time>2019-02-14T16:44:43Z</time>
      </trkpt>
      <trkpt lat="43.2182844914" lon="-2.0255429763">
        <ele>42.44</ele>
        <time>2019-02-14T16:44:44Z</time>
      </trkpt>
      <trkpt lat="43.2183084637" lon="-2.0254777651">
        <ele>41.95</ele>
        <time>2019-02-14T16:44:45Z</time>
      </trkpt>
      <trkpt lat="43.2183598448" lon="-2.0254002325">
        <ele>41.95</ele>
        <time>2019-02-14T16:44:46Z</time>
      </trkpt>
      <trkpt lat="43.2184014190" lon="-2.0253582392">
        <ele>41.47</ele>
        <time>2019-02-14T16:44:47Z</time>
      </trkpt>
      <trkpt lat="43.2184420712" lon="-2.0253231190">
        <ele>41.47</ele>
        <time>2019-02-14T16:44:48Z</time>
      </trkpt>
      <trkpt lat="43.2184952125" lon="-2.0252805389">
        <ele>41.47</ele>
        <time>2019-02-14T16:44:49Z</time>
      </trkpt>
      <trkpt lat="43.2188206818" lon="-2.0250766072">
        <ele>39.07</ele>
        <time>2019-02-14T16:44:54Z</time>
      </trkpt>
      <trkpt lat="43.2188920118" lon="-2.0250051934">
        <ele>38.59</ele>
        <time>2019-02-14T16:44:55Z</time>
      </trkpt>
      <trkpt lat="43.2189441472" lon="-2.0249352045">
        <ele>38.11</ele>
        <time>2019-02-14T16:44:56Z</time>
      </trkpt>
      <trkpt lat="43.2190003898" lon="-2.0248534810">
        <ele>37.63</ele>
        <time>2019-02-14T16:44:57Z</time>
      </trkpt>
      <trkpt lat="43.2190558780" lon="-2.0247780439">
        <ele>37.15</ele>
        <time>2019-02-14T16:44:58Z</time>
      </trkpt>
      <trkpt lat="43.2191028167" lon="-2.0246983320">
        <ele>36.67</ele>
        <time>2019-02-14T16:44:59Z</time>
      </trkpt>
      <trkpt lat="43.2193555310" lon="-2.0239223354">
        <ele>37.15</ele>
        <time>2019-02-14T16:45:11Z</time>
      </trkpt>
      <trkpt lat="43.2194525097" lon="-2.0236478280">
        <ele>37.15</ele>
        <time>2019-02-14T16:45:16Z</time>
      </trkpt>
      <trkpt lat="43.2194613107" lon="-2.0235958602">
        <ele>37.15</ele>
        <time>2019-02-14T16:45:17Z</time>
      </trkpt>
      <trkpt lat="43.2194662560" lon="-2.0235464908">
        <ele>36.67</ele>
        <time>2019-02-14T16:45:18Z</time>
      </trkpt>
      <trkpt lat="43.2194664236" lon="-2.0234997198">
        <ele>36.67</ele>
        <time>2019-02-14T16:45:19Z</time>
      </trkpt>
      <trkpt lat="43.2194714528" lon="-2.0234587323">
        <ele>36.67</ele>
        <time>2019-02-14T16:45:20Z</time>
      </trkpt>
      <trkpt lat="43.2194882166" lon="-2.0234303176">
        <ele>36.67</ele>
        <time>2019-02-14T16:45:21Z</time>
      </trkpt>
      <trkpt lat="43.2195114344" lon="-2.0234270487">
        <ele>37.15</ele>
        <time>2019-02-14T16:45:22Z</time>
      </trkpt>
      <trkpt lat="43.2195360772" lon="-2.0234559663">
        <ele>38.11</ele>
        <time>2019-02-14T16:45:23Z</time>
      </trkpt>
      <trkpt lat="43.2195586246" lon="-2.0234892424">
        <ele>38.59</ele>
        <time>2019-02-14T16:45:24Z</time>
      </trkpt>
      <trkpt lat="43.2199300267" lon="-2.0239670109">
        <ele>46.28</ele>
        <time>2019-02-14T16:45:37Z</time>
      </trkpt>
      <trkpt lat="43.2202047855" lon="-2.0245142654">
        <ele>53.01</ele>
        <time>2019-02-14T16:45:51Z</time>
      </trkpt>
      <trkpt lat="43.2204361260" lon="-2.0247919578">
        <ele>53.49</ele>
        <time>2019-02-14T16:46:03Z</time>
      </trkpt>
      <trkpt lat="43.2204462681" lon="-2.0248049498">
        <ele>53.49</ele>
        <time>2019-02-14T16:46:04Z</time>
      </trkpt>
      <trkpt lat="43.2204585057" lon="-2.0248176903">
        <ele>53.97</ele>
        <time>2019-02-14T16:46:05Z</time>
      </trkpt>
      <trkpt lat="43.2204750180" lon="-2.0248290058">
        <ele>54.45</ele>
        <time>2019-02-14T16:46:06Z</time>
      </trkpt>
      <trkpt lat="43.2204995770" lon="-2.0248378906">
        <ele>54.45</ele>
        <time>2019-02-14T16:46:07Z</time>
      </trkpt>
      <trkpt lat="43.2205269020" lon="-2.0248433389">
        <ele>54.45</ele>
        <time>2019-02-14T16:46:08Z</time>
      </trkpt>
      <trkpt lat="43.2210365217" lon="-2.0249556564">
        <ele>51.09</ele>
        <time>2019-02-14T16:46:18Z</time>
      </trkpt>
      <trkpt lat="43.2220526598" lon="-2.0252685528">
        <ele>49.65</ele>
        <time>2019-02-14T16:46:36Z</time>
      </trkpt>
      <trkpt lat="43.2226201985" lon="-2.0254242048">
        <ele>49.16</ele>
        <time>2019-02-14T16:46:49Z</time>
      </trkpt>
      <trkpt lat="43.2229970489" lon="-2.0254953671">
        <ele>49.65</ele>
        <time>2019-02-14T16:46:57Z</time>
      </trkpt>
      <trkpt lat="43.2230393775" lon="-2.0254968759">
        <ele>49.16</ele>
        <time>2019-02-14T16:46:58Z</time>
      </trkpt>
      <trkpt lat="43.2236595545" lon="-2.0254451595">
        <ele>48.20</ele>
        <time>2019-02-14T16:47:13Z</time>
      </trkpt>
      <trkpt lat="43.2237014640" lon="-2.0253922697">
        <ele>48.20</ele>
        <time>2019-02-14T16:47:16Z</time>
      </trkpt>
      <trkpt lat="43.2237198204" lon="-2.0253990591">
        <ele>48.20</ele>
        <time>2019-02-14T16:47:17Z</time>
      </trkpt>
      <trkpt lat="43.2237404399" lon="-2.0254076086">
        <ele>48.20</ele>
        <time>2019-02-14T16:47:18Z</time>
      </trkpt>
      <trkpt lat="43.2237589639" lon="-2.0254180860">
        <ele>48.20</ele>
        <time>2019-02-14T16:47:19Z</time>
      </trkpt>
      <trkpt lat="43.2237805892" lon="-2.0254287310">
        <ele>48.68</ele>
        <time>2019-02-14T16:47:20Z</time>
      </trkpt>
      <trkpt lat="43.2237986103" lon="-2.0254408848">
        <ele>48.68</ele>
        <time>2019-02-14T16:47:21Z</time>
      </trkpt>
      <trkpt lat="43.2238130271" lon="-2.0254450757">
        <ele>48.68</ele>
        <time>2019-02-14T16:47:22Z</time>
      </trkpt>
      <trkpt lat="43.2238292880" lon="-2.0254396275">
        <ele>49.16</ele>
        <time>2019-02-14T16:47:23Z</time>
      </trkpt>
      <trkpt lat="43.2238438725" lon="-2.0254236180">
        <ele>49.16</ele>
        <time>2019-02-14T16:47:24Z</time>
      </trkpt>
      <trkpt lat="43.2238522545" lon="-2.0253894199">
        <ele>49.16</ele>
        <time>2019-02-14T16:47:25Z</time>
      </trkpt>
      <trkpt lat="43.2238480635" lon="-2.0253527071">
        <ele>48.68</ele>
        <time>2019-02-14T16:47:26Z</time>
      </trkpt>
      <trkpt lat="43.2238396816" lon="-2.0253294054">
        <ele>48.68</ele>
        <time>2019-02-14T16:47:27Z</time>
      </trkpt>
      <trkpt lat="43.2238271926" lon="-2.0253072772">
        <ele>48.20</ele>
        <time>2019-02-14T16:47:28Z</time>
      </trkpt>
      <trkpt lat="43.2238210738" lon="-2.0252853166">
        <ele>47.72</ele>
        <time>2019-02-14T16:47:29Z</time>
      </trkpt>
      <trkpt lat="43.2238221634" lon="-2.0252565667">
        <ele>47.72</ele>
        <time>2019-02-14T16:47:30Z</time>
      </trkpt>
      <trkpt lat="43.2238221634" lon="-2.0252287388">
        <ele>47.24</ele>
        <time>2019-02-14T16:47:31Z</time>
      </trkpt>
      <trkpt lat="43.2238018792" lon="-2.0250653755">
        <ele>45.80</ele>
        <time>2019-02-14T16:47:40Z</time>
      </trkpt>
      <trkpt lat="43.2237715367" lon="-2.0250131562">
        <ele>45.80</ele>
        <time>2019-02-14T16:47:41Z</time>
      </trkpt>
      <trkpt lat="43.2237360813" lon="-2.0249528065">
        <ele>45.32</ele>
        <time>2019-02-14T16:47:42Z</time>
      </trkpt>
      <trkpt lat="43.2237012964" lon="-2.0248820633">
        <ele>44.84</ele>
        <time>2019-02-14T16:47:43Z</time>
      </trkpt>
      <trkpt lat="43.2236681879" lon="-2.0248005074">
        <ele>44.36</ele>
        <time>2019-02-14T16:47:44Z</time>
      </trkpt>
      <trkpt lat="43.2236406952" lon="-2.0247122459">
        <ele>43.88</ele>
        <time>2019-02-14T16:47:45Z</time>
      </trkpt>
      <trkpt lat="43.2236162201" lon="-2.0246179495">
        <ele>43.88</ele>
        <time>2019-02-14T16:47:46Z</time>
      </trkpt>
      <trkpt lat="43.2235962711" lon="-2.0245275926">
        <ele>43.40</ele>
        <time>2019-02-14T16:47:47Z</time>
      </trkpt>
      <trkpt lat="43.2235522661" lon="-2.0243584458">
        <ele>43.40</ele>
        <time>2019-02-14T16:47:49Z</time>
      </trkpt>
      <trkpt lat="43.2235238515" lon="-2.0242800750">
        <ele>43.40</ele>
        <time>2019-02-14T16:47:50Z</time>
      </trkpt>
      <trkpt lat="43.2234992087" lon="-2.0241950825">
        <ele>42.92</ele>
        <time>2019-02-14T16:47:51Z</time>
      </trkpt>
      <trkpt lat="43.2232704666" lon="-2.0232276432">
        <ele>41.95</ele>
        <time>2019-02-14T16:48:03Z</time>
      </trkpt>
      <trkpt lat="43.2232358493" lon="-2.0232010726">
        <ele>41.47</ele>
        <time>2019-02-14T16:48:04Z</time>
      </trkpt>
      <trkpt lat="43.2232092787" lon="-2.0231689699">
        <ele>41.47</ele>
        <time>2019-02-14T16:48:05Z</time>
      </trkpt>
      <trkpt lat="43.2231957000" lon="-2.0231248811">
        <ele>40.99</ele>
        <time>2019-02-14T16:48:06Z</time>
      </trkpt>
      <trkpt lat="43.2231843006" lon="-2.0230690576">
        <ele>40.51</ele>
        <time>2019-02-14T16:48:07Z</time>
      </trkpt>
      <trkpt lat="43.2231739908" lon="-2.0230051037">
        <ele>40.03</ele>
        <time>2019-02-14T16:48:08Z</time>
      </trkpt>
      <trkpt lat="43.2231606636" lon="-2.0229417365">
        <ele>39.55</ele>
        <time>2019-02-14T16:48:09Z</time>
      </trkpt>
      <trkpt lat="43.2230477594" lon="-2.0223939791">
        <ele>38.11</ele>
        <time>2019-02-14T16:48:17Z</time>
      </trkpt>
      <trkpt lat="43.2230345160" lon="-2.0223361440">
        <ele>38.11</ele>
        <time>2019-02-14T16:48:18Z</time>
      </trkpt>
      <trkpt lat="43.2230330072" lon="-2.0222856011">
        <ele>38.11</ele>
        <time>2019-02-14T16:48:19Z</time>
      </trkpt>
      <trkpt lat="43.2230422273" lon="-2.0222362317">
        <ele>38.59</ele>
        <time>2019-02-14T16:48:20Z</time>
      </trkpt>
      <trkpt lat="43.2230586559" lon="-2.0221907180">
        <ele>39.07</ele>
        <time>2019-02-14T16:48:21Z</time>
      </trkpt>
      <trkpt lat="43.2230666187" lon="-2.0221426059">
        <ele>39.55</ele>
        <time>2019-02-14T16:48:22Z</time>
      </trkpt>
      <trkpt lat="43.2230584882" lon="-2.0220847707">
        <ele>40.03</ele>
        <time>2019-02-14T16:48:23Z</time>
      </trkpt>
      <trkpt lat="43.2230437361" lon="-2.0220288634">
        <ele>40.03</ele>
        <time>2019-02-14T16:48:24Z</time>
      </trkpt>
      <trkpt lat="43.2228310872" lon="-2.0211230312">
        <ele>39.55</ele>
        <time>2019-02-14T16:48:38Z</time>
      </trkpt>
      <trkpt lat="43.2228010800" lon="-2.0209247153">
        <ele>39.07</ele>
        <time>2019-02-14T16:48:41Z</time>
      </trkpt>
      <trkpt lat="43.2227762695" lon="-2.0207786188">
        <ele>39.07</ele>
        <time>2019-02-14T16:48:43Z</time>
      </trkpt>
      <trkpt lat="43.2227651216" lon="-2.0207074564">
        <ele>39.55</ele>
        <time>2019-02-14T16:48:44Z</time>
      </trkpt>
      <trkpt lat="43.2225083839" lon="-2.0195731334">
        <ele>42.92</ele>
        <time>2019-02-14T16:49:01Z</time>
      </trkpt>
      <trkpt lat="43.2224818133" lon="-2.0194375142">
        <ele>43.40</ele>
        <time>2019-02-14T16:49:03Z</time>
      </trkpt>
      <trkpt lat="43.2222303562" lon="-2.0183067955">
        <ele>40.51</ele>
        <time>2019-02-14T16:49:20Z</time>
      </trkpt>
      <trkpt lat="43.2219844311" lon="-2.0172336604">
        <ele>43.40</ele>
        <time>2019-02-14T16:49:36Z</time>
      </trkpt>
      <trkpt lat="43.2219772227" lon="-2.0171709638">
        <ele>43.88</ele>
        <time>2019-02-14T16:49:37Z</time>
      </trkpt>
      <trkpt lat="43.2219622191" lon="-2.0171132125">
        <ele>43.88</ele>
        <time>2019-02-14T16:49:38Z</time>
      </trkpt>
      <trkpt lat="43.2219371572" lon="-2.0170658547">
        <ele>44.36</ele>
        <time>2019-02-14T16:49:39Z</time>
      </trkpt>
      <trkpt lat="43.2218916435" lon="-2.0170362666">
        <ele>44.36</ele>
        <time>2019-02-14T16:49:40Z</time>
      </trkpt>
      <trkpt lat="43.2218377478" lon="-2.0170396194">
        <ele>44.84</ele>
        <time>2019-02-14T16:49:41Z</time>
      </trkpt>
      <trkpt lat="43.2218066510" lon="-2.0170613285">
        <ele>44.36</ele>
        <time>2019-02-14T16:49:42Z</time>
      </trkpt>
      <trkpt lat="43.2217666693" lon="-2.0171063393">
        <ele>44.36</ele>
        <time>2019-02-14T16:49:43Z</time>
      </trkpt>
      <trkpt lat="43.2217293698" lon="-2.0171541162">
        <ele>44.36</ele>
        <time>2019-02-14T16:49:44Z</time>
      </trkpt>
      <trkpt lat="43.2216910645" lon="-2.0171938464">
        <ele>44.36</ele>
        <time>2019-02-14T16:49:45Z</time>
      </trkpt>
      <trkpt lat="43.2216404378" lon="-2.0172190759">
        <ele>44.36</ele>
        <time>2019-02-14T16:49:46Z</time>
      </trkpt>
      <trkpt lat="43.2215818483" lon="-2.0172241051">
        <ele>44.36</ele>
        <time>2019-02-14T16:49:47Z</time>
      </trkpt>
      <trkpt lat="43.2215421181" lon="-2.0172135439">
        <ele>44.84</ele>
        <time>2019-02-14T16:49:48Z</time>
      </trkpt>
      <trkpt lat="43.2214965206" lon="-2.0171935111">
        <ele>44.84</ele>
        <time>2019-02-14T16:49:49Z</time>
      </trkpt>
      <trkpt lat="43.2214572094" lon="-2.0171638392">
        <ele>45.32</ele>
        <time>2019-02-14T16:49:50Z</time>
      </trkpt>
      <trkpt lat="43.2214242686" lon="-2.0171291381">
        <ele>45.80</ele>
        <time>2019-02-14T16:49:51Z</time>
      </trkpt>
      <trkpt lat="43.2213884778" lon="-2.0170995500">
        <ele>46.28</ele>
        <time>2019-02-14T16:49:52Z</time>
      </trkpt>
      <trkpt lat="43.2213505078" lon="-2.0170773380">
        <ele>46.76</ele>
        <time>2019-02-14T16:49:53Z</time>
      </trkpt>
      <trkpt lat="43.2212965284" lon="-2.0170076005">
        <ele>48.20</ele>
        <time>2019-02-14T16:49:55Z</time>
      </trkpt>
      <trkpt lat="43.2212894037" lon="-2.0169556327">
        <ele>48.68</ele>
        <time>2019-02-14T16:49:56Z</time>
      </trkpt>
      <trkpt lat="43.2212914992" lon="-2.0168932714">
        <ele>49.16</ele>
        <time>2019-02-14T16:49:57Z</time>
      </trkpt>
      <trkpt lat="43.2213020604" lon="-2.0168432314">
        <ele>50.13</ele>
        <time>2019-02-14T16:49:58Z</time>
      </trkpt>
      <trkpt lat="43.2213189080" lon="-2.0167915989">
        <ele>50.61</ele>
        <time>2019-02-14T16:49:59Z</time>
      </trkpt>
      <trkpt lat="43.2213378511" lon="-2.0167435706">
        <ele>51.09</ele>
        <time>2019-02-14T16:50:00Z</time>
      </trkpt>
      <trkpt lat="43.2215863746" lon="-2.0160552487">
        <ele>53.97</ele>
        <time>2019-02-14T16:50:15Z</time>
      </trkpt>
      <trkpt lat="43.2219089102" lon="-2.0151971094">
        <ele>53.97</ele>
        <time>2019-02-14T16:50:31Z</time>
      </trkpt>
      <trkpt lat="43.2219277695" lon="-2.0151392743">
        <ele>53.97</ele>
        <time>2019-02-14T16:50:32Z</time>
      </trkpt>
      <trkpt lat="43.2219326310" lon="-2.0150769968">
        <ele>53.49</ele>
        <time>2019-02-14T16:50:33Z</time>
      </trkpt>
      <trkpt lat="43.2219192199" lon="-2.0150151383">
        <ele>53.49</ele>
        <time>2019-02-14T16:50:34Z</time>
      </trkpt>
      <trkpt lat="43.2218933199" lon="-2.0149524417">
        <ele>53.49</ele>
        <time>2019-02-14T16:50:35Z</time>
      </trkpt>
      <trkpt lat="43.2218733709" lon="-2.0148858894">
        <ele>53.49</ele>
        <time>2019-02-14T16:50:36Z</time>
      </trkpt>
      <trkpt lat="43.2218708564" lon="-2.0148313232">
        <ele>53.49</ele>
        <time>2019-02-14T16:50:37Z</time>
      </trkpt>
      <trkpt lat="43.2218809985" lon="-2.0147689618">
        <ele>53.49</ele>
        <time>2019-02-14T16:50:38Z</time>
      </trkpt>
      <trkpt lat="43.2219060604" lon="-2.0147190057">
        <ele>53.49</ele>
        <time>2019-02-14T16:50:39Z</time>
      </trkpt>
      <trkpt lat="43.2219489757" lon="-2.0146884955">
        <ele>53.49</ele>
        <time>2019-02-14T16:50:40Z</time>
      </trkpt>
      <trkpt lat="43.2219916396" lon="-2.0146844722">
        <ele>53.49</ele>
        <time>2019-02-14T16:50:41Z</time>
      </trkpt>
      <trkpt lat="43.2220405899" lon="-2.0146961231">
        <ele>53.97</ele>
        <time>2019-02-14T16:50:42Z</time>
      </trkpt>
      <trkpt lat="43.2220890373" lon="-2.0147045050">
        <ele>53.97</ele>
        <time>2019-02-14T16:50:43Z</time>
      </trkpt>
      <trkpt lat="43.2221376523" lon="-2.0146934409">
        <ele>53.97</ele>
        <time>2019-02-14T16:50:44Z</time>
      </trkpt>
      <trkpt lat="43.2221891172" lon="-2.0146544650">
        <ele>53.97</ele>
        <time>2019-02-14T16:50:45Z</time>
      </trkpt>
      <trkpt lat="43.2222166937" lon="-2.0146168303">
        <ele>54.45</ele>
        <time>2019-02-14T16:50:46Z</time>
      </trkpt>
      <trkpt lat="43.2222492993" lon="-2.0145639405">
        <ele>54.45</ele>
        <time>2019-02-14T16:50:47Z</time>
      </trkpt>
      <trkpt lat="43.2229171693" lon="-2.0136431046">
        <ele>55.41</ele>
        <time>2019-02-14T16:51:04Z</time>
      </trkpt>
      <trkpt lat="43.2236651704" lon="-2.0126577280">
        <ele>55.41</ele>
        <time>2019-02-14T16:51:21Z</time>
      </trkpt>
      <trkpt lat="43.2242572680" lon="-2.0117922965">
        <ele>56.37</ele>
        <time>2019-02-14T16:51:35Z</time>
      </trkpt>
      <trkpt lat="43.2249151636" lon="-2.0106770005">
        <ele>56.37</ele>
        <time>2019-02-14T16:51:52Z</time>
      </trkpt>
      <trkpt lat="43.2254120428" lon="-2.0096342918">
        <ele>56.86</ele>
        <time>2019-02-14T16:52:08Z</time>
      </trkpt>
      <trkpt lat="43.2259369176" lon="-2.0084754098">
        <ele>57.34</ele>
        <time>2019-02-14T16:52:26Z</time>
      </trkpt>
      <trkpt lat="43.2265729364" lon="-2.0070768055">
        <ele>57.34</ele>
        <time>2019-02-14T16:52:45Z</time>
      </trkpt>
      <trkpt lat="43.2267929614" lon="-2.0065275393">
        <ele>57.34</ele>
        <time>2019-02-14T16:52:52Z</time>
      </trkpt>
      <trkpt lat="43.2268124912" lon="-2.0064469054">
        <ele>57.34</ele>
        <time>2019-02-14T16:52:53Z</time>
      </trkpt>
      <trkpt lat="43.2270589191" lon="-2.0055178553">
        <ele>58.30</ele>
        <time>2019-02-14T16:53:06Z</time>
      </trkpt>
      <trkpt lat="43.2276145555" lon="-2.0048289467">
        <ele>62.14</ele>
        <time>2019-02-14T16:53:23Z</time>
      </trkpt>
      <trkpt lat="43.2282094192" lon="-2.0042096078">
        <ele>66.47</ele>
        <time>2019-02-14T16:53:40Z</time>
      </trkpt>
      <trkpt lat="43.2288941368" lon="-2.0035036001">
        <ele>70.79</ele>
        <time>2019-02-14T16:53:59Z</time>
      </trkpt>
      <trkpt lat="43.2295376156" lon="-2.0028326288">
        <ele>72.24</ele>
        <time>2019-02-14T16:54:16Z</time>
      </trkpt>
      <trkpt lat="43.2301537693" lon="-2.0021940116">
        <ele>75.60</ele>
        <time>2019-02-14T16:54:32Z</time>
      </trkpt>
      <trkpt lat="43.2302717865" lon="-2.0020795986">
        <ele>75.60</ele>
        <time>2019-02-14T16:54:35Z</time>
      </trkpt>
      <trkpt lat="43.2306975033" lon="-2.0017121360">
        <ele>79.45</ele>
        <time>2019-02-14T16:54:46Z</time>
      </trkpt>
      <trkpt lat="43.2307921350" lon="-2.0016715676">
        <ele>79.45</ele>
        <time>2019-02-14T16:54:48Z</time>
      </trkpt>
      <trkpt lat="43.2308340445" lon="-2.0016454160">
        <ele>79.45</ele>
        <time>2019-02-14T16:54:49Z</time>
      </trkpt>
      <trkpt lat="43.2308729365" lon="-2.0016113017">
        <ele>79.45</ele>
        <time>2019-02-14T16:54:50Z</time>
      </trkpt>
      <trkpt lat="43.2315242104" lon="-2.0010007638">
        <ele>81.37</ele>
        <time>2019-02-14T16:55:07Z</time>
      </trkpt>
      <trkpt lat="43.2316879090" lon="-2.0008881949">
        <ele>81.85</ele>
        <time>2019-02-14T16:55:11Z</time>
      </trkpt>
      <trkpt lat="43.2323059905" lon="-2.0004789904">
        <ele>82.33</ele>
        <time>2019-02-14T16:55:26Z</time>
      </trkpt>
      <trkpt lat="43.2324059028" lon="-1.9999492541">
        <ele>82.81</ele>
        <time>2019-02-14T16:55:37Z</time>
      </trkpt>
      <trkpt lat="43.2324217446" lon="-1.9999161456">
        <ele>83.29</ele>
        <time>2019-02-14T16:55:38Z</time>
      </trkpt>
      <trkpt lat="43.2324411906" lon="-1.9998987112">
        <ele>83.77</ele>
        <time>2019-02-14T16:55:39Z</time>
      </trkpt>
      <trkpt lat="43.2324732095" lon="-1.9998797681">
        <ele>83.77</ele>
        <time>2019-02-14T16:55:40Z</time>
      </trkpt>
      <trkpt lat="43.2325028814" lon="-1.9998528622">
        <ele>84.25</ele>
        <time>2019-02-14T16:55:41Z</time>
      </trkpt>
      <trkpt lat="43.2325334754" lon="-1.9998157304">
        <ele>84.73</ele>
        <time>2019-02-14T16:55:42Z</time>
      </trkpt>
      <trkpt lat="43.2325690147" lon="-1.9997781795">
        <ele>84.73</ele>
        <time>2019-02-14T16:55:43Z</time>
      </trkpt>
      <trkpt lat="43.2326072361" lon="-1.9997554645">
        <ele>84.73</ele>
        <time>2019-02-14T16:55:44Z</time>
      </trkpt>
      <trkpt lat="43.2327040471" lon="-1.9998368528">
        <ele>85.69</ele>
        <time>2019-02-14T16:55:47Z</time>
      </trkpt>
      <trkpt lat="43.2328389119" lon="-1.9999893196">
        <ele>86.66</ele>
        <time>2019-02-14T16:55:51Z</time>
      </trkpt>
      <trkpt lat="43.2328727748" lon="-1.9999986235">
        <ele>86.66</ele>
        <time>2019-02-14T16:55:52Z</time>
      </trkpt>
      <trkpt lat="43.2329146843" lon="-2.0000062510">
        <ele>86.66</ele>
        <time>2019-02-14T16:55:53Z</time>
      </trkpt>
      <trkpt lat="43.2330451068" lon="-2.0000142138">
        <ele>86.66</ele>
        <time>2019-02-14T16:55:56Z</time>
      </trkpt>
      <trkpt lat="43.2330892794" lon="-2.0000043232">
        <ele>86.66</ele>
        <time>2019-02-14T16:55:57Z</time>
      </trkpt>
      <trkpt lat="43.2331329491" lon="-1.9999883138">
        <ele>86.66</ele>
        <time>2019-02-14T16:55:58Z</time>
      </trkpt>
      <trkpt lat="43.2331727631" lon="-1.9999690354">
        <ele>87.14</ele>
        <time>2019-02-14T16:55:59Z</time>
      </trkpt>
      <trkpt lat="43.2332095597" lon="-1.9999481644">
        <ele>87.14</ele>
        <time>2019-02-14T16:56:00Z</time>
      </trkpt>
      <trkpt lat="43.2336713187" lon="-1.9997947756">
        <ele>90.50</ele>
        <time>2019-02-14T16:56:12Z</time>
      </trkpt>
      <trkpt lat="43.2342385221" lon="-1.9999446440">
        <ele>92.90</ele>
        <time>2019-02-14T16:56:27Z</time>
      </trkpt>
      <trkpt lat="43.2348666620" lon="-1.9996869005">
        <ele>97.71</ele>
        <time>2019-02-14T16:56:44Z</time>
      </trkpt>
      <trkpt lat="43.2353790477" lon="-1.9993934501">
        <ele>100.60</ele>
        <time>2019-02-14T16:56:58Z</time>
      </trkpt>
      <trkpt lat="43.2354887668" lon="-1.9993051048">
        <ele>101.08</ele>
        <time>2019-02-14T16:57:01Z</time>
      </trkpt>
      <trkpt lat="43.2355325203" lon="-1.9992942922">
        <ele>101.08</ele>
        <time>2019-02-14T16:57:02Z</time>
      </trkpt>
      <trkpt lat="43.2355722506" lon="-1.9993134029">
        <ele>101.08</ele>
        <time>2019-02-14T16:57:03Z</time>
      </trkpt>
      <trkpt lat="43.2356002461" lon="-1.9993550610">
        <ele>100.60</ele>
        <time>2019-02-14T16:57:04Z</time>
      </trkpt>
      <trkpt lat="43.2356232964" lon="-1.9994292408">
        <ele>100.60</ele>
        <time>2019-02-14T16:57:05Z</time>
      </trkpt>
      <trkpt lat="43.2356359530" lon="-1.9995024987">
        <ele>100.60</ele>
        <time>2019-02-14T16:57:06Z</time>
      </trkpt>
      <trkpt lat="43.2356448378" lon="-1.9995600823">
        <ele>100.60</ele>
        <time>2019-02-14T16:57:07Z</time>
      </trkpt>
      <trkpt lat="43.2356961351" lon="-1.9998665247">
        <ele>100.11</ele>
        <time>2019-02-14T16:57:11Z</time>
      </trkpt>
      <trkpt lat="43.2356990688" lon="-1.9999514334">
        <ele>99.63</ele>
        <time>2019-02-14T16:57:12Z</time>
      </trkpt>
      <trkpt lat="43.2356932014" lon="-2.0000219252">
        <ele>99.63</ele>
        <time>2019-02-14T16:57:13Z</time>
      </trkpt>
      <trkpt lat="43.2356785331" lon="-2.0000897348">
        <ele>99.15</ele>
        <time>2019-02-14T16:57:14Z</time>
      </trkpt>
      <trkpt lat="43.2356556505" lon="-2.0001502521">
        <ele>99.15</ele>
        <time>2019-02-14T16:57:15Z</time>
      </trkpt>
      <trkpt lat="43.2356281579" lon="-2.0002059918">
        <ele>99.15</ele>
        <time>2019-02-14T16:57:16Z</time>
      </trkpt>
      <trkpt lat="43.2356002461" lon="-2.0002611447">
        <ele>98.67</ele>
        <time>2019-02-14T16:57:17Z</time>
      </trkpt>
      <trkpt lat="43.2355751004" lon="-2.0003198180">
        <ele>98.67</ele>
        <time>2019-02-14T16:57:18Z</time>
      </trkpt>
      <trkpt lat="43.2355543971" lon="-2.0003798325">
        <ele>98.67</ele>
        <time>2019-02-14T16:57:19Z</time>
      </trkpt>
      <trkpt lat="43.2355414052" lon="-2.0004408527">
        <ele>98.67</ele>
        <time>2019-02-14T16:57:20Z</time>
      </trkpt>
      <trkpt lat="43.2355376333" lon="-2.0005026273">
        <ele>98.19</ele>
        <time>2019-02-14T16:57:21Z</time>
      </trkpt>
      <trkpt lat="43.2355419919" lon="-2.0005660783">
        <ele>98.19</ele>
        <time>2019-02-14T16:57:22Z</time>
      </trkpt>
      <trkpt lat="43.2355536427" lon="-2.0006226562">
        <ele>98.19</ele>
        <time>2019-02-14T16:57:23Z</time>
      </trkpt>
      <trkpt lat="43.2355737593" lon="-2.0006717741">
        <ele>98.19</ele>
        <time>2019-02-14T16:57:24Z</time>
      </trkpt>
      <trkpt lat="43.2356025092" lon="-2.0007229038">
        <ele>97.71</ele>
        <time>2019-02-14T16:57:25Z</time>
      </trkpt>
      <trkpt lat="43.2359830476" lon="-2.0012713317">
        <ele>101.08</ele>
        <time>2019-02-14T16:57:39Z</time>
      </trkpt>
      <trkpt lat="43.2361446507" lon="-2.0016367827">
        <ele>103.96</ele>
        <time>2019-02-14T16:57:52Z</time>
      </trkpt>
      <trkpt lat="43.2359973807" lon="-2.0019687898">
        <ele>106.84</ele>
        <time>2019-02-14T16:58:05Z</time>
      </trkpt>
      <trkpt lat="43.2360570598" lon="-2.0022190735">
        <ele>109.25</ele>
        <time>2019-02-14T16:58:15Z</time>
      </trkpt>
      <trkpt lat="43.2363250293" lon="-2.0020683669">
        <ele>113.57</ele>
        <time>2019-02-14T16:58:29Z</time>
      </trkpt>
      <trkpt lat="43.2365919929" lon="-2.0021738950">
        <ele>115.98</ele>
        <time>2019-02-14T16:58:43Z</time>
      </trkpt>
      <trkpt lat="43.2366254367" lon="-2.0026604645">
        <ele>116.46</ele>
        <time>2019-02-14T16:58:58Z</time>
      </trkpt>
      <trkpt lat="43.2366492413" lon="-2.0030929707">
        <ele>115.01</ele>
        <time>2019-02-14T16:59:10Z</time>
      </trkpt>
      <trkpt lat="43.2366660889" lon="-2.0031238161">
        <ele>114.05</ele>
        <time>2019-02-14T16:59:11Z</time>
      </trkpt>
      <trkpt lat="43.2366795000" lon="-2.0031471178">
        <ele>113.57</ele>
        <time>2019-02-14T16:59:12Z</time>
      </trkpt>
      <trkpt lat="43.2366853673" lon="-2.0031640492">
        <ele>113.57</ele>
        <time>2019-02-14T16:59:13Z</time>
      </trkpt>
      <trkpt lat="43.2366900612" lon="-2.0031777117">
        <ele>113.57</ele>
        <time>2019-02-14T16:59:14Z</time>
      </trkpt>
      <trkpt lat="43.2368401811" lon="-2.0034843218">
        <ele>113.57</ele>
        <time>2019-02-14T16:59:27Z</time>
      </trkpt>
      <trkpt lat="43.2369303703" lon="-2.0039506909">
        <ele>115.50</ele>
        <time>2019-02-14T16:59:42Z</time>
      </trkpt>
      <trkpt lat="43.2369306218" lon="-2.0041641779">
        <ele>113.09</ele>
        <time>2019-02-14T16:59:50Z</time>
      </trkpt>
      <trkpt lat="43.2369219884" lon="-2.0041885693">
        <ele>113.09</ele>
        <time>2019-02-14T16:59:51Z</time>
      </trkpt>
      <trkpt lat="43.2369127683" lon="-2.0042116195">
        <ele>113.09</ele>
        <time>2019-02-14T16:59:52Z</time>
      </trkpt>
      <trkpt lat="43.2369049732" lon="-2.0042379387">
        <ele>112.61</ele>
        <time>2019-02-14T16:59:53Z</time>
      </trkpt>
      <trkpt lat="43.2368981838" lon="-2.0042619109">
        <ele>112.61</ele>
        <time>2019-02-14T16:59:54Z</time>
      </trkpt>
      <trkpt lat="43.2368918136" lon="-2.0042855479">
        <ele>112.13</ele>
        <time>2019-02-14T16:59:55Z</time>
      </trkpt>
      <trkpt lat="43.2368434500" lon="-2.0044982806">
        <ele>113.09</ele>
        <time>2019-02-14T17:00:04Z</time>
      </trkpt>
      <trkpt lat="43.2369878702" lon="-2.0044956822">
        <ele>117.90</ele>
        <time>2019-02-14T17:00:13Z</time>
      </trkpt>
      <trkpt lat="43.2371298596" lon="-2.0043451432">
        <ele>122.71</ele>
        <time>2019-02-14T17:00:22Z</time>
      </trkpt>
      <trkpt lat="43.2373809814" lon="-2.0041118748">
        <ele>130.40</ele>
        <time>2019-02-14T17:00:37Z</time>
      </trkpt>
      <trkpt lat="43.2375043631" lon="-2.0037973858">
        <ele>133.76</ele>
        <time>2019-02-14T17:00:51Z</time>
      </trkpt>
      <trkpt lat="43.2377277408" lon="-2.0036940370">
        <ele>140.49</ele>
        <time>2019-02-14T17:01:04Z</time>
      </trkpt>
      <trkpt lat="43.2380755898" lon="-2.0036185998">
        <ele>144.34</ele>
        <time>2019-02-14T17:01:21Z</time>
      </trkpt>
      <trkpt lat="43.2383318245" lon="-2.0036290772">
        <ele>149.14</ele>
        <time>2019-02-14T17:01:36Z</time>
      </trkpt>
      <trkpt lat="43.2384761609" lon="-2.0037763473">
        <ele>150.58</ele>
        <time>2019-02-14T17:01:46Z</time>
      </trkpt>
      <trkpt lat="43.2384935115" lon="-2.0037888363">
        <ele>150.58</ele>
        <time>2019-02-14T17:01:47Z</time>
      </trkpt>
      <trkpt lat="43.2385110296" lon="-2.0037991460">
        <ele>150.10</ele>
        <time>2019-02-14T17:01:48Z</time>
      </trkpt>
      <trkpt lat="43.2385289669" lon="-2.0038065221">
        <ele>150.58</ele>
        <time>2019-02-14T17:01:49Z</time>
      </trkpt>
      <trkpt lat="43.2385485806" lon="-2.0038120542">
        <ele>150.58</ele>
        <time>2019-02-14T17:01:50Z</time>
      </trkpt>
      <trkpt lat="43.2388820127" lon="-2.0039191749">
        <ele>151.06</ele>
        <time>2019-02-14T17:02:05Z</time>
      </trkpt>
      <trkpt lat="43.2391179632" lon="-2.0040976256">
        <ele>154.91</ele>
        <time>2019-02-14T17:02:16Z</time>
      </trkpt>
      <trkpt lat="43.2392208092" lon="-2.0041201729">
        <ele>156.35</ele>
        <time>2019-02-14T17:02:21Z</time>
      </trkpt>
      <trkpt lat="43.2392422669" lon="-2.0041276328">
        <ele>156.83</ele>
        <time>2019-02-14T17:02:22Z</time>
      </trkpt>
      <trkpt lat="43.2392629702" lon="-2.0041309018">
        <ele>157.31</ele>
        <time>2019-02-14T17:02:23Z</time>
      </trkpt>
      <trkpt lat="43.2392807398" lon="-2.0041329134">
        <ele>157.79</ele>
        <time>2019-02-14T17:02:24Z</time>
      </trkpt>
      <trkpt lat="43.2392988447" lon="-2.0041389484">
        <ele>158.27</ele>
        <time>2019-02-14T17:02:25Z</time>
      </trkpt>
      <trkpt lat="43.2393203024" lon="-2.0041469950">
        <ele>158.75</ele>
        <time>2019-02-14T17:02:26Z</time>
      </trkpt>
      <trkpt lat="43.2394109108" lon="-2.0041614119">
        <ele>161.16</ele>
        <time>2019-02-14T17:02:31Z</time>
      </trkpt>
      <trkpt lat="43.2394555025" lon="-2.0041541196">
        <ele>163.08</ele>
        <time>2019-02-14T17:02:34Z</time>
      </trkpt>
      <trkpt lat="43.2394705899" lon="-2.0041587297">
        <ele>163.56</ele>
        <time>2019-02-14T17:02:35Z</time>
      </trkpt>
      <trkpt lat="43.2396563329" lon="-2.0042442251">
        <ele>167.41</ele>
        <time>2019-02-14T17:02:48Z</time>
      </trkpt>
      <trkpt lat="43.2396754436" lon="-2.0042650960">
        <ele>167.89</ele>
        <time>2019-02-14T17:02:50Z</time>
      </trkpt>
      <trkpt lat="43.2398257311" lon="-2.0044465642">
        <ele>173.17</ele>
        <time>2019-02-14T17:03:05Z</time>
      </trkpt>
      <trkpt lat="43.2399379648" lon="-2.0046043955">
        <ele>179.90</ele>
        <time>2019-02-14T17:03:18Z</time>
      </trkpt>
      <trkpt lat="43.2400869112" lon="-2.0047456305">
        <ele>188.56</ele>
        <time>2019-02-14T17:03:32Z</time>
      </trkpt>
      <trkpt lat="43.2402609196" lon="-2.0049245842">
        <ele>188.56</ele>
        <time>2019-02-14T17:03:45Z</time>
      </trkpt>
      <trkpt lat="43.2403411344" lon="-2.0051311143">
        <ele>182.79</ele>
        <time>2019-02-14T17:03:54Z</time>
      </trkpt>
      <trkpt lat="43.2403893303" lon="-2.0054570027">
        <ele>178.46</ele>
        <time>2019-02-14T17:04:09Z</time>
      </trkpt>
      <trkpt lat="43.2404394541" lon="-2.0057268161">
        <ele>178.46</ele>
        <time>2019-02-14T17:04:22Z</time>
      </trkpt>
      <trkpt lat="43.2404568046" lon="-2.0058447495">
        <ele>178.46</ele>
        <time>2019-02-14T17:04:28Z</time>
      </trkpt>
      <trkpt lat="43.2404617500" lon="-2.0058618486">
        <ele>178.46</ele>
        <time>2019-02-14T17:04:29Z</time>
      </trkpt>
      <trkpt lat="43.2405329961" lon="-2.0061653573">
        <ele>178.46</ele>
        <time>2019-02-14T17:04:44Z</time>
      </trkpt>
      <trkpt lat="43.2405707147" lon="-2.0062257070">
        <ele>179.42</ele>
        <time>2019-02-14T17:04:48Z</time>
      </trkpt>
      <trkpt lat="43.2405814435" lon="-2.0062405430">
        <ele>179.42</ele>
        <time>2019-02-14T17:04:49Z</time>
      </trkpt>
      <trkpt lat="43.2406012248" lon="-2.0062661078">
        <ele>179.90</ele>
        <time>2019-02-14T17:04:51Z</time>
      </trkpt>
      <trkpt lat="43.2407438848" lon="-2.0063325763">
        <ele>182.79</ele>
        <time>2019-02-14T17:05:01Z</time>
      </trkpt>
      <trkpt lat="43.2407583017" lon="-2.0063376054">
        <ele>183.27</ele>
        <time>2019-02-14T17:05:02Z</time>
      </trkpt>
      <trkpt lat="43.2407715451" lon="-2.0063442271">
        <ele>183.75</ele>
        <time>2019-02-14T17:05:03Z</time>
      </trkpt>
      <trkpt lat="43.2407848723" lon="-2.0063517708">
        <ele>184.23</ele>
        <time>2019-02-14T17:05:04Z</time>
      </trkpt>
      <trkpt lat="43.2407979481" lon="-2.0063562132">
        <ele>184.71</ele>
        <time>2019-02-14T17:05:05Z</time>
      </trkpt>
      <trkpt lat="43.2408112753" lon="-2.0063597336">
        <ele>185.19</ele>
        <time>2019-02-14T17:05:06Z</time>
      </trkpt>
      <trkpt lat="43.2408809289" lon="-2.0063512679">
        <ele>186.15</ele>
        <time>2019-02-14T17:05:11Z</time>
      </trkpt>
      <trkpt lat="43.2408969384" lon="-2.0063448977">
        <ele>186.15</ele>
        <time>2019-02-14T17:05:12Z</time>
      </trkpt>
      <trkpt lat="43.2409304660" lon="-2.0063295588">
        <ele>186.15</ele>
        <time>2019-02-14T17:05:14Z</time>
      </trkpt>
      <trkpt lat="43.2409459725" lon="-2.0063203387">
        <ele>186.63</ele>
        <time>2019-02-14T17:05:15Z</time>
      </trkpt>
      <trkpt lat="43.2409852836" lon="-2.0062946901">
        <ele>187.11</ele>
        <time>2019-02-14T17:05:18Z</time>
      </trkpt>
      <trkpt lat="43.2410497405" lon="-2.0061705541">
        <ele>189.52</ele>
        <time>2019-02-14T17:05:26Z</time>
      </trkpt>
      <trkpt lat="43.2412473019" lon="-2.0059865713">
        <ele>194.80</ele>
        <time>2019-02-14T17:05:41Z</time>
      </trkpt>
      <trkpt lat="43.2413737010" lon="-2.0058873296">
        <ele>199.13</ele>
        <time>2019-02-14T17:05:53Z</time>
      </trkpt>
      <trkpt lat="43.2413820829" lon="-2.0058748405">
        <ele>199.61</ele>
        <time>2019-02-14T17:05:54Z</time>
      </trkpt>
      <trkpt lat="43.2413937338" lon="-2.0058656204">
        <ele>199.61</ele>
        <time>2019-02-14T17:05:55Z</time>
      </trkpt>
      <trkpt lat="43.2414053008" lon="-2.0058582444">
        <ele>200.09</ele>
        <time>2019-02-14T17:05:56Z</time>
      </trkpt>
      <trkpt lat="43.2414182927" lon="-2.0058510359">
        <ele>200.57</ele>
        <time>2019-02-14T17:05:57Z</time>
      </trkpt>
      <trkpt lat="43.2416085619" lon="-2.0057862438">
        <ele>208.26</ele>
        <time>2019-02-14T17:06:11Z</time>
      </trkpt>
      <trkpt lat="43.2418474462" lon="-2.0057070348">
        <ele>215.47</ele>
        <time>2019-02-14T17:06:29Z</time>
      </trkpt>
      <trkpt lat="43.2418847457" lon="-2.0056961384">
        <ele>217.40</ele>
        <time>2019-02-14T17:06:32Z</time>
      </trkpt>
      <trkpt lat="43.2420322672" lon="-2.0056757703">
        <ele>223.16</ele>
        <time>2019-02-14T17:06:44Z</time>
      </trkpt>
      <trkpt lat="43.2420858275" lon="-2.0056507085">
        <ele>224.12</ele>
        <time>2019-02-14T17:06:48Z</time>
      </trkpt>
      <trkpt lat="43.2421109732" lon="-2.0056336094">
        <ele>223.16</ele>
        <time>2019-02-14T17:06:50Z</time>
      </trkpt>
      <trkpt lat="43.2421233784" lon="-2.0056212880">
        <ele>222.68</ele>
        <time>2019-02-14T17:06:51Z</time>
      </trkpt>
      <trkpt lat="43.2421373762" lon="-2.0056100562">
        <ele>222.20</ele>
        <time>2019-02-14T17:06:52Z</time>
      </trkpt>
      <trkpt lat="43.2422593329" lon="-2.0055409055">
        <ele>219.32</ele>
        <time>2019-02-14T17:07:02Z</time>
      </trkpt>
      <trkpt lat="43.2425578963" lon="-2.0053490438">
        <ele>214.99</ele>
        <time>2019-02-14T17:07:17Z</time>
      </trkpt>
      <trkpt lat="43.2428449765" lon="-2.0052483771">
        <ele>214.03</ele>
        <time>2019-02-14T17:07:32Z</time>
      </trkpt>
      <trkpt lat="43.2431541849" lon="-2.0050348062">
        <ele>214.03</ele>
        <time>2019-02-14T17:07:50Z</time>
      </trkpt>
      <trkpt lat="43.2434751280" lon="-2.0049603749">
        <ele>215.47</ele>
        <time>2019-02-14T17:08:07Z</time>
      </trkpt>
      <trkpt lat="43.2438431773" lon="-2.0049153641">
        <ele>212.11</ele>
        <time>2019-02-14T17:08:21Z</time>
      </trkpt>
      <trkpt lat="43.2439918723" lon="-2.0049038809">
        <ele>206.82</ele>
        <time>2019-02-14T17:08:27Z</time>
      </trkpt>
      <trkpt lat="43.2440085523" lon="-2.0048716944">
        <ele>206.34</ele>
        <time>2019-02-14T17:08:28Z</time>
      </trkpt>
      <trkpt lat="43.2440161798" lon="-2.0048177987">
        <ele>205.86</ele>
        <time>2019-02-14T17:08:29Z</time>
      </trkpt>
      <trkpt lat="43.2440177724" lon="-2.0047690161">
        <ele>205.38</ele>
        <time>2019-02-14T17:08:30Z</time>
      </trkpt>
      <trkpt lat="43.2440113183" lon="-2.0047006197">
        <ele>204.90</ele>
        <time>2019-02-14T17:08:31Z</time>
      </trkpt>
      <trkpt lat="43.2439908665" lon="-2.0046235062">
        <ele>203.94</ele>
        <time>2019-02-14T17:08:32Z</time>
      </trkpt>
      <trkpt lat="43.2439601887" lon="-2.0045468118">
        <ele>203.46</ele>
        <time>2019-02-14T17:08:33Z</time>
      </trkpt>
      <trkpt lat="43.2439219672" lon="-2.0044676028">
        <ele>202.49</ele>
        <time>2019-02-14T17:08:34Z</time>
      </trkpt>
      <trkpt lat="43.2438048720" lon="-2.0042060036">
        <ele>200.57</ele>
        <time>2019-02-14T17:08:37Z</time>
      </trkpt>
      <trkpt lat="43.2436296903" lon="-2.0036916062">
        <ele>195.28</ele>
        <time>2019-02-14T17:08:43Z</time>
      </trkpt>
      <trkpt lat="43.2434427738" lon="-2.0031821541">
        <ele>187.11</ele>
        <time>2019-02-14T17:08:50Z</time>
      </trkpt>
      <trkpt lat="43.2434573583" lon="-2.0031193737">
        <ele>186.63</ele>
        <time>2019-02-14T17:08:51Z</time>
      </trkpt>
      <trkpt lat="43.2434956636" lon="-2.0030610356">
        <ele>186.15</ele>
        <time>2019-02-14T17:08:52Z</time>
      </trkpt>
      <trkpt lat="43.2435287721" lon="-2.0030288491">
        <ele>185.67</ele>
        <time>2019-02-14T17:08:53Z</time>
      </trkpt>
      <trkpt lat="43.2435788121" lon="-2.0029925555">
        <ele>185.67</ele>
        <time>2019-02-14T17:08:54Z</time>
      </trkpt>
      <trkpt lat="43.2436349709" lon="-2.0029552560">
        <ele>185.19</ele>
        <time>2019-02-14T17:08:55Z</time>
      </trkpt>
      <trkpt lat="43.2437934726" lon="-2.0028208941">
        <ele>184.71</ele>
        <time>2019-02-14T17:08:58Z</time>
      </trkpt>
      <trkpt lat="43.2438345440" lon="-2.0027659927">
        <ele>185.19</ele>
        <time>2019-02-14T17:08:59Z</time>
      </trkpt>
      <trkpt lat="43.2438684907" lon="-2.0027063973">
        <ele>185.19</ele>
        <time>2019-02-14T17:09:00Z</time>
      </trkpt>
      <trkpt lat="43.2442533039" lon="-2.0019982103">
        <ele>180.87</ele>
        <time>2019-02-14T17:09:09Z</time>
      </trkpt>
      <trkpt lat="43.2443160843" lon="-2.0019381959">
        <ele>179.90</ele>
        <time>2019-02-14T17:09:10Z</time>
      </trkpt>
      <trkpt lat="43.2448157296" lon="-2.0014946256">
        <ele>169.33</ele>
        <time>2019-02-14T17:09:16Z</time>
      </trkpt>
      <trkpt lat="43.2449700404" lon="-2.0012755226">
        <ele>165.00</ele>
        <time>2019-02-14T17:09:18Z</time>
      </trkpt>
      <trkpt lat="43.2455221564" lon="-2.0004421100">
        <ele>147.70</ele>
        <time>2019-02-14T17:09:26Z</time>
      </trkpt>
      <trkpt lat="43.2456593681" lon="-2.0003378391">
        <ele>144.34</ele>
        <time>2019-02-14T17:09:28Z</time>
      </trkpt>
      <trkpt lat="43.2457501441" lon="-2.0002929121">
        <ele>142.89</ele>
        <time>2019-02-14T17:09:29Z</time>
      </trkpt>
      <trkpt lat="43.2459726837" lon="-2.0002075844">
        <ele>139.53</ele>
        <time>2019-02-14T17:09:31Z</time>
      </trkpt>
      <trkpt lat="43.2460759487" lon="-2.0001500845">
        <ele>138.09</ele>
        <time>2019-02-14T17:09:32Z</time>
      </trkpt>
      <trkpt lat="43.2461678982" lon="-2.0000774972">
        <ele>137.13</ele>
        <time>2019-02-14T17:09:33Z</time>
      </trkpt>
      <trkpt lat="43.2462455984" lon="-1.9999980368">
        <ele>136.16</ele>
        <time>2019-02-14T17:09:34Z</time>
      </trkpt>
      <trkpt lat="43.2463218737" lon="-1.9999112003">
        <ele>135.20</ele>
        <time>2019-02-14T17:09:35Z</time>
      </trkpt>
      <trkpt lat="43.2463934552" lon="-1.9998372719">
        <ele>134.72</ele>
        <time>2019-02-14T17:09:36Z</time>
      </trkpt>
      <trkpt lat="43.2464639470" lon="-1.9997785147">
        <ele>133.76</ele>
        <time>2019-02-14T17:09:37Z</time>
      </trkpt>
      <trkpt lat="43.2470003888" lon="-1.9992814679">
        <ele>127.51</ele>
        <time>2019-02-14T17:09:44Z</time>
      </trkpt>
      <trkpt lat="43.2471005525" lon="-1.9992116466">
        <ele>126.07</ele>
        <time>2019-02-14T17:09:45Z</time>
      </trkpt>
      <trkpt lat="43.2475048956" lon="-1.9989684038">
        <ele>119.82</ele>
        <time>2019-02-14T17:09:49Z</time>
      </trkpt>
      <trkpt lat="43.2476022933" lon="-1.9989337027">
        <ele>118.38</ele>
        <time>2019-02-14T17:09:50Z</time>
      </trkpt>
      <trkpt lat="43.2476949971" lon="-1.9989103172">
        <ele>116.94</ele>
        <time>2019-02-14T17:09:51Z</time>
      </trkpt>
      <trkpt lat="43.2477844320" lon="-1.9988973252">
        <ele>115.50</ele>
        <time>2019-02-14T17:09:52Z</time>
      </trkpt>
      <trkpt lat="43.2478768844" lon="-1.9989028573">
        <ele>114.53</ele>
        <time>2019-02-14T17:09:53Z</time>
      </trkpt>
      <trkpt lat="43.2479737792" lon="-1.9989293441">
        <ele>113.09</ele>
        <time>2019-02-14T17:09:54Z</time>
      </trkpt>
      <trkpt lat="43.2480771281" lon="-1.9989601895">
        <ele>111.17</ele>
        <time>2019-02-14T17:09:55Z</time>
      </trkpt>
      <trkpt lat="43.2481741067" lon="-1.9989804737">
        <ele>110.21</ele>
        <time>2019-02-14T17:09:56Z</time>
      </trkpt>
      <trkpt lat="43.2482739352" lon="-1.9989774562">
        <ele>109.73</ele>
        <time>2019-02-14T17:09:57Z</time>
      </trkpt>
      <trkpt lat="43.2483745180" lon="-1.9989493769">
        <ele>109.25</ele>
        <time>2019-02-14T17:09:58Z</time>
      </trkpt>
      <trkpt lat="43.2484595105" lon="-1.9989049528">
        <ele>108.77</ele>
        <time>2019-02-14T17:09:59Z</time>
      </trkpt>
      <trkpt lat="43.2485369593" lon="-1.9988533203">
        <ele>108.77</ele>
        <time>2019-02-14T17:10:00Z</time>
      </trkpt>
      <trkpt lat="43.2493795082" lon="-1.9983688463">
        <ele>108.29</ele>
        <time>2019-02-14T17:10:11Z</time>
      </trkpt>
      <trkpt lat="43.2497343142" lon="-1.9981445465">
        <ele>105.88</ele>
        <time>2019-02-14T17:10:15Z</time>
      </trkpt>
      <trkpt lat="43.2498022914" lon="-1.9981208257">
        <ele>105.88</ele>
        <time>2019-02-14T17:10:16Z</time>
      </trkpt>
      <trkpt lat="43.2498711068" lon="-1.9981073309">
        <ele>105.40</ele>
        <time>2019-02-14T17:10:17Z</time>
      </trkpt>
      <trkpt lat="43.2499443647" lon="-1.9981022179">
        <ele>105.40</ele>
        <time>2019-02-14T17:10:18Z</time>
      </trkpt>
      <trkpt lat="43.2500262558" lon="-1.9980984461">
        <ele>104.92</ele>
        <time>2019-02-14T17:10:19Z</time>
      </trkpt>
      <trkpt lat="43.2502797246" lon="-1.9980583806">
        <ele>103.48</ele>
        <time>2019-02-14T17:10:22Z</time>
      </trkpt>
      <trkpt lat="43.2503509708" lon="-1.9980259426">
        <ele>103.96</ele>
        <time>2019-02-14T17:10:23Z</time>
      </trkpt>
      <trkpt lat="43.2504136674" lon="-1.9979875535">
        <ele>103.96</ele>
        <time>2019-02-14T17:10:24Z</time>
      </trkpt>
      <trkpt lat="43.2507974748" lon="-1.9977573864">
        <ele>106.84</ele>
        <time>2019-02-14T17:10:32Z</time>
      </trkpt>
      <trkpt lat="43.2508436590" lon="-1.9977416284">
        <ele>107.32</ele>
        <time>2019-02-14T17:10:33Z</time>
      </trkpt>
      <trkpt lat="43.2511280570" lon="-1.9977018144">
        <ele>106.84</ele>
        <time>2019-02-14T17:10:39Z</time>
      </trkpt>
      <trkpt lat="43.2511817012" lon="-1.9976706337">
        <ele>105.88</ele>
        <time>2019-02-14T17:10:40Z</time>
      </trkpt>
      <trkpt lat="43.2512270473" lon="-1.9976174086">
        <ele>104.92</ele>
        <time>2019-02-14T17:10:41Z</time>
      </trkpt>
      <trkpt lat="43.2512757462" lon="-1.9975325000">
        <ele>103.48</ele>
        <time>2019-02-14T17:10:42Z</time>
      </trkpt>
      <trkpt lat="43.2513211761" lon="-1.9974309113">
        <ele>102.52</ele>
        <time>2019-02-14T17:10:43Z</time>
      </trkpt>
      <trkpt lat="43.2513528597" lon="-1.9973227847">
        <ele>101.08</ele>
        <time>2019-02-14T17:10:44Z</time>
      </trkpt>
      <trkpt lat="43.2513635047" lon="-1.9972075336">
        <ele>100.11</ele>
        <time>2019-02-14T17:10:45Z</time>
      </trkpt>
      <trkpt lat="43.2513537817" lon="-1.9970862474">
        <ele>98.67</ele>
        <time>2019-02-14T17:10:46Z</time>
      </trkpt>
      <trkpt lat="43.2513421308" lon="-1.9969717506">
        <ele>97.23</ele>
        <time>2019-02-14T17:10:47Z</time>
      </trkpt>
      <trkpt lat="43.2513435557" lon="-1.9968672283">
        <ele>96.27</ele>
        <time>2019-02-14T17:10:48Z</time>
      </trkpt>
      <trkpt lat="43.2513596490" lon="-1.9967592694">
        <ele>94.83</ele>
        <time>2019-02-14T17:10:49Z</time>
      </trkpt>
      <trkpt lat="43.2513884827" lon="-1.9966672361">
        <ele>93.87</ele>
        <time>2019-02-14T17:10:50Z</time>
      </trkpt>
      <trkpt lat="43.2514274586" lon="-1.9965915475">
        <ele>92.90</ele>
        <time>2019-02-14T17:10:51Z</time>
      </trkpt>
      <trkpt lat="43.2514674403" lon="-1.9965332095">
        <ele>91.94</ele>
        <time>2019-02-14T17:10:52Z</time>
      </trkpt>
      <trkpt lat="43.2515572105" lon="-1.9964521565">
        <ele>90.50</ele>
        <time>2019-02-14T17:10:55Z</time>
      </trkpt>
      <trkpt lat="43.2515919954" lon="-1.9964605384">
        <ele>90.50</ele>
        <time>2019-02-14T17:10:56Z</time>
      </trkpt>
      <trkpt lat="43.2516432926" lon="-1.9965171162">
        <ele>90.50</ele>
        <time>2019-02-14T17:10:58Z</time>
      </trkpt>
      <trkpt lat="43.2519230805" lon="-1.9967814814">
        <ele>95.31</ele>
        <time>2019-02-14T17:11:12Z</time>
      </trkpt>
      <trkpt lat="43.2523161918" lon="-1.9971181825">
        <ele>101.56</ele>
        <time>2019-02-14T17:11:31Z</time>
      </trkpt>
      <trkpt lat="43.2527085487" lon="-1.9972709846">
        <ele>107.32</ele>
        <time>2019-02-14T17:11:47Z</time>
      </trkpt>
      <trkpt lat="43.2531147357" lon="-1.9973916002">
        <ele>114.05</ele>
        <time>2019-02-14T17:12:05Z</time>
      </trkpt>
      <trkpt lat="43.2533853035" lon="-1.9978023972">
        <ele>116.94</ele>
        <time>2019-02-14T17:12:22Z</time>
      </trkpt>
      <trkpt lat="43.2536590565" lon="-1.9982882123">
        <ele>115.98</ele>
        <time>2019-02-14T17:12:36Z</time>
      </trkpt>
      <trkpt lat="43.2539142855" lon="-1.9986317027">
        <ele>112.61</ele>
        <time>2019-02-14T17:12:42Z</time>
      </trkpt>
      <trkpt lat="43.2539588772" lon="-1.9987120852">
        <ele>112.13</ele>
        <time>2019-02-14T17:12:43Z</time>
      </trkpt>
      <trkpt lat="43.2539918181" lon="-1.9987843372">
        <ele>111.17</ele>
        <time>2019-02-14T17:12:44Z</time>
      </trkpt>
      <trkpt lat="43.2540107612" lon="-1.9988483749">
        <ele>110.69</ele>
        <time>2019-02-14T17:12:45Z</time>
      </trkpt>
      <trkpt lat="43.2540142816" lon="-1.9989124965">
        <ele>109.73</ele>
        <time>2019-02-14T17:12:46Z</time>
      </trkpt>
      <trkpt lat="43.2540053129" lon="-1.9989745226">
        <ele>109.25</ele>
        <time>2019-02-14T17:12:47Z</time>
      </trkpt>
      <trkpt lat="43.2539845258" lon="-1.9990241434">
        <ele>108.29</ele>
        <time>2019-02-14T17:12:48Z</time>
      </trkpt>
      <trkpt lat="43.2539501600" lon="-1.9990659691">
        <ele>107.81</ele>
        <time>2019-02-14T17:12:49Z</time>
      </trkpt>
      <trkpt lat="43.2539038081" lon="-1.9991088845">
        <ele>107.32</ele>
        <time>2019-02-14T17:12:50Z</time>
      </trkpt>
      <trkpt lat="43.2538449671" lon="-1.9991452619">
        <ele>106.36</ele>
        <time>2019-02-14T17:12:51Z</time>
      </trkpt>
      <trkpt lat="43.2537756488" lon="-1.9991655461">
        <ele>105.40</ele>
        <time>2019-02-14T17:12:52Z</time>
      </trkpt>
      <trkpt lat="43.2536987867" lon="-1.9991611037">
        <ele>104.44</ele>
        <time>2019-02-14T17:12:53Z</time>
      </trkpt>
      <trkpt lat="43.2536207512" lon="-1.9991334435">
        <ele>103.48</ele>
        <time>2019-02-14T17:12:54Z</time>
      </trkpt>
      <trkpt lat="43.2535433024" lon="-1.9991017599">
        <ele>102.52</ele>
        <time>2019-02-14T17:12:55Z</time>
      </trkpt>
      <trkpt lat="43.2534665242" lon="-1.9990776200">
        <ele>101.56</ele>
        <time>2019-02-14T17:12:56Z</time>
      </trkpt>
      <trkpt lat="43.2533869799" lon="-1.9990662206">
        <ele>100.11</ele>
        <time>2019-02-14T17:12:57Z</time>
      </trkpt>
      <trkpt lat="43.2532978803" lon="-1.9990819786">
        <ele>99.15</ele>
        <time>2019-02-14T17:12:58Z</time>
      </trkpt>
      <trkpt lat="43.2532159053" lon="-1.9991249777">
        <ele>98.19</ele>
        <time>2019-02-14T17:12:59Z</time>
      </trkpt>
      <trkpt lat="43.2531285658" lon="-1.9991901051">
        <ele>97.23</ele>
        <time>2019-02-14T17:13:00Z</time>
      </trkpt>
      <trkpt lat="43.2530499436" lon="-1.9992651232">
        <ele>95.79</ele>
        <time>2019-02-14T17:13:01Z</time>
      </trkpt>
      <trkpt lat="43.2529764343" lon="-1.9993446674">
        <ele>94.83</ele>
        <time>2019-02-14T17:13:02Z</time>
      </trkpt>
      <trkpt lat="43.2529066969" lon="-1.9994291570">
        <ele>93.87</ele>
        <time>2019-02-14T17:13:03Z</time>
      </trkpt>
      <trkpt lat="43.2527944632" lon="-1.9996044226">
        <ele>91.46</ele>
        <time>2019-02-14T17:13:05Z</time>
      </trkpt>
      <trkpt lat="43.2527581695" lon="-1.9997112080">
        <ele>90.50</ele>
        <time>2019-02-14T17:13:06Z</time>
      </trkpt>
      <trkpt lat="43.2527455129" lon="-1.9998188317">
        <ele>89.06</ele>
        <time>2019-02-14T17:13:07Z</time>
      </trkpt>
      <trkpt lat="43.2527414896" lon="-2.0000244398">
        <ele>87.14</ele>
        <time>2019-02-14T17:13:09Z</time>
      </trkpt>
      <trkpt lat="43.2527276594" lon="-2.0001218375">
        <ele>86.18</ele>
        <time>2019-02-14T17:13:10Z</time>
      </trkpt>
      <trkpt lat="43.2526151743" lon="-2.0007263403">
        <ele>78.48</ele>
        <time>2019-02-14T17:13:17Z</time>
      </trkpt>
      <trkpt lat="43.2525943872" lon="-2.0009366423">
        <ele>76.08</ele>
        <time>2019-02-14T17:13:20Z</time>
      </trkpt>
      <trkpt lat="43.2525631227" lon="-2.0010974910">
        <ele>75.60</ele>
        <time>2019-02-14T17:13:22Z</time>
      </trkpt>
      <trkpt lat="43.2522766292" lon="-2.0021568798">
        <ele>76.08</ele>
        <time>2019-02-14T17:13:36Z</time>
      </trkpt>
      <trkpt lat="43.2522710972" lon="-2.0022261143">
        <ele>76.08</ele>
        <time>2019-02-14T17:13:37Z</time>
      </trkpt>
      <trkpt lat="43.2522637211" lon="-2.0023759827">
        <ele>76.08</ele>
        <time>2019-02-14T17:13:39Z</time>
      </trkpt>
      <trkpt lat="43.2522778865" lon="-2.0025387593">
        <ele>76.56</ele>
        <time>2019-02-14T17:13:41Z</time>
      </trkpt>
      <trkpt lat="43.2523002662" lon="-2.0026234165">
        <ele>76.56</ele>
        <time>2019-02-14T17:13:42Z</time>
      </trkpt>
      <trkpt lat="43.2523332909" lon="-2.0027014520">
        <ele>76.08</ele>
        <time>2019-02-14T17:13:43Z</time>
      </trkpt>
      <trkpt lat="43.2524026930" lon="-2.0028681681">
        <ele>75.60</ele>
        <time>2019-02-14T17:13:45Z</time>
      </trkpt>
      <trkpt lat="43.2524254080" lon="-2.0029698405">
        <ele>75.12</ele>
        <time>2019-02-14T17:13:46Z</time>
      </trkpt>
      <trkpt lat="43.2524330355" lon="-2.0030798111">
        <ele>74.64</ele>
        <time>2019-02-14T17:13:47Z</time>
      </trkpt>
      <trkpt lat="43.2524275035" lon="-2.0031923801">
        <ele>74.16</ele>
        <time>2019-02-14T17:13:48Z</time>
      </trkpt>
      <trkpt lat="43.2524144277" lon="-2.0033029374">
        <ele>73.68</ele>
        <time>2019-02-14T17:13:49Z</time>
      </trkpt>
      <trkpt lat="43.2523874380" lon="-2.0035018399">
        <ele>72.72</ele>
        <time>2019-02-14T17:13:51Z</time>
      </trkpt>
      <trkpt lat="43.2523876894" lon="-2.0035971422">
        <ele>72.72</ele>
        <time>2019-02-14T17:13:52Z</time>
      </trkpt>
      <trkpt lat="43.2523943111" lon="-2.0036906004">
        <ele>72.24</ele>
        <time>2019-02-14T17:13:53Z</time>
      </trkpt>
      <trkpt lat="43.2524066325" lon="-2.0037824661">
        <ele>72.24</ele>
        <time>2019-02-14T17:13:54Z</time>
      </trkpt>
      <trkpt lat="43.2524237316" lon="-2.0038771816">
        <ele>71.76</ele>
        <time>2019-02-14T17:13:55Z</time>
      </trkpt>
      <trkpt lat="43.2525051199" lon="-2.0042002201">
        <ele>70.79</ele>
        <time>2019-02-14T17:13:58Z</time>
      </trkpt>
      <trkpt lat="43.2525506336" lon="-2.0043125376">
        <ele>70.31</ele>
        <time>2019-02-14T17:13:59Z</time>
      </trkpt>
      <trkpt lat="43.2528016716" lon="-2.0048498176">
        <ele>68.39</ele>
        <time>2019-02-14T17:14:04Z</time>
      </trkpt>
      <trkpt lat="43.2528331038" lon="-2.0049725287">
        <ele>67.91</ele>
        <time>2019-02-14T17:14:05Z</time>
      </trkpt>
      <trkpt lat="43.2529661246" lon="-2.0055175200">
        <ele>64.55</ele>
        <time>2019-02-14T17:14:09Z</time>
      </trkpt>
      <trkpt lat="43.2530252170" lon="-2.0056429133">
        <ele>64.07</ele>
        <time>2019-02-14T17:14:10Z</time>
      </trkpt>
      <trkpt lat="43.2536425442" lon="-2.0066357497">
        <ele>63.10</ele>
        <time>2019-02-14T17:14:21Z</time>
      </trkpt>
      <trkpt lat="43.2539088372" lon="-2.0070327166">
        <ele>67.91</ele>
        <time>2019-02-14T17:14:30Z</time>
      </trkpt>
      <trkpt lat="43.2541555166" lon="-2.0074109919">
        <ele>71.27</ele>
        <time>2019-02-14T17:14:41Z</time>
      </trkpt>
      <trkpt lat="43.2543349732" lon="-2.0076668914">
        <ele>70.79</ele>
        <time>2019-02-14T17:14:47Z</time>
      </trkpt>
      <trkpt lat="43.2547708321" lon="-2.0081047621">
        <ele>72.72</ele>
        <time>2019-02-14T17:14:58Z</time>
      </trkpt>
      <trkpt lat="43.2547967322" lon="-2.0081486832">
        <ele>72.24</ele>
        <time>2019-02-14T17:14:59Z</time>
      </trkpt>
      <trkpt lat="43.2548206206" lon="-2.0082019083">
        <ele>72.24</ele>
        <time>2019-02-14T17:15:00Z</time>
      </trkpt>
      <trkpt lat="43.2548405696" lon="-2.0082664490">
        <ele>72.24</ele>
        <time>2019-02-14T17:15:01Z</time>
      </trkpt>
      <trkpt lat="43.2548561599" lon="-2.0083380304">
        <ele>72.24</ele>
        <time>2019-02-14T17:15:02Z</time>
      </trkpt>
      <trkpt lat="43.2548683975" lon="-2.0084188320">
        <ele>72.24</ele>
        <time>2019-02-14T17:15:03Z</time>
      </trkpt>
      <trkpt lat="43.2549901865" lon="-2.0093880314">
        <ele>71.27</ele>
        <time>2019-02-14T17:15:14Z</time>
      </trkpt>
      <trkpt lat="43.2550373767" lon="-2.0098700747">
        <ele>75.60</ele>
        <time>2019-02-14T17:15:20Z</time>
      </trkpt>
      <trkpt lat="43.2550340239" lon="-2.0099357050">
        <ele>76.08</ele>
        <time>2019-02-14T17:15:21Z</time>
      </trkpt>
      <trkpt lat="43.2550160028" lon="-2.0100538060">
        <ele>76.56</ele>
        <time>2019-02-14T17:15:23Z</time>
      </trkpt>
      <trkpt lat="43.2549991552" lon="-2.0101153292">
        <ele>76.56</ele>
        <time>2019-02-14T17:15:24Z</time>
      </trkpt>
      <trkpt lat="43.2549817208" lon="-2.0101756789">
        <ele>76.56</ele>
        <time>2019-02-14T17:15:25Z</time>
      </trkpt>
      <trkpt lat="43.2549611852" lon="-2.0102331787">
        <ele>76.56</ele>
        <time>2019-02-14T17:15:26Z</time>
      </trkpt>
      <trkpt lat="43.2549362909" lon="-2.0102909300">
        <ele>76.56</ele>
        <time>2019-02-14T17:15:27Z</time>
      </trkpt>
      <trkpt lat="43.2549138274" lon="-2.0103431493">
        <ele>76.56</ele>
        <time>2019-02-14T17:15:28Z</time>
      </trkpt>
      <trkpt lat="43.2548404858" lon="-2.0105278865">
        <ele>76.56</ele>
        <time>2019-02-14T17:15:31Z</time>
      </trkpt>
      <trkpt lat="43.2548233029" lon="-2.0106003061">
        <ele>76.08</ele>
        <time>2019-02-14T17:15:32Z</time>
      </trkpt>
      <trkpt lat="43.2548146695" lon="-2.0106803533">
        <ele>76.08</ele>
        <time>2019-02-14T17:15:33Z</time>
      </trkpt>
      <trkpt lat="43.2548183575" lon="-2.0107616577">
        <ele>76.08</ele>
        <time>2019-02-14T17:15:34Z</time>
      </trkpt>
      <trkpt lat="43.2548316009" lon="-2.0108407829">
        <ele>76.08</ele>
        <time>2019-02-14T17:15:35Z</time>
      </trkpt>
      <trkpt lat="43.2548491191" lon="-2.0109138731">
        <ele>76.08</ele>
        <time>2019-02-14T17:15:36Z</time>
      </trkpt>
      <trkpt lat="43.2548699062" lon="-2.0109824371">
        <ele>76.56</ele>
        <time>2019-02-14T17:15:37Z</time>
      </trkpt>
      <trkpt lat="43.2548914477" lon="-2.0110421162">
        <ele>77.04</ele>
        <time>2019-02-14T17:15:38Z</time>
      </trkpt>
      <trkpt lat="43.2549527194" lon="-2.0111950859">
        <ele>78.00</ele>
        <time>2019-02-14T17:15:41Z</time>
      </trkpt>
      <trkpt lat="43.2549758535" lon="-2.0112416055">
        <ele>78.00</ele>
        <time>2019-02-14T17:15:42Z</time>
      </trkpt>
      <trkpt lat="43.2549967244" lon="-2.0112852752">
        <ele>78.00</ele>
        <time>2019-02-14T17:15:43Z</time>
      </trkpt>
      <trkpt lat="43.2550135721" lon="-2.0113281906">
        <ele>78.00</ele>
        <time>2019-02-14T17:15:44Z</time>
      </trkpt>
      <trkpt lat="43.2550284918" lon="-2.0113708545">
        <ele>78.00</ele>
        <time>2019-02-14T17:15:45Z</time>
      </trkpt>
      <trkpt lat="43.2552758418" lon="-2.0120468549">
        <ele>81.37</ele>
        <time>2019-02-14T17:15:59Z</time>
      </trkpt>
      <trkpt lat="43.2554208487" lon="-2.0125200972">
        <ele>81.85</ele>
        <time>2019-02-14T17:16:08Z</time>
      </trkpt>
      <trkpt lat="43.2557295542" lon="-2.0134694315">
        <ele>84.25</ele>
        <time>2019-02-14T17:16:28Z</time>
      </trkpt>
      <trkpt lat="43.2559943385" lon="-2.0142124873">
        <ele>80.41</ele>
        <time>2019-02-14T17:16:41Z</time>
      </trkpt>
      <trkpt lat="43.2561178878" lon="-2.0147486776">
        <ele>74.64</ele>
        <time>2019-02-14T17:16:46Z</time>
      </trkpt>
      <trkpt lat="43.2561235875" lon="-2.0148659404">
        <ele>72.72</ele>
        <time>2019-02-14T17:16:47Z</time>
      </trkpt>
      <trkpt lat="43.2561187260" lon="-2.0149625838">
        <ele>71.76</ele>
        <time>2019-02-14T17:16:48Z</time>
      </trkpt>
      <trkpt lat="43.2560966816" lon="-2.0150646754">
        <ele>70.31</ele>
        <time>2019-02-14T17:16:49Z</time>
      </trkpt>
      <trkpt lat="43.2560578734" lon="-2.0151754841">
        <ele>68.87</ele>
        <time>2019-02-14T17:16:50Z</time>
      </trkpt>
      <trkpt lat="43.2560085040" lon="-2.0152786653">
        <ele>67.43</ele>
        <time>2019-02-14T17:16:51Z</time>
      </trkpt>
      <trkpt lat="43.2559422869" lon="-2.0153883006">
        <ele>65.51</ele>
        <time>2019-02-14T17:16:52Z</time>
      </trkpt>
      <trkpt lat="43.2558690291" lon="-2.0154926553">
        <ele>64.55</ele>
        <time>2019-02-14T17:16:53Z</time>
      </trkpt>
      <trkpt lat="43.2557901554" lon="-2.0155990217">
        <ele>62.62</ele>
        <time>2019-02-14T17:16:54Z</time>
      </trkpt>
      <trkpt lat="43.2553756703" lon="-2.0161948074">
        <ele>53.01</ele>
        <time>2019-02-14T17:17:00Z</time>
      </trkpt>
      <trkpt lat="43.2553388737" lon="-2.0162892714">
        <ele>51.57</ele>
        <time>2019-02-14T17:17:01Z</time>
      </trkpt>
      <trkpt lat="43.2553194277" lon="-2.0163960569">
        <ele>50.13</ele>
        <time>2019-02-14T17:17:02Z</time>
      </trkpt>
      <trkpt lat="43.2553249598" lon="-2.0165092126">
        <ele>48.20</ele>
        <time>2019-02-14T17:17:03Z</time>
      </trkpt>
      <trkpt lat="43.2553614210" lon="-2.0166245475">
        <ele>46.28</ele>
        <time>2019-02-14T17:17:04Z</time>
      </trkpt>
      <trkpt lat="43.2554204296" lon="-2.0167377871">
        <ele>44.84</ele>
        <time>2019-02-14T17:17:05Z</time>
      </trkpt>
      <trkpt lat="43.2554889098" lon="-2.0168566424">
        <ele>42.92</ele>
        <time>2019-02-14T17:17:06Z</time>
      </trkpt>
      <trkpt lat="43.2557490841" lon="-2.0173653401">
        <ele>36.19</ele>
        <time>2019-02-14T17:17:10Z</time>
      </trkpt>
      <trkpt lat="43.2559891418" lon="-2.0183511358">
        <ele>23.69</ele>
        <time>2019-02-14T17:17:17Z</time>
      </trkpt>
      <trkpt lat="43.2560602203" lon="-2.0186425745">
        <ele>17.92</ele>
        <time>2019-02-14T17:17:22Z</time>
      </trkpt>
      <trkpt lat="43.2563619688" lon="-2.0185725857">
        <ele>17.44</ele>
        <time>2019-02-14T17:17:30Z</time>
      </trkpt>
      <trkpt lat="43.2573736645" lon="-2.0181500539">
        <ele>19.84</ele>
        <time>2019-02-14T17:17:48Z</time>
      </trkpt>
      <trkpt lat="43.2576202601" lon="-2.0180606190">
        <ele>20.32</ele>
        <time>2019-02-14T17:17:52Z</time>
      </trkpt>
      <trkpt lat="43.2580375951" lon="-2.0179406740">
        <ele>19.84</ele>
        <time>2019-02-14T17:17:59Z</time>
      </trkpt>
      <trkpt lat="43.2582422812" lon="-2.0180529077">
        <ele>20.81</ele>
        <time>2019-02-14T17:18:06Z</time>
      </trkpt>
      <trkpt lat="43.2582621463" lon="-2.0181920473">
        <ele>20.32</ele>
        <time>2019-02-14T17:18:13Z</time>
      </trkpt>
      <trkpt lat="43.2582548540" lon="-2.0181648899">
        <ele>21.29</ele>
        <time>2019-02-14T17:18:24Z</time>
      </trkpt>
      <trkpt lat="43.2582504954" lon="-2.0181863476">
        <ele>21.77</ele>
        <time>2019-02-14T17:18:38Z</time>
      </trkpt>
      <trkpt lat="43.2582528424" lon="-2.0181842521">
        <ele>21.77</ele>
        <time>2019-02-14T17:18:51Z</time>
      </trkpt>
    </trkseg>
  </trk>
</gpx>
